Wetterdaten: Montag, 11.01.2021
Datum Zeit Temp. I. Temp. A. Feuchte I. Feuchte A. Luftdruck Regen Wind Richtung Richtung Sonnenschein Solar Taupunkt Windchill Windböen
11.01.2021 00:00 23,7 °C -3,9 °C 45 % 93 % 1023,2 hPa 0,0 l/m² 0,0 km/h (0 Bft) O-SO 117 ° 0 min 0 W/m² -4,9 °C -3,9 °C 0,0 km/h (0 Bft)
11.01.2021 00:02 23,7 °C -3,9 °C 45 % 93 % 1022,9 hPa 0,0 l/m² 2,9 km/h (1 Bft) O-SO 117 ° 0 min 0 W/m² -4,9 °C -3,9 °C 4,8 km/h (1 Bft)
11.01.2021 00:03 23,7 °C -3,9 °C 45 % 93 % 1023,0 hPa 0,0 l/m² 3,4 km/h (1 Bft) O-SO 117 ° 0 min 0 W/m² -4,9 °C -3,9 °C 4,8 km/h (1 Bft)
11.01.2021 00:05 23,7 °C -3,9 °C 45 % 93 % 1023,0 hPa 0,0 l/m² 4,4 km/h (1 Bft) O 98 ° 0 min 0 W/m² -4,9 °C -3,9 °C 6,4 km/h (2 Bft)
11.01.2021 00:06 23,7 °C -3,9 °C 45 % 93 % 1023,0 hPa 0,0 l/m² 4,5 km/h (1 Bft) O 98 ° 0 min 0 W/m² -4,9 °C -3,9 °C 4,8 km/h (1 Bft)
11.01.2021 00:07 23,7 °C -3,9 °C 45 % 93 % 1022,9 hPa 0,0 l/m² 3,8 km/h (1 Bft) O 101 ° 0 min 0 W/m² -4,9 °C -3,9 °C 4,8 km/h (1 Bft)
11.01.2021 00:08 23,7 °C -3,9 °C 45 % 93 % 1022,9 hPa 0,0 l/m² 4,9 km/h (1 Bft) SO 126 ° 0 min 0 W/m² -4,9 °C -3,9 °C 6,4 km/h (2 Bft)
11.01.2021 00:09 23,7 °C -3,9 °C 45 % 93 % 1022,9 hPa 0,0 l/m² 3,8 km/h (1 Bft) SO 130 ° 0 min 0 W/m² -4,9 °C -3,9 °C 4,8 km/h (1 Bft)
11.01.2021 00:10 23,7 °C -3,9 °C 45 % 93 % 1023,0 hPa 0,0 l/m² 5,0 km/h (1 Bft) SO 126 ° 0 min 0 W/m² -4,9 °C -3,9 °C 6,4 km/h (2 Bft)
11.01.2021 00:12 23,7 °C -3,8 °C 45 % 93 % 1022,9 hPa 0,0 l/m² 3,3 km/h (1 Bft) SO 128 ° 0 min 0 W/m² -4,8 °C -3,8 °C 8,0 km/h (2 Bft)
11.01.2021 00:13 23,7 °C -3,9 °C 45 % 93 % 1022,9 hPa 0,0 l/m² 2,5 km/h (1 Bft) SO 128 ° 0 min 0 W/m² -4,9 °C -3,9 °C 3,2 km/h (1 Bft)
11.01.2021 00:15 23,7 °C -3,8 °C 45 % 93 % 1022,9 hPa 0,0 l/m² 2,1 km/h (1 Bft) SO 126 ° 0 min 0 W/m² -4,8 °C -3,8 °C 4,8 km/h (1 Bft)
11.01.2021 00:17 23,7 °C -3,8 °C 45 % 92 % 1022,8 hPa 0,0 l/m² 3,0 km/h (1 Bft) O-SO 113 ° 0 min 0 W/m² -4,9 °C -3,8 °C 4,8 km/h (1 Bft)
11.01.2021 00:19 23,7 °C -3,8 °C 45 % 92 % 1022,8 hPa 0,0 l/m² 0,9 km/h (0 Bft) O-SO 113 ° 0 min 0 W/m² -4,9 °C -3,8 °C 3,2 km/h (1 Bft)
11.01.2021 00:21 23,7 °C -3,8 °C 45 % 92 % 1022,9 hPa 0,0 l/m² 1,7 km/h (1 Bft) O-SO 113 ° 0 min 0 W/m² -4,9 °C -3,8 °C 3,2 km/h (1 Bft)
11.01.2021 00:23 23,7 °C -3,8 °C 45 % 92 % 1022,8 hPa 0,0 l/m² 2,0 km/h (1 Bft) O-SO 113 ° 0 min 0 W/m² -4,9 °C -3,8 °C 3,2 km/h (1 Bft)
11.01.2021 00:25 23,7 °C -3,8 °C 45 % 92 % 1022,8 hPa 0,0 l/m² 3,2 km/h (1 Bft) O-SO 111 ° 0 min 0 W/m² -4,9 °C -3,8 °C 4,8 km/h (1 Bft)
11.01.2021 00:27 23,7 °C -3,8 °C 45 % 92 % 1022,9 hPa 0,0 l/m² 2,5 km/h (1 Bft) O 95 ° 0 min 0 W/m² -4,9 °C -3,8 °C 4,8 km/h (1 Bft)
11.01.2021 00:29 23,7 °C -3,8 °C 45 % 92 % 1022,9 hPa 0,0 l/m² 2,0 km/h (1 Bft) O 95 ° 0 min 0 W/m² -4,9 °C -3,8 °C 3,2 km/h (1 Bft)
11.01.2021 00:31 23,7 °C -3,8 °C 45 % 92 % 1022,9 hPa 0,0 l/m² 0,5 km/h (0 Bft) O 95 ° 0 min 0 W/m² -4,9 °C -3,8 °C 1,6 km/h (1 Bft)
11.01.2021 00:33 23,6 °C -3,7 °C 45 % 92 % 1022,8 hPa 0,0 l/m² 0,0 km/h (0 Bft) O 95 ° 0 min 0 W/m² -4,8 °C -3,7 °C 1,6 km/h (1 Bft)
11.01.2021 00:34 23,7 °C -3,7 °C 45 % 92 % 1022,8 hPa 0,0 l/m² 0,0 km/h (0 Bft) O 95 ° 0 min 0 W/m² -4,8 °C -3,7 °C 0,0 km/h (0 Bft)
11.01.2021 00:36 23,6 °C -3,8 °C 45 % 92 % 1022,8 hPa 0,0 l/m² 0,0 km/h (0 Bft) O 95 ° 0 min 0 W/m² -4,9 °C -3,8 °C 0,0 km/h (0 Bft)
11.01.2021 00:38 23,6 °C -3,8 °C 45 % 92 % 1022,9 hPa 0,0 l/m² 0,0 km/h (0 Bft) O 95 ° 0 min 0 W/m² -4,9 °C -3,8 °C 0,0 km/h (0 Bft)
11.01.2021 00:40 23,6 °C -3,7 °C 45 % 92 % 1022,9 hPa 0,0 l/m² 1,4 km/h (1 Bft) O 95 ° 0 min 0 W/m² -4,8 °C -3,7 °C 3,2 km/h (1 Bft)
11.01.2021 00:42 23,6 °C -3,8 °C 45 % 92 % 1022,9 hPa 0,0 l/m² 3,0 km/h (1 Bft) O 81 ° 0 min 0 W/m² -4,9 °C -3,8 °C 4,8 km/h (1 Bft)
11.01.2021 00:44 23,6 °C -3,8 °C 45 % 92 % 1022,8 hPa 0,0 l/m² 2,5 km/h (1 Bft) O 81 ° 0 min 0 W/m² -4,9 °C -3,8 °C 3,2 km/h (1 Bft)
11.01.2021 00:46 23,6 °C -3,8 °C 45 % 92 % 1022,9 hPa 0,0 l/m² 2,4 km/h (1 Bft) O 81 ° 0 min 0 W/m² -4,9 °C -3,8 °C 3,2 km/h (1 Bft)
11.01.2021 00:47 23,6 °C -3,8 °C 45 % 92 % 1022,8 hPa 0,0 l/m² 1,9 km/h (1 Bft) O 81 ° 0 min 0 W/m² -4,9 °C -3,8 °C 3,2 km/h (1 Bft)
11.01.2021 00:49 23,6 °C -3,8 °C 45 % 92 % 1022,8 hPa 0,0 l/m² 1,5 km/h (1 Bft) O 81 ° 0 min 0 W/m² -4,9 °C -3,8 °C 4,8 km/h (1 Bft)
11.01.2021 00:51 23,6 °C -3,8 °C 45 % 92 % 1022,8 hPa 0,0 l/m² 2,3 km/h (1 Bft) O 81 ° 0 min 0 W/m² -4,9 °C -3,8 °C 4,8 km/h (1 Bft)
11.01.2021 00:53 23,6 °C -3,8 °C 45 % 92 % 1022,7 hPa 0,0 l/m² 0,7 km/h (0 Bft) O 81 ° 0 min 0 W/m² -4,9 °C -3,8 °C 1,6 km/h (1 Bft)
11.01.2021 00:55 23,6 °C -3,9 °C 45 % 92 % 1022,8 hPa 0,0 l/m² 1,8 km/h (1 Bft) O 81 ° 0 min 0 W/m² -5,0 °C -3,9 °C 3,2 km/h (1 Bft)
11.01.2021 00:57 23,6 °C -3,9 °C 45 % 92 % 1022,7 hPa 0,0 l/m² 0,8 km/h (0 Bft) O 81 ° 0 min 0 W/m² -5,0 °C -3,9 °C 1,6 km/h (1 Bft)
11.01.2021 00:59 23,6 °C -3,9 °C 45 % 92 % 1022,6 hPa 0,0 l/m² 1,9 km/h (1 Bft) O 81 ° 0 min 0 W/m² -5,0 °C -3,9 °C 3,2 km/h (1 Bft)
11.01.2021 01:01 23,6 °C -4,0 °C 45 % 92 % 1022,6 hPa 0,0 l/m² 4,3 km/h (1 Bft) O 90 ° 0 min 0 W/m² -5,1 °C -4,0 °C 6,4 km/h (2 Bft)
11.01.2021 01:03 23,6 °C -4,1 °C 45 % 92 % 1022,7 hPa 0,0 l/m² 4,6 km/h (1 Bft) O-SO 105 ° 0 min 0 W/m² -5,2 °C -4,1 °C 6,4 km/h (2 Bft)
11.01.2021 01:05 23,6 °C -4,1 °C 45 % 92 % 1022,7 hPa 0,0 l/m² 3,5 km/h (1 Bft) O-SO 105 ° 0 min 0 W/m² -5,2 °C -4,1 °C 4,8 km/h (1 Bft)
11.01.2021 01:07 23,6 °C -4,2 °C 45 % 92 % 1022,6 hPa 0,0 l/m² 2,4 km/h (1 Bft) O-SO 105 ° 0 min 0 W/m² -5,3 °C -4,2 °C 3,2 km/h (1 Bft)
11.01.2021 01:09 23,6 °C -4,2 °C 45 % 92 % 1022,5 hPa 0,0 l/m² 2,6 km/h (1 Bft) O-SO 105 ° 0 min 0 W/m² -5,3 °C -4,2 °C 4,8 km/h (1 Bft)
11.01.2021 01:11 23,6 °C -4,2 °C 45 % 91 % 1022,5 hPa 0,0 l/m² 3,8 km/h (1 Bft) O-SO 123 ° 0 min 0 W/m² -5,4 °C -4,2 °C 4,8 km/h (1 Bft)
11.01.2021 01:13 23,6 °C -4,3 °C 45 % 91 % 1022,6 hPa 0,0 l/m² 3,8 km/h (1 Bft) S-SO 153 ° 0 min 0 W/m² -5,5 °C -4,3 °C 6,4 km/h (2 Bft)
11.01.2021 01:15 23,6 °C -4,3 °C 45 % 92 % 1022,4 hPa 0,0 l/m² 3,1 km/h (1 Bft) S-SO 153 ° 0 min 0 W/m² -5,4 °C -4,3 °C 6,4 km/h (2 Bft)
11.01.2021 01:17 23,6 °C -4,3 °C 45 % 92 % 1022,5 hPa 0,0 l/m² 3,5 km/h (1 Bft) S-SO 153 ° 0 min 0 W/m² -5,4 °C -4,3 °C 4,8 km/h (1 Bft)
11.01.2021 01:19 23,6 °C -4,3 °C 45 % 92 % 1022,4 hPa 0,0 l/m² 3,5 km/h (1 Bft) S-SO 153 ° 0 min 0 W/m² -5,4 °C -4,3 °C 4,8 km/h (1 Bft)
11.01.2021 01:21 23,6 °C -4,3 °C 45 % 92 % 1022,2 hPa 0,0 l/m² 3,3 km/h (1 Bft) S-SO 150 ° 0 min 0 W/m² -5,4 °C -4,3 °C 4,8 km/h (1 Bft)
11.01.2021 01:23 23,6 °C -4,3 °C 45 % 91 % 1022,2 hPa 0,0 l/m² 4,2 km/h (1 Bft) O-SO 109 ° 0 min 0 W/m² -5,5 °C -4,3 °C 6,4 km/h (2 Bft)
11.01.2021 01:24 23,6 °C -4,3 °C 45 % 91 % 1022,2 hPa 0,0 l/m² 2,9 km/h (1 Bft) O-SO 109 ° 0 min 0 W/m² -5,5 °C -4,3 °C 4,8 km/h (1 Bft)
11.01.2021 01:25 23,6 °C -4,3 °C 45 % 91 % 1022,2 hPa 0,0 l/m² 3,3 km/h (1 Bft) O-SO 105 ° 0 min 0 W/m² -5,5 °C -4,3 °C 4,8 km/h (1 Bft)
11.01.2021 01:27 23,6 °C -4,3 °C 45 % 91 % 1022,1 hPa 0,0 l/m² 2,6 km/h (1 Bft) O-SO 106 ° 0 min 0 W/m² -5,5 °C -4,3 °C 4,8 km/h (1 Bft)
11.01.2021 01:29 23,6 °C -4,2 °C 45 % 91 % 1022,0 hPa 0,0 l/m² 3,1 km/h (1 Bft) O-SO 117 ° 0 min 0 W/m² -5,4 °C -4,2 °C 4,8 km/h (1 Bft)
11.01.2021 01:31 23,6 °C -4,2 °C 45 % 91 % 1022,2 hPa 0,0 l/m² 3,2 km/h (1 Bft) SO 134 ° 0 min 0 W/m² -5,4 °C -4,2 °C 4,8 km/h (1 Bft)
11.01.2021 01:33 23,6 °C -4,3 °C 45 % 91 % 1022,2 hPa 0,0 l/m² 3,8 km/h (1 Bft) SO 130 ° 0 min 0 W/m² -5,5 °C -4,3 °C 6,4 km/h (2 Bft)
11.01.2021 01:34 23,6 °C -4,3 °C 45 % 91 % 1022,2 hPa 0,0 l/m² 2,8 km/h (1 Bft) SO 132 ° 0 min 0 W/m² -5,5 °C -4,3 °C 4,8 km/h (1 Bft)
11.01.2021 01:36 23,6 °C -4,3 °C 45 % 91 % 1022,2 hPa 0,0 l/m² 1,5 km/h (1 Bft) SO 132 ° 0 min 0 W/m² -5,5 °C -4,3 °C 3,2 km/h (1 Bft)
11.01.2021 01:38 23,6 °C -4,3 °C 45 % 91 % 1022,1 hPa 0,0 l/m² 1,4 km/h (1 Bft) SO 132 ° 0 min 0 W/m² -5,5 °C -4,3 °C 3,2 km/h (1 Bft)
11.01.2021 01:40 23,6 °C -4,3 °C 45 % 91 % 1022,1 hPa 0,0 l/m² 1,0 km/h (0 Bft) SO 132 ° 0 min 0 W/m² -5,5 °C -4,3 °C 1,6 km/h (1 Bft)
11.01.2021 01:42 23,6 °C -4,3 °C 45 % 91 % 1022,1 hPa 0,0 l/m² 1,1 km/h (1 Bft) SO 132 ° 0 min 0 W/m² -5,5 °C -4,3 °C 1,6 km/h (1 Bft)
11.01.2021 01:44 23,6 °C -4,3 °C 45 % 91 % 1022,2 hPa 0,0 l/m² 1,6 km/h (1 Bft) SO 132 ° 0 min 0 W/m² -5,5 °C -4,3 °C 3,2 km/h (1 Bft)
11.01.2021 01:46 23,6 °C -4,3 °C 45 % 91 % 1022,2 hPa 0,0 l/m² 0,9 km/h (0 Bft) SO 132 ° 0 min 0 W/m² -5,5 °C -4,3 °C 3,2 km/h (1 Bft)
11.01.2021 01:48 23,6 °C -4,3 °C 45 % 91 % 1022,4 hPa 0,0 l/m² 2,1 km/h (1 Bft) SO 131 ° 0 min 0 W/m² -5,5 °C -4,3 °C 3,2 km/h (1 Bft)
11.01.2021 01:50 23,7 °C -4,4 °C 45 % 91 % 1022,3 hPa 0,0 l/m² 2,1 km/h (1 Bft) SO 131 ° 0 min 0 W/m² -5,6 °C -4,4 °C 3,2 km/h (1 Bft)
11.01.2021 01:52 23,6 °C -4,4 °C 45 % 91 % 1022,3 hPa 0,0 l/m² 1,8 km/h (1 Bft) SO 131 ° 0 min 0 W/m² -5,6 °C -4,4 °C 3,2 km/h (1 Bft)
11.01.2021 01:54 23,6 °C -4,4 °C 45 % 91 % 1022,2 hPa 0,0 l/m² 1,9 km/h (1 Bft) SO 131 ° 0 min 0 W/m² -5,6 °C -4,4 °C 3,2 km/h (1 Bft)
11.01.2021 01:56 23,6 °C -4,4 °C 45 % 91 % 1022,1 hPa 0,0 l/m² 2,1 km/h (1 Bft) SO 131 ° 0 min 0 W/m² -5,6 °C -4,4 °C 3,2 km/h (1 Bft)
11.01.2021 01:58 23,6 °C -4,4 °C 45 % 91 % 1022,1 hPa 0,0 l/m² 2,2 km/h (1 Bft) SO 131 ° 0 min 0 W/m² -5,6 °C -4,4 °C 3,2 km/h (1 Bft)
11.01.2021 02:00 23,7 °C -4,4 °C 45 % 91 % 1022,1 hPa 0,0 l/m² 3,0 km/h (1 Bft) SO 131 ° 0 min 0 W/m² -5,6 °C -4,4 °C 4,8 km/h (1 Bft)
11.01.2021 02:02 23,6 °C -4,5 °C 45 % 91 % 1022,2 hPa 0,0 l/m² 1,6 km/h (1 Bft) SO 131 ° 0 min 0 W/m² -5,7 °C -4,5 °C 3,2 km/h (1 Bft)
11.01.2021 02:03 23,6 °C -4,5 °C 45 % 91 % 1022,1 hPa 0,0 l/m² 1,9 km/h (1 Bft) SO 131 ° 0 min 0 W/m² -5,7 °C -4,5 °C 3,2 km/h (1 Bft)
11.01.2021 02:05 23,6 °C -4,5 °C 45 % 91 % 1022,2 hPa 0,0 l/m² 1,5 km/h (1 Bft) SO 131 ° 0 min 0 W/m² -5,7 °C -4,5 °C 3,2 km/h (1 Bft)
11.01.2021 02:07 23,6 °C -4,6 °C 45 % 91 % 1022,2 hPa 0,0 l/m² 1,4 km/h (1 Bft) SO 131 ° 0 min 0 W/m² -5,8 °C -4,6 °C 3,2 km/h (1 Bft)
11.01.2021 02:09 23,6 °C -4,6 °C 45 % 91 % 1022,2 hPa 0,0 l/m² 0,8 km/h (0 Bft) SO 131 ° 0 min 0 W/m² -5,8 °C -4,6 °C 3,2 km/h (1 Bft)
11.01.2021 02:11 23,7 °C -4,6 °C 45 % 91 % 1022,1 hPa 0,0 l/m² 0,5 km/h (0 Bft) SO 131 ° 0 min 0 W/m² -5,8 °C -4,6 °C 3,2 km/h (1 Bft)
11.01.2021 02:13 23,6 °C -4,6 °C 45 % 91 % 1022,2 hPa 0,0 l/m² 1,9 km/h (1 Bft) SO 131 ° 0 min 0 W/m² -5,8 °C -4,6 °C 3,2 km/h (1 Bft)
11.01.2021 02:15 23,6 °C -4,6 °C 45 % 91 % 1022,2 hPa 0,0 l/m² 2,6 km/h (1 Bft) SO 131 ° 0 min 0 W/m² -5,8 °C -4,6 °C 3,2 km/h (1 Bft)
11.01.2021 02:17 23,6 °C -4,6 °C 45 % 91 % 1022,3 hPa 0,0 l/m² 2,3 km/h (1 Bft) SO 131 ° 0 min 0 W/m² -5,8 °C -4,6 °C 3,2 km/h (1 Bft)
11.01.2021 02:19 23,6 °C -4,6 °C 45 % 91 % 1022,4 hPa 0,0 l/m² 1,9 km/h (1 Bft) SO 128 ° 0 min 0 W/m² -5,8 °C -4,6 °C 3,2 km/h (1 Bft)
11.01.2021 02:21 23,6 °C -4,6 °C 45 % 91 % 1022,5 hPa 0,0 l/m² 1,8 km/h (1 Bft) SO 127 ° 0 min 0 W/m² -5,8 °C -4,6 °C 3,2 km/h (1 Bft)
11.01.2021 02:23 23,6 °C -4,6 °C 45 % 91 % 1022,4 hPa 0,0 l/m² 2,1 km/h (1 Bft) SO 126 ° 0 min 0 W/m² -5,8 °C -4,6 °C 4,8 km/h (1 Bft)
11.01.2021 02:25 23,6 °C -4,7 °C 45 % 91 % 1022,5 hPa 0,0 l/m² 3,0 km/h (1 Bft) SO 125 ° 0 min 0 W/m² -5,9 °C -4,7 °C 4,8 km/h (1 Bft)
11.01.2021 02:27 23,6 °C -4,6 °C 45 % 91 % 1022,5 hPa 0,0 l/m² 2,6 km/h (1 Bft) SO 125 ° 0 min 0 W/m² -5,8 °C -4,6 °C 3,2 km/h (1 Bft)
11.01.2021 02:29 23,6 °C -4,6 °C 45 % 91 % 1022,6 hPa 0,0 l/m² 2,8 km/h (1 Bft) SO 125 ° 0 min 0 W/m² -5,8 °C -4,6 °C 4,8 km/h (1 Bft)
11.01.2021 02:31 23,6 °C -4,7 °C 45 % 91 % 1022,5 hPa 0,0 l/m² 3,2 km/h (1 Bft) O 99 ° 0 min 0 W/m² -5,9 °C -4,7 °C 6,4 km/h (2 Bft)
11.01.2021 02:33 23,6 °C -4,7 °C 45 % 91 % 1022,5 hPa 0,0 l/m² 6,3 km/h (2 Bft) O 90 ° 0 min 0 W/m² -5,9 °C -4,7 °C 9,7 km/h (2 Bft)
11.01.2021 02:35 23,6 °C -4,7 °C 45 % 91 % 1022,5 hPa 0,0 l/m² 6,2 km/h (2 Bft) O 86 ° 0 min 0 W/m² -5,9 °C -4,7 °C 6,4 km/h (2 Bft)
11.01.2021 02:37 23,6 °C -4,7 °C 45 % 91 % 1022,4 hPa 0,0 l/m² 5,4 km/h (2 Bft) O 84 ° 0 min 0 W/m² -5,9 °C -4,7 °C 6,4 km/h (2 Bft)
11.01.2021 02:39 23,6 °C -4,7 °C 45 % 91 % 1022,5 hPa 0,0 l/m² 3,8 km/h (1 Bft) O 84 ° 0 min 0 W/m² -5,9 °C -4,7 °C 6,4 km/h (2 Bft)
11.01.2021 02:41 23,6 °C -4,7 °C 45 % 91 % 1022,4 hPa 0,0 l/m² 5,1 km/h (1 Bft) O 84 ° 0 min 0 W/m² -5,9 °C -4,7 °C 6,4 km/h (2 Bft)
11.01.2021 02:43 23,6 °C -4,7 °C 45 % 91 % 1022,4 hPa 0,0 l/m² 5,5 km/h (2 Bft) O 92 ° 0 min 0 W/m² -5,9 °C -4,7 °C 6,4 km/h (2 Bft)
11.01.2021 02:45 23,6 °C -4,7 °C 45 % 91 % 1022,4 hPa 0,0 l/m² 4,8 km/h (1 Bft) O 90 ° 0 min 0 W/m² -5,9 °C -4,7 °C 6,4 km/h (2 Bft)
11.01.2021 02:47 23,6 °C -4,7 °C 45 % 91 % 1022,4 hPa 0,0 l/m² 4,6 km/h (1 Bft) O 83 ° 0 min 0 W/m² -5,9 °C -4,7 °C 8,0 km/h (2 Bft)
11.01.2021 02:49 23,6 °C -4,7 °C 45 % 91 % 1022,3 hPa 0,0 l/m² 4,5 km/h (1 Bft) O 83 ° 0 min 0 W/m² -5,9 °C -4,7 °C 6,4 km/h (2 Bft)
11.01.2021 02:51 23,6 °C -4,6 °C 45 % 91 % 1022,3 hPa 0,0 l/m² 6,5 km/h (2 Bft) O 89 ° 0 min 0 W/m² -5,8 °C -4,7 °C 9,7 km/h (2 Bft)
11.01.2021 02:53 23,6 °C -4,6 °C 45 % 91 % 1022,4 hPa 0,0 l/m² 5,8 km/h (2 Bft) O 88 ° 0 min 0 W/m² -5,8 °C -4,6 °C 8,0 km/h (2 Bft)
11.01.2021 02:55 23,6 °C -4,6 °C 45 % 91 % 1022,3 hPa 0,0 l/m² 4,5 km/h (1 Bft) O 86 ° 0 min 0 W/m² -5,8 °C -4,6 °C 6,4 km/h (2 Bft)
11.01.2021 02:57 23,6 °C -4,5 °C 45 % 91 % 1022,4 hPa 0,0 l/m² 3,4 km/h (1 Bft) O-NO 74 ° 0 min 0 W/m² -5,7 °C -4,5 °C 6,4 km/h (2 Bft)
11.01.2021 02:59 23,6 °C -4,4 °C 45 % 91 % 1022,2 hPa 0,0 l/m² 3,5 km/h (1 Bft) O-NO 74 ° 0 min 0 W/m² -5,6 °C -4,4 °C 6,4 km/h (2 Bft)
11.01.2021 03:00 23,6 °C -4,5 °C 45 % 91 % 1022,3 hPa 0,0 l/m² 4,8 km/h (1 Bft) O-NO 67 ° 0 min 0 W/m² -5,7 °C -4,5 °C 6,4 km/h (2 Bft)
11.01.2021 03:01 23,6 °C -4,4 °C 45 % 91 % 1022,2 hPa 0,0 l/m² 4,8 km/h (1 Bft) O-NO 67 ° 0 min 0 W/m² -5,6 °C -4,4 °C 6,4 km/h (2 Bft)
11.01.2021 03:06 23,6 °C -4,4 °C 45 % 91 % 1022,2 hPa 0,0 l/m² 5,0 km/h (1 Bft) O 84 ° 0 min 0 W/m² -5,6 °C -4,4 °C 6,4 km/h (2 Bft)
11.01.2021 03:08 23,5 °C -4,3 °C 45 % 91 % 1022,2 hPa 0,0 l/m² 6,6 km/h (2 Bft) O-NO 73 ° 0 min 0 W/m² -5,5 °C -4,5 °C 9,7 km/h (2 Bft)
11.01.2021 03:09 23,5 °C -4,3 °C 45 % 91 % 1022,2 hPa 0,0 l/m² 6,1 km/h (2 Bft) O-NO 76 ° 0 min 0 W/m² -5,5 °C -4,3 °C 6,4 km/h (2 Bft)
11.01.2021 03:11 23,5 °C -4,3 °C 45 % 91 % 1022,2 hPa 0,0 l/m² 5,8 km/h (2 Bft) O-NO 68 ° 0 min 0 W/m² -5,5 °C -4,3 °C 8,0 km/h (2 Bft)
11.01.2021 03:12 23,6 °C -4,3 °C 45 % 91 % 1022,2 hPa 0,0 l/m² 4,9 km/h (1 Bft) O-NO 68 ° 0 min 0 W/m² -5,5 °C -4,3 °C 8,0 km/h (2 Bft)
11.01.2021 03:14 23,6 °C -4,3 °C 45 % 91 % 1022,1 hPa 0,0 l/m² 4,5 km/h (1 Bft) O-NO 67 ° 0 min 0 W/m² -5,5 °C -4,3 °C 6,4 km/h (2 Bft)
11.01.2021 03:15 23,6 °C -4,2 °C 45 % 91 % 1022,1 hPa 0,0 l/m² 4,8 km/h (1 Bft) O-NO 67 ° 0 min 0 W/m² -5,4 °C -4,2 °C 6,4 km/h (2 Bft)
11.01.2021 03:16 23,5 °C -4,2 °C 45 % 91 % 1022,2 hPa 0,0 l/m² 4,8 km/h (1 Bft) O-NO 67 ° 0 min 0 W/m² -5,4 °C -4,2 °C 6,4 km/h (2 Bft)
11.01.2021 03:21 23,5 °C -4,2 °C 45 % 91 % 1022,1 hPa 0,0 l/m² 4,6 km/h (1 Bft) O-NO 64 ° 0 min 0 W/m² -5,4 °C -4,2 °C 4,8 km/h (1 Bft)
11.01.2021 03:23 23,4 °C -4,2 °C 45 % 91 % 1022,0 hPa 0,0 l/m² 5,4 km/h (2 Bft) O-NO 72 ° 0 min 0 W/m² -5,4 °C -4,2 °C 8,0 km/h (2 Bft)
11.01.2021 03:25 23,5 °C -4,1 °C 45 % 91 % 1022,1 hPa 0,0 l/m² 4,4 km/h (1 Bft) O-NO 66 ° 0 min 0 W/m² -5,3 °C -4,1 °C 8,0 km/h (2 Bft)
11.01.2021 03:27 23,4 °C -4,1 °C 45 % 91 % 1022,1 hPa 0,0 l/m² 3,7 km/h (1 Bft) O-NO 66 ° 0 min 0 W/m² -5,3 °C -4,1 °C 6,4 km/h (2 Bft)
11.01.2021 03:29 23,5 °C -4,0 °C 45 % 91 % 1022,0 hPa 0,0 l/m² 2,8 km/h (1 Bft) O-NO 62 ° 0 min 0 W/m² -5,2 °C -4,0 °C 4,8 km/h (1 Bft)
11.01.2021 03:30 23,4 °C -4,0 °C 45 % 91 % 1022,1 hPa 0,0 l/m² 2,7 km/h (1 Bft) O-NO 64 ° 0 min 0 W/m² -5,2 °C -4,0 °C 6,4 km/h (2 Bft)
11.01.2021 03:32 23,4 °C -3,9 °C 45 % 91 % 1022,1 hPa 0,0 l/m² 2,0 km/h (1 Bft) O-NO 64 ° 0 min 0 W/m² -5,1 °C -3,9 °C 4,8 km/h (1 Bft)
11.01.2021 03:33 23,5 °C -3,9 °C 45 % 91 % 1022,0 hPa 0,0 l/m² 3,3 km/h (1 Bft) O-NO 64 ° 0 min 0 W/m² -5,1 °C -3,9 °C 4,8 km/h (1 Bft)
11.01.2021 03:34 23,5 °C -3,9 °C 45 % 91 % 1021,9 hPa 0,0 l/m² 2,6 km/h (1 Bft) O-NO 63 ° 0 min 0 W/m² -5,1 °C -3,9 °C 4,8 km/h (1 Bft)
11.01.2021 03:36 23,5 °C -3,8 °C 45 % 91 % 1021,9 hPa 0,0 l/m² 2,8 km/h (1 Bft) O-NO 65 ° 0 min 0 W/m² -5,0 °C -3,8 °C 4,8 km/h (1 Bft)
11.01.2021 03:38 23,4 °C -3,8 °C 45 % 91 % 1021,9 hPa 0,0 l/m² 3,7 km/h (1 Bft) O-NO 65 ° 0 min 0 W/m² -5,0 °C -3,8 °C 4,8 km/h (1 Bft)
11.01.2021 03:40 23,5 °C -3,7 °C 45 % 91 % 1021,8 hPa 0,0 l/m² 3,4 km/h (1 Bft) O-NO 64 ° 0 min 0 W/m² -4,9 °C -3,7 °C 6,4 km/h (2 Bft)
11.01.2021 03:41 23,5 °C -3,7 °C 45 % 91 % 1021,7 hPa 0,0 l/m² 3,6 km/h (1 Bft) O-NO 64 ° 0 min 0 W/m² -4,9 °C -3,7 °C 4,8 km/h (1 Bft)
11.01.2021 03:42 23,4 °C -3,7 °C 45 % 91 % 1021,8 hPa 0,0 l/m² 1,4 km/h (1 Bft) O-NO 64 ° 0 min 0 W/m² -4,9 °C -3,7 °C 3,2 km/h (1 Bft)
11.01.2021 03:43 23,5 °C -3,7 °C 45 % 91 % 1021,8 hPa 0,0 l/m² 1,2 km/h (1 Bft) O-NO 64 ° 0 min 0 W/m² -4,9 °C -3,7 °C 3,2 km/h (1 Bft)
11.01.2021 03:45 23,5 °C -3,6 °C 45 % 91 % 1021,7 hPa 0,0 l/m² 3,7 km/h (1 Bft) O-NO 65 ° 0 min 0 W/m² -4,8 °C -3,6 °C 6,4 km/h (2 Bft)
11.01.2021 03:46 23,5 °C -3,6 °C 45 % 91 % 1021,7 hPa 0,0 l/m² 2,1 km/h (1 Bft) O-NO 65 ° 0 min 0 W/m² -4,8 °C -3,6 °C 3,2 km/h (1 Bft)
11.01.2021 03:47 23,5 °C -3,6 °C 45 % 91 % 1021,7 hPa 0,0 l/m² 3,1 km/h (1 Bft) O-NO 65 ° 0 min 0 W/m² -4,8 °C -3,6 °C 4,8 km/h (1 Bft)
11.01.2021 03:49 23,4 °C -3,4 °C 45 % 91 % 1021,7 hPa 0,0 l/m² 3,3 km/h (1 Bft) O-NO 66 ° 0 min 0 W/m² -4,7 °C -3,4 °C 4,8 km/h (1 Bft)
11.01.2021 03:50 23,4 °C -3,4 °C 45 % 91 % 1021,6 hPa 0,0 l/m² 1,6 km/h (1 Bft) O-NO 66 ° 0 min 0 W/m² -4,7 °C -3,4 °C 3,2 km/h (1 Bft)
11.01.2021 03:52 23,5 °C -3,4 °C 45 % 91 % 1021,6 hPa 0,0 l/m² 0,2 km/h (0 Bft) O-NO 66 ° 0 min 0 W/m² -4,7 °C -3,4 °C 1,6 km/h (1 Bft)
11.01.2021 03:53 23,5 °C -3,4 °C 45 % 91 % 1021,6 hPa 0,0 l/m² 0,1 km/h (0 Bft) O-NO 66 ° 0 min 0 W/m² -4,7 °C -3,4 °C 1,6 km/h (1 Bft)
11.01.2021 03:55 23,5 °C -3,4 °C 45 % 91 % 1021,6 hPa 0,0 l/m² 0,1 km/h (0 Bft) O-NO 66 ° 0 min 0 W/m² -4,7 °C -3,4 °C 1,6 km/h (1 Bft)
11.01.2021 03:56 23,5 °C -3,4 °C 45 % 91 % 1021,5 hPa 0,0 l/m² 2,3 km/h (1 Bft) O-NO 66 ° 0 min 0 W/m² -4,7 °C -3,4 °C 3,2 km/h (1 Bft)
11.01.2021 03:58 23,5 °C -3,4 °C 45 % 91 % 1021,5 hPa 0,0 l/m² 1,7 km/h (1 Bft) O-NO 66 ° 0 min 0 W/m² -4,7 °C -3,4 °C 3,2 km/h (1 Bft)
11.01.2021 03:59 23,5 °C -3,3 °C 45 % 91 % 1021,5 hPa 0,0 l/m² 0,9 km/h (0 Bft) O-NO 66 ° 0 min 0 W/m² -4,6 °C -3,3 °C 1,6 km/h (1 Bft)
11.01.2021 04:01 23,5 °C -3,3 °C 45 % 91 % 1021,5 hPa 0,0 l/m² 0,5 km/h (0 Bft) O-NO 66 ° 0 min 0 W/m² -4,6 °C -3,3 °C 1,6 km/h (1 Bft)
11.01.2021 04:02 23,5 °C -3,3 °C 45 % 91 % 1021,5 hPa 0,0 l/m² 1,4 km/h (1 Bft) O-NO 63 ° 0 min 0 W/m² -4,6 °C -3,3 °C 3,2 km/h (1 Bft)
11.01.2021 04:04 23,5 °C -3,2 °C 45 % 91 % 1021,5 hPa 0,0 l/m² 0,9 km/h (0 Bft) O-NO 61 ° 0 min 0 W/m² -4,5 °C -3,2 °C 3,2 km/h (1 Bft)
11.01.2021 04:06 23,5 °C -3,2 °C 45 % 91 % 1021,4 hPa 0,0 l/m² 1,1 km/h (1 Bft) O 80 ° 0 min 0 W/m² -4,5 °C -3,2 °C 3,2 km/h (1 Bft)
11.01.2021 04:08 23,5 °C -3,2 °C 45 % 91 % 1021,5 hPa 0,0 l/m² 0,3 km/h (0 Bft) O 80 ° 0 min 0 W/m² -4,5 °C -3,2 °C 1,6 km/h (1 Bft)
11.01.2021 04:10 23,4 °C -3,1 °C 45 % 91 % 1021,5 hPa 0,0 l/m² 0,6 km/h (0 Bft) O 80 ° 0 min 0 W/m² -4,4 °C -3,1 °C 1,6 km/h (1 Bft)
11.01.2021 04:11 23,5 °C -3,1 °C 45 % 91 % 1021,4 hPa 0,0 l/m² 1,7 km/h (1 Bft) SO 144 ° 0 min 0 W/m² -4,4 °C -3,1 °C 4,8 km/h (1 Bft)
11.01.2021 04:13 23,5 °C -3,0 °C 45 % 91 % 1021,5 hPa 0,0 l/m² 6,8 km/h (2 Bft) S-SW 208 ° 0 min 0 W/m² -4,3 °C -3,4 °C 11,3 km/h (2 Bft)
11.01.2021 04:14 23,5 °C -2,9 °C 45 % 91 % 1021,4 hPa 0,0 l/m² 8,0 km/h (2 Bft) S 190 ° 0 min 0 W/m² -4,2 °C -4,7 °C 11,3 km/h (2 Bft)
11.01.2021 04:16 23,5 °C -2,9 °C 45 % 91 % 1021,5 hPa 0,0 l/m² 5,8 km/h (2 Bft) S 187 ° 0 min 0 W/m² -4,2 °C -2,9 °C 11,3 km/h (2 Bft)
11.01.2021 04:18 23,5 °C -2,7 °C 45 % 91 % 1021,5 hPa 0,0 l/m² 6,9 km/h (2 Bft) W-SW 240 ° 0 min 0 W/m² -4,0 °C -3,3 °C 12,9 km/h (3 Bft)
11.01.2021 04:20 23,5 °C -2,6 °C 45 % 91 % 1021,4 hPa 0,0 l/m² 4,4 km/h (1 Bft) S-SW 196 ° 0 min 0 W/m² -3,9 °C -2,6 °C 11,3 km/h (2 Bft)
11.01.2021 04:21 23,5 °C -2,6 °C 45 % 91 % 1021,5 hPa 0,0 l/m² 4,6 km/h (1 Bft) S 176 ° 0 min 0 W/m² -3,9 °C -2,6 °C 9,7 km/h (2 Bft)
11.01.2021 04:23 23,5 °C -2,4 °C 45 % 91 % 1021,4 hPa 0,0 l/m² 2,9 km/h (1 Bft) S 175 ° 0 min 0 W/m² -3,7 °C -2,4 °C 9,7 km/h (2 Bft)
11.01.2021 04:24 23,5 °C -2,4 °C 45 % 91 % 1021,4 hPa 0,0 l/m² 5,3 km/h (1 Bft) S-SW 205 ° 0 min 0 W/m² -3,7 °C -2,4 °C 6,4 km/h (2 Bft)
11.01.2021 04:26 23,5 °C -2,3 °C 45 % 91 % 1021,4 hPa 0,0 l/m² 2,9 km/h (1 Bft) S-SW 204 ° 0 min 0 W/m² -3,6 °C -2,3 °C 6,4 km/h (2 Bft)
11.01.2021 04:28 23,6 °C -2,3 °C 45 % 91 % 1021,5 hPa 0,0 l/m² 5,3 km/h (1 Bft) S-SW 197 ° 0 min 0 W/m² -3,6 °C -2,3 °C 9,7 km/h (2 Bft)
11.01.2021 04:30 23,5 °C -2,2 °C 45 % 91 % 1021,4 hPa 0,0 l/m² 4,7 km/h (1 Bft) W-SW 244 ° 0 min 0 W/m² -3,5 °C -2,2 °C 8,0 km/h (2 Bft)
11.01.2021 04:31 23,6 °C -2,2 °C 45 % 91 % 1021,4 hPa 0,0 l/m² 3,9 km/h (1 Bft) W-SW 241 ° 0 min 0 W/m² -3,5 °C -2,2 °C 4,8 km/h (1 Bft)
11.01.2021 04:33 23,6 °C -2,1 °C 45 % 91 % 1021,4 hPa 0,0 l/m² 4,4 km/h (1 Bft) SW 217 ° 0 min 0 W/m² -3,4 °C -2,1 °C 6,4 km/h (2 Bft)
11.01.2021 04:34 23,6 °C -2,1 °C 45 % 91 % 1021,4 hPa 0,0 l/m² 5,1 km/h (1 Bft) S 180 ° 0 min 0 W/m² -3,4 °C -2,1 °C 8,0 km/h (2 Bft)
11.01.2021 04:35 23,6 °C -2,0 °C 45 % 91 % 1021,4 hPa 0,0 l/m² 7,1 km/h (2 Bft) S-SW 194 ° 0 min 0 W/m² -3,3 °C -2,8 °C 9,7 km/h (2 Bft)
11.01.2021 04:36 23,5 °C -2,0 °C 45 % 91 % 1021,3 hPa 0,0 l/m² 7,0 km/h (2 Bft) S-SW 192 ° 0 min 0 W/m² -3,3 °C -2,7 °C 9,7 km/h (2 Bft)
11.01.2021 04:38 23,6 °C -1,9 °C 45 % 91 % 1021,3 hPa 0,0 l/m² 7,9 km/h (2 Bft) S 169 ° 0 min 0 W/m² -3,2 °C -3,5 °C 11,3 km/h (2 Bft)
11.01.2021 04:39 23,6 °C -1,8 °C 45 % 91 % 1021,3 hPa 0,0 l/m² 5,7 km/h (2 Bft) SW 221 ° 0 min 0 W/m² -3,1 °C -1,8 °C 8,0 km/h (2 Bft)
11.01.2021 04:41 23,6 °C -1,8 °C 45 % 91 % 1021,3 hPa 0,0 l/m² 6,1 km/h (2 Bft) S-SW 203 ° 0 min 0 W/m² -3,1 °C -1,8 °C 9,7 km/h (2 Bft)
11.01.2021 04:42 23,6 °C -1,7 °C 45 % 91 % 1021,3 hPa 0,0 l/m² 12,0 km/h (2 Bft) S-SW 201 ° 0 min 0 W/m² -3,0 °C -7,0 °C 14,5 km/h (3 Bft)
11.01.2021 04:44 23,6 °C -1,7 °C 45 % 90 % 1021,3 hPa 0,0 l/m² 6,8 km/h (2 Bft) S-SO 165 ° 0 min 0 W/m² -3,1 °C -2,1 °C 12,9 km/h (3 Bft)
11.01.2021 04:46 23,6 °C -1,6 °C 45 % 90 % 1021,3 hPa 0,0 l/m² 6,5 km/h (2 Bft) S-SW 200 ° 0 min 0 W/m² -3,0 °C -1,7 °C 14,5 km/h (3 Bft)
11.01.2021 04:48 23,6 °C -1,6 °C 45 % 90 % 1021,3 hPa 0,0 l/m² 7,2 km/h (2 Bft) SW 215 ° 0 min 0 W/m² -3,0 °C -2,5 °C 11,3 km/h (2 Bft)
11.01.2021 04:50 23,6 °C -1,4 °C 45 % 90 % 1021,2 hPa 0,0 l/m² 9,0 km/h (2 Bft) S-SW 205 ° 0 min 0 W/m² -2,8 °C -4,1 °C 12,9 km/h (3 Bft)
11.01.2021 04:51 23,6 °C -1,4 °C 45 % 89 % 1021,2 hPa 0,0 l/m² 8,9 km/h (2 Bft) S-SW 205 ° 0 min 0 W/m² -3,0 °C -4,0 °C 12,9 km/h (3 Bft)
11.01.2021 04:53 23,6 °C -1,4 °C 45 % 89 % 1021,2 hPa 0,0 l/m² 6,4 km/h (2 Bft) S-SW 196 ° 0 min 0 W/m² -3,0 °C -1,4 °C 9,7 km/h (2 Bft)
11.01.2021 04:54 23,6 °C -1,3 °C 45 % 89 % 1021,2 hPa 0,0 l/m² 8,4 km/h (2 Bft) S-SW 209 ° 0 min 0 W/m² -2,9 °C -3,4 °C 12,9 km/h (3 Bft)
11.01.2021 04:55 23,6 °C -1,3 °C 45 % 89 % 1021,2 hPa 0,0 l/m² 7,2 km/h (2 Bft) S-SW 205 ° 0 min 0 W/m² -2,9 °C -2,2 °C 11,3 km/h (2 Bft)
11.01.2021 04:56 23,6 °C -1,3 °C 45 % 89 % 1021,2 hPa 0,0 l/m² 8,6 km/h (2 Bft) S 182 ° 0 min 0 W/m² -2,9 °C -3,6 °C 12,9 km/h (3 Bft)
11.01.2021 04:58 23,6 °C -1,2 °C 45 % 89 % 1021,2 hPa 0,0 l/m² 7,3 km/h (2 Bft) S-SW 213 ° 0 min 0 W/m² -2,8 °C -2,2 °C 9,7 km/h (2 Bft)
11.01.2021 04:59 23,6 °C -1,2 °C 45 % 89 % 1021,2 hPa 0,0 l/m² 6,5 km/h (2 Bft) S-SW 212 ° 0 min 0 W/m² -2,8 °C -1,3 °C 9,7 km/h (2 Bft)
11.01.2021 05:00 23,6 °C -1,2 °C 45 % 88 % 1021,2 hPa 0,0 l/m² 10,5 km/h (2 Bft) W-SW 238 ° 0 min 0 W/m² -2,9 °C -5,2 °C 14,5 km/h (3 Bft)
11.01.2021 05:02 23,6 °C -1,2 °C 45 % 89 % 1021,3 hPa 0,0 l/m² 7,2 km/h (2 Bft) SW 220 ° 0 min 0 W/m² -2,8 °C -2,1 °C 11,3 km/h (2 Bft)
11.01.2021 05:03 23,6 °C -1,1 °C 45 % 88 % 1021,3 hPa 0,0 l/m² 6,9 km/h (2 Bft) SW 229 ° 0 min 0 W/m² -2,8 °C -1,6 °C 9,7 km/h (2 Bft)
11.01.2021 05:04 23,6 °C -1,1 °C 45 % 88 % 1021,2 hPa 0,0 l/m² 7,0 km/h (2 Bft) S-SW 211 ° 0 min 0 W/m² -2,8 °C -1,7 °C 9,7 km/h (2 Bft)
11.01.2021 05:05 23,6 °C -1,1 °C 44 % 88 % 1021,1 hPa 0,0 l/m² 8,2 km/h (2 Bft) SW 217 ° 0 min 0 W/m² -2,8 °C -3,0 °C 11,3 km/h (2 Bft)
11.01.2021 05:06 23,5 °C -1,0 °C 45 % 88 % 1021,2 hPa 0,0 l/m² 8,2 km/h (2 Bft) S-SW 213 ° 0 min 0 W/m² -2,7 °C -2,9 °C 9,7 km/h (2 Bft)
11.01.2021 05:08 23,6 °C -1,0 °C 44 % 88 % 1021,1 hPa 0,0 l/m² 6,3 km/h (2 Bft) SW 222 ° 0 min 0 W/m² -2,7 °C -1,0 °C 9,7 km/h (2 Bft)
11.01.2021 05:10 23,6 °C -0,9 °C 45 % 88 % 1021,2 hPa 0,0 l/m² 6,9 km/h (2 Bft) SW 220 ° 0 min 0 W/m² -2,6 °C -1,4 °C 11,3 km/h (2 Bft)
11.01.2021 05:11 23,6 °C -0,9 °C 44 % 88 % 1021,1 hPa 0,0 l/m² 7,3 km/h (2 Bft) S-SW 196 ° 0 min 0 W/m² -2,6 °C -1,9 °C 11,3 km/h (2 Bft)
11.01.2021 05:13 23,6 °C -0,9 °C 44 % 87 % 1021,2 hPa 0,0 l/m² 10,0 km/h (2 Bft) SW 227 ° 0 min 0 W/m² -2,8 °C -4,4 °C 14,5 km/h (3 Bft)
11.01.2021 05:14 23,6 °C -0,8 °C 45 % 87 % 1021,1 hPa 0,0 l/m² 11,1 km/h (2 Bft) SW 220 ° 0 min 0 W/m² -2,7 °C -5,2 °C 14,5 km/h (3 Bft)
11.01.2021 05:15 23,6 °C -0,8 °C 44 % 88 % 1021,1 hPa 0,0 l/m² 8,1 km/h (2 Bft) S-SW 202 ° 0 min 0 W/m² -2,5 °C -2,6 °C 9,7 km/h (2 Bft)
11.01.2021 05:16 23,6 °C -0,8 °C 44 % 87 % 1021,1 hPa 0,0 l/m² 7,5 km/h (2 Bft) SW 216 ° 0 min 0 W/m² -2,7 °C -2,0 °C 11,3 km/h (2 Bft)
11.01.2021 05:18 23,6 °C -0,8 °C 44 % 87 % 1021,1 hPa 0,0 l/m² 9,4 km/h (2 Bft) SW 217 ° 0 min 0 W/m² -2,7 °C -3,8 °C 14,5 km/h (3 Bft)
11.01.2021 05:19 23,6 °C -0,8 °C 44 % 87 % 1021,1 hPa 0,0 l/m² 10,5 km/h (2 Bft) SW 218 ° 0 min 0 W/m² -2,7 °C -4,8 °C 12,9 km/h (3 Bft)
11.01.2021 05:21 23,5 °C -0,7 °C 45 % 87 % 1021,1 hPa 0,0 l/m² 9,6 km/h (2 Bft) SW 215 ° 0 min 0 W/m² -2,6 °C -3,9 °C 12,9 km/h (3 Bft)
11.01.2021 05:22 23,5 °C -0,7 °C 44 % 87 % 1021,1 hPa 0,0 l/m² 10,7 km/h (2 Bft) S-SW 203 ° 0 min 0 W/m² -2,6 °C -4,8 °C 14,5 km/h (3 Bft)
11.01.2021 05:23 23,6 °C -0,7 °C 44 % 86 % 1021,1 hPa 0,0 l/m² 9,1 km/h (2 Bft) S 185 ° 0 min 0 W/m² -2,7 °C -3,4 °C 14,5 km/h (3 Bft)
11.01.2021 05:25 23,5 °C -0,7 °C 44 % 86 % 1021,1 hPa 0,0 l/m² 7,9 km/h (2 Bft) S-SW 207 ° 0 min 0 W/m² -2,7 °C -2,3 °C 11,3 km/h (2 Bft)
11.01.2021 05:27 23,6 °C -0,6 °C 44 % 86 % 1021,0 hPa 0,0 l/m² 8,9 km/h (2 Bft) S-SW 193 ° 0 min 0 W/m² -2,6 °C -3,1 °C 11,3 km/h (2 Bft)
11.01.2021 05:28 23,5 °C -0,6 °C 44 % 86 % 1021,0 hPa 0,0 l/m² 5,7 km/h (2 Bft) S-SW 209 ° 0 min 0 W/m² -2,6 °C -0,6 °C 9,7 km/h (2 Bft)
11.01.2021 05:30 23,5 °C -0,6 °C 44 % 86 % 1021,0 hPa 0,0 l/m² 7,9 km/h (2 Bft) S-SW 200 ° 0 min 0 W/m² -2,6 °C -2,2 °C 12,9 km/h (3 Bft)
11.01.2021 05:31 23,5 °C -0,6 °C 44 % 86 % 1021,0 hPa 0,0 l/m² 7,3 km/h (2 Bft) S-SW 198 ° 0 min 0 W/m² -2,6 °C -1,6 °C 11,3 km/h (2 Bft)
11.01.2021 05:33 23,5 °C -0,6 °C 44 % 85 % 1021,0 hPa 0,0 l/m² 5,2 km/h (1 Bft) S-SW 203 ° 0 min 0 W/m² -2,8 °C -0,6 °C 9,7 km/h (2 Bft)
11.01.2021 05:34 23,5 °C -0,6 °C 44 % 85 % 1021,0 hPa 0,0 l/m² 9,7 km/h (2 Bft) S-SW 195 ° 0 min 0 W/m² -2,8 °C -3,9 °C 12,9 km/h (3 Bft)
11.01.2021 05:35 23,5 °C -0,5 °C 44 % 85 % 1020,9 hPa 0,0 l/m² 6,0 km/h (2 Bft) S-SW 196 ° 0 min 0 W/m² -2,7 °C -0,5 °C 8,0 km/h (2 Bft)
11.01.2021 05:37 23,5 °C -0,5 °C 44 % 85 % 1021,0 hPa 0,0 l/m² 6,8 km/h (2 Bft) S-SW 207 ° 0 min 0 W/m² -2,7 °C -0,9 °C 11,3 km/h (2 Bft)
11.01.2021 05:38 23,5 °C -0,5 °C 44 % 85 % 1021,0 hPa 0,0 l/m² 6,6 km/h (2 Bft) SW 215 ° 0 min 0 W/m² -2,7 °C -0,7 °C 8,0 km/h (2 Bft)
11.01.2021 05:40 23,5 °C -0,5 °C 44 % 85 % 1020,9 hPa 0,0 l/m² 9,4 km/h (2 Bft) SW 214 ° 0 min 0 W/m² -2,7 °C -3,5 °C 14,5 km/h (3 Bft)
11.01.2021 05:41 23,5 °C -0,4 °C 44 % 85 % 1020,9 hPa 0,0 l/m² 10,3 km/h (2 Bft) S-SW 199 ° 0 min 0 W/m² -2,6 °C -4,1 °C 12,9 km/h (3 Bft)
11.01.2021 05:43 23,5 °C -0,5 °C 44 % 84 % 1021,0 hPa 0,0 l/m² 8,7 km/h (2 Bft) SW 214 ° 0 min 0 W/m² -2,9 °C -2,8 °C 12,9 km/h (3 Bft)
11.01.2021 05:44 23,5 °C -0,4 °C 44 % 84 % 1021,0 hPa 0,0 l/m² 10,5 km/h (2 Bft) S-SW 211 ° 0 min 0 W/m² -2,8 °C -4,3 °C 12,9 km/h (3 Bft)
11.01.2021 05:46 23,5 °C -0,4 °C 44 % 84 % 1021,0 hPa 0,0 l/m² 6,5 km/h (2 Bft) SW 218 ° 0 min 0 W/m² -2,8 °C -0,5 °C 11,3 km/h (2 Bft)
11.01.2021 05:48 23,5 °C -0,4 °C 44 % 84 % 1021,0 hPa 0,0 l/m² 7,3 km/h (2 Bft) SW 236 ° 0 min 0 W/m² -2,8 °C -1,3 °C 9,7 km/h (2 Bft)
11.01.2021 05:50 23,5 °C -0,4 °C 44 % 84 % 1020,9 hPa 0,0 l/m² 8,4 km/h (2 Bft) SW 221 ° 0 min 0 W/m² -2,8 °C -2,5 °C 12,9 km/h (3 Bft)
11.01.2021 05:51 23,5 °C -0,4 °C 44 % 84 % 1021,0 hPa 0,0 l/m² 4,9 km/h (1 Bft) W-SW 244 ° 0 min 0 W/m² -2,8 °C -0,4 °C 8,0 km/h (2 Bft)
11.01.2021 05:53 23,5 °C -0,4 °C 44 % 83 % 1020,9 hPa 0,0 l/m² 4,6 km/h (1 Bft) W-SW 254 ° 0 min 0 W/m² -2,9 °C -0,4 °C 8,0 km/h (2 Bft)
11.01.2021 05:54 23,5 °C -0,4 °C 44 % 83 % 1020,9 hPa 0,0 l/m² 5,9 km/h (2 Bft) SW 224 ° 0 min 0 W/m² -2,9 °C -0,4 °C 12,9 km/h (3 Bft)
11.01.2021 05:55 23,4 °C -0,3 °C 44 % 83 % 1020,9 hPa 0,0 l/m² 8,6 km/h (2 Bft) SW 226 ° 0 min 0 W/m² -2,8 °C -2,5 °C 14,5 km/h (3 Bft)
11.01.2021 05:56 23,5 °C -0,3 °C 44 % 83 % 1020,9 hPa 0,0 l/m² 3,8 km/h (1 Bft) W-SW 246 ° 0 min 0 W/m² -2,8 °C -0,3 °C 6,4 km/h (2 Bft)
11.01.2021 05:58 23,5 °C -0,3 °C 44 % 83 % 1021,0 hPa 0,0 l/m² 4,4 km/h (1 Bft) SW 236 ° 0 min 0 W/m² -2,8 °C -0,3 °C 8,0 km/h (2 Bft)
11.01.2021 05:59 23,4 °C -0,3 °C 44 % 83 % 1021,0 hPa 0,0 l/m² 4,7 km/h (1 Bft) W 259 ° 0 min 0 W/m² -2,8 °C -0,3 °C 6,4 km/h (2 Bft)
11.01.2021 06:01 23,4 °C -0,3 °C 44 % 83 % 1020,9 hPa 0,0 l/m² 3,3 km/h (1 Bft) SW 229 ° 0 min 0 W/m² -2,8 °C -0,3 °C 8,0 km/h (2 Bft)
11.01.2021 06:02 23,5 °C -0,3 °C 44 % 83 % 1021,0 hPa 0,0 l/m² 1,7 km/h (1 Bft) SW 215 ° 0 min 0 W/m² -2,8 °C -0,3 °C 4,8 km/h (1 Bft)
11.01.2021 06:03 23,4 °C -0,3 °C 44 % 83 % 1021,0 hPa 0,0 l/m² 2,5 km/h (1 Bft) SW 220 ° 0 min 0 W/m² -2,8 °C -0,3 °C 6,4 km/h (2 Bft)
11.01.2021 06:05 23,5 °C -0,3 °C 44 % 83 % 1020,9 hPa 0,0 l/m² 5,1 km/h (1 Bft) SW 234 ° 0 min 0 W/m² -2,8 °C -0,3 °C 8,0 km/h (2 Bft)
11.01.2021 06:06 23,4 °C -0,3 °C 44 % 83 % 1020,9 hPa 0,0 l/m² 7,2 km/h (2 Bft) W-SW 251 ° 0 min 0 W/m² -2,8 °C -1,1 °C 12,9 km/h (3 Bft)
11.01.2021 06:08 23,4 °C -0,3 °C 44 % 82 % 1020,9 hPa 0,0 l/m² 7,9 km/h (2 Bft) SW 234 ° 0 min 0 W/m² -3,0 °C -1,9 °C 12,9 km/h (3 Bft)
11.01.2021 06:09 23,5 °C -0,3 °C 44 % 82 % 1020,9 hPa 0,0 l/m² 7,2 km/h (2 Bft) SW 220 ° 0 min 0 W/m² -3,0 °C -1,1 °C 8,0 km/h (2 Bft)
11.01.2021 06:10 23,5 °C -0,3 °C 44 % 82 % 1020,9 hPa 0,0 l/m² 5,9 km/h (2 Bft) W-SW 242 ° 0 min 0 W/m² -3,0 °C -0,3 °C 8,0 km/h (2 Bft)
11.01.2021 06:12 23,4 °C -0,3 °C 44 % 82 % 1020,9 hPa 0,0 l/m² 4,7 km/h (1 Bft) W-SW 243 ° 0 min 0 W/m² -3,0 °C -0,3 °C 6,4 km/h (2 Bft)
11.01.2021 06:13 23,4 °C -0,3 °C 44 % 82 % 1020,9 hPa 0,0 l/m² 3,6 km/h (1 Bft) SW 234 ° 0 min 0 W/m² -3,0 °C -0,3 °C 6,4 km/h (2 Bft)
11.01.2021 06:15 23,5 °C -0,3 °C 44 % 82 % 1020,9 hPa 0,0 l/m² 2,5 km/h (1 Bft) SW 234 ° 0 min 0 W/m² -3,0 °C -0,3 °C 4,8 km/h (1 Bft)
11.01.2021 06:16 23,4 °C -0,3 °C 44 % 82 % 1020,9 hPa 0,0 l/m² 3,6 km/h (1 Bft) W 259 ° 0 min 0 W/m² -3,0 °C -0,3 °C 6,4 km/h (2 Bft)
11.01.2021 06:18 23,4 °C -0,3 °C 44 % 82 % 1020,8 hPa 0,0 l/m² 3,3 km/h (1 Bft) W-SW 242 ° 0 min 0 W/m² -3,0 °C -0,3 °C 6,4 km/h (2 Bft)
11.01.2021 06:19 23,4 °C -0,2 °C 44 % 82 % 1020,8 hPa 0,0 l/m² 4,7 km/h (1 Bft) W-SW 246 ° 0 min 0 W/m² -2,9 °C -0,2 °C 6,4 km/h (2 Bft)
11.01.2021 06:21 23,4 °C -0,2 °C 44 % 82 % 1020,8 hPa 0,0 l/m² 3,9 km/h (1 Bft) SW 229 ° 0 min 0 W/m² -2,9 °C -0,2 °C 6,4 km/h (2 Bft)
11.01.2021 06:22 23,5 °C -0,2 °C 44 % 82 % 1020,8 hPa 0,0 l/m² 3,3 km/h (1 Bft) SW 229 ° 0 min 0 W/m² -2,9 °C -0,2 °C 4,8 km/h (1 Bft)
11.01.2021 06:23 23,4 °C -0,2 °C 44 % 82 % 1020,8 hPa 0,0 l/m² 3,8 km/h (1 Bft) S-SW 205 ° 0 min 0 W/m² -2,9 °C -0,2 °C 6,4 km/h (2 Bft)
11.01.2021 06:24 23,4 °C -0,3 °C 44 % 82 % 1020,8 hPa 0,0 l/m² 6,6 km/h (2 Bft) S-SW 205 ° 0 min 0 W/m² -3,0 °C -0,5 °C 9,7 km/h (2 Bft)
11.01.2021 06:26 23,4 °C -0,2 °C 44 % 82 % 1020,8 hPa 0,0 l/m² 8,3 km/h (2 Bft) W 259 ° 0 min 0 W/m² -2,9 °C -2,1 °C 12,9 km/h (3 Bft)
11.01.2021 06:28 23,4 °C -0,2 °C 44 % 82 % 1020,8 hPa 0,0 l/m² 7,1 km/h (2 Bft) SW 236 ° 0 min 0 W/m² -2,9 °C -0,9 °C 11,3 km/h (2 Bft)
11.01.2021 06:30 23,4 °C -0,3 °C 44 % 82 % 1020,8 hPa 0,0 l/m² 5,2 km/h (1 Bft) S-SW 207 ° 0 min 0 W/m² -3,0 °C -0,3 °C 8,0 km/h (2 Bft)
11.01.2021 06:31 23,4 °C -0,2 °C 44 % 82 % 1020,8 hPa 0,0 l/m² 4,7 km/h (1 Bft) W-SW 244 ° 0 min 0 W/m² -2,9 °C -0,2 °C 6,4 km/h (2 Bft)
11.01.2021 06:33 23,4 °C -0,3 °C 44 % 82 % 1020,8 hPa 0,0 l/m² 7,0 km/h (2 Bft) SW 231 ° 0 min 0 W/m² -3,0 °C -0,9 °C 12,9 km/h (3 Bft)
11.01.2021 06:34 23,4 °C -0,3 °C 44 % 82 % 1020,8 hPa 0,0 l/m² 6,9 km/h (2 Bft) SW 219 ° 0 min 0 W/m² -3,0 °C -0,8 °C 9,7 km/h (2 Bft)
11.01.2021 06:35 23,4 °C -0,3 °C 44 % 82 % 1020,8 hPa 0,0 l/m² 4,5 km/h (1 Bft) SW 222 ° 0 min 0 W/m² -3,0 °C -0,3 °C 8,0 km/h (2 Bft)
11.01.2021 06:36 23,4 °C -0,2 °C 44 % 82 % 1020,8 hPa 0,0 l/m² 5,4 km/h (2 Bft) SW 221 ° 0 min 0 W/m² -2,9 °C -0,2 °C 6,4 km/h (2 Bft)
11.01.2021 06:38 23,4 °C -0,3 °C 44 % 82 % 1020,8 hPa 0,0 l/m² 3,1 km/h (1 Bft) W-SW 241 ° 0 min 0 W/m² -3,0 °C -0,3 °C 4,8 km/h (1 Bft)
11.01.2021 06:40 23,4 °C -0,2 °C 45 % 82 % 1020,9 hPa 0,0 l/m² 5,0 km/h (1 Bft) SW 227 ° 0 min 0 W/m² -2,9 °C -0,2 °C 8,0 km/h (2 Bft)
11.01.2021 06:41 23,4 °C -0,2 °C 45 % 82 % 1020,9 hPa 0,0 l/m² 4,8 km/h (1 Bft) SW 231 ° 0 min 0 W/m² -2,9 °C -0,2 °C 8,0 km/h (2 Bft)
11.01.2021 06:43 23,4 °C -0,2 °C 45 % 82 % 1020,8 hPa 0,0 l/m² 3,4 km/h (1 Bft) SW 230 ° 0 min 0 W/m² -2,9 °C -0,2 °C 6,4 km/h (2 Bft)
11.01.2021 06:44 23,4 °C -0,2 °C 45 % 82 % 1020,8 hPa 0,0 l/m² 2,1 km/h (1 Bft) SW 230 ° 0 min 0 W/m² -2,9 °C -0,2 °C 4,8 km/h (1 Bft)
11.01.2021 06:46 23,5 °C -0,2 °C 45 % 82 % 1020,7 hPa 0,0 l/m² 2,4 km/h (1 Bft) W-SW 240 ° 0 min 0 W/m² -2,9 °C -0,2 °C 6,4 km/h (2 Bft)
11.01.2021 06:48 23,4 °C -0,2 °C 45 % 82 % 1020,8 hPa 0,0 l/m² 1,9 km/h (1 Bft) W-SW 240 ° 0 min 0 W/m² -2,9 °C -0,2 °C 3,2 km/h (1 Bft)
11.01.2021 06:50 23,4 °C -0,2 °C 45 % 82 % 1020,8 hPa 0,0 l/m² 3,5 km/h (1 Bft) W-SW 246 ° 0 min 0 W/m² -2,9 °C -0,2 °C 4,8 km/h (1 Bft)
11.01.2021 06:51 23,4 °C -0,2 °C 45 % 82 % 1020,8 hPa 0,0 l/m² 3,7 km/h (1 Bft) W-SW 246 ° 0 min 0 W/m² -2,9 °C -0,2 °C 4,8 km/h (1 Bft)
11.01.2021 06:53 23,4 °C -0,2 °C 45 % 82 % 1020,8 hPa 0,0 l/m² 3,7 km/h (1 Bft) SW 228 ° 0 min 0 W/m² -2,9 °C -0,2 °C 6,4 km/h (2 Bft)
11.01.2021 06:55 23,5 °C -0,2 °C 45 % 82 % 1020,9 hPa 0,0 l/m² 2,1 km/h (1 Bft) SW 228 ° 0 min 0 W/m² -2,9 °C -0,2 °C 4,8 km/h (1 Bft)
11.01.2021 06:57 23,4 °C -0,2 °C 45 % 82 % 1020,9 hPa 0,0 l/m² 5,2 km/h (1 Bft) SW 216 ° 0 min 0 W/m² -2,9 °C -0,2 °C 8,0 km/h (2 Bft)
11.01.2021 06:59 23,4 °C -0,2 °C 45 % 82 % 1020,9 hPa 0,0 l/m² 6,1 km/h (2 Bft) S-SW 209 ° 0 min 0 W/m² -2,9 °C -0,2 °C 8,0 km/h (2 Bft)
11.01.2021 07:01 23,5 °C -0,2 °C 45 % 82 % 1020,8 hPa 0,0 l/m² 5,4 km/h (2 Bft) S-SW 200 ° 0 min 0 W/m² -2,9 °C -0,2 °C 8,0 km/h (2 Bft)
11.01.2021 07:02 23,5 °C -0,2 °C 45 % 82 % 1020,8 hPa 0,0 l/m² 5,1 km/h (1 Bft) SW 222 ° 0 min 0 W/m² -2,9 °C -0,2 °C 8,0 km/h (2 Bft)
11.01.2021 07:03 23,5 °C -0,2 °C 45 % 82 % 1020,8 hPa 0,0 l/m² 2,8 km/h (1 Bft) SW 222 ° 0 min 0 W/m² -2,9 °C -0,2 °C 4,8 km/h (1 Bft)
11.01.2021 07:05 23,5 °C -0,2 °C 45 % 82 % 1020,8 hPa 0,0 l/m² 6,1 km/h (2 Bft) S 182 ° 0 min 0 W/m² -2,9 °C -0,2 °C 9,7 km/h (2 Bft)
11.01.2021 07:07 23,5 °C -0,2 °C 45 % 82 % 1020,8 hPa 0,0 l/m² 7,1 km/h (2 Bft) S 180 ° 0 min 0 W/m² -2,9 °C -0,9 °C 9,7 km/h (2 Bft)
11.01.2021 07:09 23,5 °C -0,2 °C 45 % 82 % 1020,9 hPa 0,0 l/m² 8,0 km/h (2 Bft) S 189 ° 0 min 0 W/m² -2,9 °C -1,9 °C 12,9 km/h (3 Bft)
11.01.2021 07:10 23,5 °C -0,2 °C 45 % 82 % 1020,8 hPa 0,0 l/m² 7,9 km/h (2 Bft) S 189 ° 0 min 0 W/m² -2,9 °C -1,8 °C 11,3 km/h (2 Bft)
11.01.2021 07:12 23,5 °C -0,2 °C 45 % 82 % 1020,8 hPa 0,0 l/m² 8,2 km/h (2 Bft) S-SW 200 ° 0 min 0 W/m² -2,9 °C -2,1 °C 12,9 km/h (3 Bft)
11.01.2021 07:13 23,5 °C -0,2 °C 45 % 82 % 1020,8 hPa 0,0 l/m² 6,2 km/h (2 Bft) S-SW 205 ° 0 min 0 W/m² -2,9 °C -0,2 °C 8,0 km/h (2 Bft)
11.01.2021 07:15 23,5 °C -0,2 °C 45 % 82 % 1020,8 hPa 0,0 l/m² 9,9 km/h (2 Bft) S-SW 196 ° 0 min 0 W/m² -2,9 °C -3,6 °C 16,1 km/h (3 Bft)
11.01.2021 07:17 23,5 °C -0,2 °C 45 % 82 % 1020,9 hPa 0,0 l/m² 7,5 km/h (2 Bft) S-SW 209 ° 0 min 0 W/m² -2,9 °C -1,4 °C 9,7 km/h (2 Bft)
11.01.2021 07:18 23,5 °C -0,2 °C 45 % 82 % 1020,8 hPa 0,0 l/m² 6,0 km/h (2 Bft) SW 214 ° 0 min 0 W/m² -2,9 °C -0,2 °C 8,0 km/h (2 Bft)
11.01.2021 07:20 23,5 °C -0,2 °C 45 % 82 % 1020,9 hPa 0,0 l/m² 5,1 km/h (1 Bft) S-SW 198 ° 0 min 0 W/m² -2,9 °C -0,2 °C 9,7 km/h (2 Bft)
11.01.2021 07:21 23,4 °C -0,2 °C 45 % 82 % 1020,8 hPa 0,0 l/m² 3,2 km/h (1 Bft) S-SW 198 ° 0 min 0 W/m² -2,9 °C -0,2 °C 4,8 km/h (1 Bft)
11.01.2021 07:23 23,4 °C -0,2 °C 44 % 82 % 1020,9 hPa 0,0 l/m² 5,3 km/h (1 Bft) S-SW 200 ° 0 min 0 W/m² -2,9 °C -0,2 °C 8,0 km/h (2 Bft)
11.01.2021 07:24 23,4 °C -0,2 °C 44 % 82 % 1020,9 hPa 0,0 l/m² 3,6 km/h (1 Bft) S-SW 200 ° 0 min 0 W/m² -2,9 °C -0,2 °C 6,4 km/h (2 Bft)
11.01.2021 07:25 23,4 °C -0,2 °C 44 % 82 % 1020,9 hPa 0,0 l/m² 6,1 km/h (2 Bft) S-SW 204 ° 0 min 0 W/m² -2,9 °C -0,2 °C 9,7 km/h (2 Bft)
11.01.2021 07:27 23,4 °C -0,2 °C 44 % 82 % 1020,8 hPa 0,0 l/m² 4,2 km/h (1 Bft) W-SW 240 ° 0 min 0 W/m² -2,9 °C -0,2 °C 8,0 km/h (2 Bft)
11.01.2021 07:29 23,4 °C -0,2 °C 44 % 82 % 1020,8 hPa 0,0 l/m² 6,0 km/h (2 Bft) S-SW 211 ° 0 min 0 W/m² -2,9 °C -0,2 °C 11,3 km/h (2 Bft)
11.01.2021 07:30 23,4 °C -0,1 °C 44 % 82 % 1020,8 hPa 0,0 l/m² 6,8 km/h (2 Bft) S-SW 202 ° 0 min 0 W/m² -2,8 °C -0,5 °C 8,0 km/h (2 Bft)
11.01.2021 07:32 23,4 °C -0,1 °C 44 % 82 % 1020,7 hPa 0,0 l/m² 5,5 km/h (2 Bft) SW 235 ° 0 min 0 W/m² -2,8 °C -0,1 °C 9,7 km/h (2 Bft)
11.01.2021 07:33 23,4 °C -0,1 °C 44 % 82 % 1020,8 hPa 0,0 l/m² 5,3 km/h (1 Bft) W-SW 248 ° 0 min 0 W/m² -2,8 °C -0,1 °C 9,7 km/h (2 Bft)
11.01.2021 07:34 23,4 °C -0,2 °C 44 % 81 % 1020,7 hPa 0,0 l/m² 4,1 km/h (1 Bft) SW 224 ° 0 min 0 W/m² -3,1 °C -0,2 °C 4,8 km/h (1 Bft)
11.01.2021 07:36 23,4 °C -0,1 °C 44 % 81 % 1020,8 hPa 0,0 l/m² 6,8 km/h (2 Bft) S 190 ° 0 min 0 W/m² -3,0 °C -0,5 °C 9,7 km/h (2 Bft)
11.01.2021 07:38 23,4 °C -0,1 °C 44 % 81 % 1020,8 hPa 0,0 l/m² 9,0 km/h (2 Bft) SW 217 ° 0 min 0 W/m² -3,0 °C -2,7 °C 14,5 km/h (3 Bft)
11.01.2021 07:40 23,4 °C -0,1 °C 45 % 81 % 1020,7 hPa 0,0 l/m² 6,1 km/h (2 Bft) SW 231 ° 0 min 0 W/m² -3,0 °C -0,1 °C 14,5 km/h (3 Bft)
11.01.2021 07:41 23,4 °C -0,1 °C 45 % 81 % 1020,8 hPa 0,0 l/m² 4,9 km/h (1 Bft) S 177 ° 0 min 0 W/m² -3,0 °C -0,1 °C 6,4 km/h (2 Bft)
11.01.2021 07:43 23,4 °C -0,1 °C 45 % 81 % 1020,7 hPa 0,0 l/m² 1,8 km/h (1 Bft) S 177 ° 0 min 0 W/m² -3,0 °C -0,1 °C 6,4 km/h (2 Bft)
11.01.2021 07:44 23,4 °C -0,1 °C 45 % 81 % 1020,7 hPa 0,0 l/m² 1,3 km/h (1 Bft) S 177 ° 0 min 0 W/m² -3,0 °C -0,1 °C 1,6 km/h (1 Bft)
11.01.2021 07:46 23,4 °C -0,1 °C 45 % 81 % 1020,7 hPa 0,0 l/m² 1,9 km/h (1 Bft) S 177 ° 0 min 0 W/m² -3,0 °C -0,1 °C 4,8 km/h (1 Bft)
11.01.2021 07:48 23,4 °C -0,1 °C 45 % 81 % 1020,7 hPa 0,0 l/m² 4,5 km/h (1 Bft) S-SW 194 ° 0 min 0 W/m² -3,0 °C -0,1 °C 8,0 km/h (2 Bft)
11.01.2021 07:50 23,5 °C -0,1 °C 45 % 81 % 1020,6 hPa 0,0 l/m² 3,6 km/h (1 Bft) S-SW 195 ° 0 min 0 W/m² -3,0 °C -0,1 °C 6,4 km/h (2 Bft)
11.01.2021 07:51 23,4 °C -0,1 °C 45 % 80 % 1020,6 hPa 0,0 l/m² 3,3 km/h (1 Bft) S 173 ° 0 min 0 W/m² -3,1 °C -0,1 °C 4,8 km/h (1 Bft)
11.01.2021 07:53 23,4 °C -0,1 °C 45 % 81 % 1020,6 hPa 0,0 l/m² 1,5 km/h (1 Bft) S 173 ° 0 min 0 W/m² -3,0 °C -0,1 °C 3,2 km/h (1 Bft)
11.01.2021 07:54 23,4 °C -0,1 °C 45 % 81 % 1020,6 hPa 0,0 l/m² 1,9 km/h (1 Bft) S 179 ° 0 min 0 W/m² -3,0 °C -0,1 °C 3,2 km/h (1 Bft)
11.01.2021 07:55 23,5 °C -0,1 °C 45 % 80 % 1020,6 hPa 0,0 l/m² 1,2 km/h (1 Bft) W-SW 249 ° 0 min 0 W/m² -3,1 °C -0,1 °C 4,8 km/h (1 Bft)
11.01.2021 07:57 23,4 °C -0,1 °C 45 % 80 % 1020,6 hPa 0,0 l/m² 3,4 km/h (1 Bft) W-SW 250 ° 0 min 0 W/m² -3,1 °C -0,1 °C 4,8 km/h (1 Bft)
11.01.2021 07:58 23,5 °C -0,1 °C 45 % 80 % 1020,6 hPa 0,0 l/m² 1,3 km/h (1 Bft) W-SW 250 ° 0 min 0 W/m² -3,1 °C -0,1 °C 3,2 km/h (1 Bft)
11.01.2021 08:00 23,4 °C -0,1 °C 45 % 80 % 1020,6 hPa 0,0 l/m² 2,3 km/h (1 Bft) W 265 ° 0 min 0 W/m² -3,1 °C -0,1 °C 4,8 km/h (1 Bft)
11.01.2021 08:01 23,4 °C -0,1 °C 45 % 80 % 1020,6 hPa 0,0 l/m² 3,1 km/h (1 Bft) W-NW 290 ° 0 min 0 W/m² -3,1 °C -0,1 °C 4,8 km/h (1 Bft)
11.01.2021 08:03 23,5 °C -0,1 °C 45 % 80 % 1020,6 hPa 0,0 l/m² 5,3 km/h (1 Bft) NO 51 ° 0 min 0 W/m² -3,1 °C -0,1 °C 8,0 km/h (2 Bft)
11.01.2021 08:04 23,4 °C -0,1 °C 45 % 80 % 1020,6 hPa 0,0 l/m² 4,8 km/h (1 Bft) N-NO 21 ° 0 min 0 W/m² -3,1 °C -0,1 °C 6,4 km/h (2 Bft)
11.01.2021 08:05 23,4 °C -0,1 °C 45 % 80 % 1020,6 hPa 0,0 l/m² 3,7 km/h (1 Bft) N-NO 22 ° 0 min 0 W/m² -3,1 °C -0,1 °C 4,8 km/h (1 Bft)
11.01.2021 08:06 23,4 °C -0,1 °C 45 % 80 % 1020,6 hPa 0,0 l/m² 4,0 km/h (1 Bft) O-NO 60 ° 0 min 0 W/m² -3,1 °C -0,1 °C 4,8 km/h (1 Bft)
11.01.2021 08:08 23,4 °C -0,1 °C 45 % 80 % 1020,6 hPa 0,0 l/m² 4,9 km/h (1 Bft) O 94 ° 0 min 5 W/m² -3,1 °C -0,1 °C 6,4 km/h (2 Bft)
11.01.2021 08:10 23,4 °C -0,2 °C 45 % 80 % 1020,7 hPa 0,0 l/m² 3,9 km/h (1 Bft) O-NO 69 ° 0 min 5 W/m² -3,2 °C -0,2 °C 4,8 km/h (1 Bft)
11.01.2021 08:11 23,5 °C -0,2 °C 45 % 80 % 1020,7 hPa 0,0 l/m² 2,2 km/h (1 Bft) NO 51 ° 0 min 5 W/m² -3,2 °C -0,2 °C 3,2 km/h (1 Bft)
11.01.2021 08:13 23,5 °C -0,2 °C 45 % 80 % 1020,6 hPa 0,0 l/m² 3,8 km/h (1 Bft) N-NO 33 ° 0 min 7 W/m² -3,2 °C -0,2 °C 6,4 km/h (2 Bft)
11.01.2021 08:14 23,5 °C -0,2 °C 45 % 80 % 1020,7 hPa 0,0 l/m² 2,6 km/h (1 Bft) N-NO 33 ° 0 min 7 W/m² -3,2 °C -0,2 °C 4,8 km/h (1 Bft)
11.01.2021 08:15 23,5 °C -0,2 °C 45 % 80 % 1020,6 hPa 0,0 l/m² 2,4 km/h (1 Bft) NO 34 ° 0 min 7 W/m² -3,2 °C -0,2 °C 3,2 km/h (1 Bft)
11.01.2021 08:16 23,5 °C -0,2 °C 45 % 80 % 1020,5 hPa 0,0 l/m² 1,7 km/h (1 Bft) NO 34 ° 0 min 7 W/m² -3,2 °C -0,2 °C 3,2 km/h (1 Bft)
11.01.2021 08:18 23,5 °C -0,2 °C 45 % 80 % 1020,6 hPa 0,0 l/m² 1,8 km/h (1 Bft) N-NO 26 ° 0 min 9 W/m² -3,2 °C -0,2 °C 3,2 km/h (1 Bft)
11.01.2021 08:20 23,5 °C -0,3 °C 45 % 80 % 1020,6 hPa 0,0 l/m² 1,4 km/h (1 Bft) N-NO 26 ° 0 min 9 W/m² -3,3 °C -0,3 °C 4,8 km/h (1 Bft)
11.01.2021 08:21 23,5 °C -0,3 °C 45 % 80 % 1020,6 hPa 0,0 l/m² 1,3 km/h (1 Bft) N-NO 26 ° 0 min 9 W/m² -3,3 °C -0,3 °C 3,2 km/h (1 Bft)
11.01.2021 08:23 23,4 °C -0,3 °C 45 % 80 % 1020,7 hPa 0,0 l/m² 0,7 km/h (0 Bft) N-NO 26 ° 0 min 11 W/m² -3,3 °C -0,3 °C 3,2 km/h (1 Bft)
11.01.2021 08:24 23,5 °C -0,3 °C 45 % 80 % 1020,7 hPa 0,0 l/m² 3,2 km/h (1 Bft) N-NO 26 ° 0 min 11 W/m² -3,3 °C -0,3 °C 4,8 km/h (1 Bft)
11.01.2021 08:26 23,5 °C -0,3 °C 45 % 80 % 1020,8 hPa 0,0 l/m² 1,8 km/h (1 Bft) N-NO 26 ° 0 min 11 W/m² -3,3 °C -0,3 °C 4,8 km/h (1 Bft)
11.01.2021 08:28 23,5 °C -0,3 °C 45 % 80 % 1020,8 hPa 0,0 l/m² 2,3 km/h (1 Bft) N-NO 23 ° 0 min 12 W/m² -3,3 °C -0,3 °C 4,8 km/h (1 Bft)
11.01.2021 08:30 23,6 °C -0,4 °C 45 % 80 % 1020,7 hPa 0,0 l/m² 4,4 km/h (1 Bft) SW 234 ° 0 min 14 W/m² -3,4 °C -0,4 °C 8,0 km/h (2 Bft)
11.01.2021 08:31 23,5 °C -0,4 °C 45 % 80 % 1020,6 hPa 0,0 l/m² 0,2 km/h (0 Bft) SW 234 ° 0 min 14 W/m² -3,4 °C -0,4 °C 1,6 km/h (1 Bft)
11.01.2021 08:33 23,5 °C -0,4 °C 45 % 80 % 1020,6 hPa 0,0 l/m² 0,3 km/h (0 Bft) SW 234 ° 0 min 14 W/m² -3,4 °C -0,4 °C 1,6 km/h (1 Bft)
11.01.2021 08:34 23,6 °C -0,4 °C 45 % 80 % 1020,6 hPa 0,0 l/m² 0,2 km/h (0 Bft) SW 234 ° 0 min 16 W/m² -3,4 °C -0,4 °C 1,6 km/h (1 Bft)
11.01.2021 08:36 23,6 °C -0,5 °C 45 % 80 % 1020,6 hPa 0,0 l/m² 0,8 km/h (0 Bft) SW 234 ° 0 min 16 W/m² -3,5 °C -0,5 °C 3,2 km/h (1 Bft)
11.01.2021 08:38 23,5 °C -0,5 °C 45 % 80 % 1020,5 hPa 0,0 l/m² 0,5 km/h (0 Bft) SW 234 ° 0 min 18 W/m² -3,5 °C -0,5 °C 1,6 km/h (1 Bft)
11.01.2021 08:40 23,5 °C -0,5 °C 44 % 80 % 1020,6 hPa 0,0 l/m² 3,4 km/h (1 Bft) S-SW 197 ° 0 min 19 W/m² -3,5 °C -0,5 °C 8,0 km/h (2 Bft)
11.01.2021 08:41 23,5 °C -0,6 °C 44 % 79 % 1020,5 hPa 0,0 l/m² 1,8 km/h (1 Bft) SW 217 ° 0 min 19 W/m² -3,8 °C -0,6 °C 4,8 km/h (1 Bft)
11.01.2021 08:43 23,5 °C -0,6 °C 44 % 79 % 1020,6 hPa 0,0 l/m² 0,3 km/h (0 Bft) SW 217 ° 0 min 21 W/m² -3,8 °C -0,6 °C 1,6 km/h (1 Bft)
11.01.2021 08:44 23,5 °C -0,6 °C 44 % 80 % 1020,5 hPa 0,0 l/m² 1,2 km/h (1 Bft) SW 227 ° 0 min 23 W/m² -3,6 °C -0,6 °C 3,2 km/h (1 Bft)
11.01.2021 08:45 23,5 °C -0,6 °C 44 % 79 % 1020,6 hPa 0,0 l/m² 0,7 km/h (0 Bft) W-SW 248 ° 0 min 25 W/m² -3,8 °C -0,6 °C 3,2 km/h (1 Bft)
11.01.2021 08:47 23,5 °C -0,6 °C 44 % 79 % 1020,5 hPa 0,0 l/m² 0,5 km/h (0 Bft) W-SW 252 ° 0 min 26 W/m² -3,8 °C -0,6 °C 3,2 km/h (1 Bft)
11.01.2021 08:48 23,6 °C -0,6 °C 45 % 79 % 1020,5 hPa 0,0 l/m² 3,2 km/h (1 Bft) SW 231 ° 0 min 26 W/m² -3,8 °C -0,6 °C 4,8 km/h (1 Bft)
11.01.2021 08:50 23,6 °C -0,7 °C 45 % 79 % 1020,6 hPa 0,0 l/m² 1,4 km/h (1 Bft) SW 222 ° 0 min 30 W/m² -3,9 °C -0,7 °C 3,2 km/h (1 Bft)
11.01.2021 08:51 23,6 °C -0,7 °C 45 % 79 % 1020,6 hPa 0,0 l/m² 0,2 km/h (0 Bft) SW 222 ° 0 min 35 W/m² -3,9 °C -0,7 °C 1,6 km/h (1 Bft)
11.01.2021 08:53 23,6 °C -0,7 °C 45 % 80 % 1020,5 hPa 0,0 l/m² 0,4 km/h (0 Bft) SW 222 ° 0 min 37 W/m² -3,7 °C -0,7 °C 3,2 km/h (1 Bft)
11.01.2021 08:54 23,5 °C -0,7 °C 45 % 80 % 1020,6 hPa 0,0 l/m² 0,0 km/h (0 Bft) SW 222 ° 0 min 39 W/m² -3,7 °C -0,7 °C 0,0 km/h (0 Bft)
11.01.2021 08:56 23,6 °C -0,7 °C 45 % 80 % 1020,6 hPa 0,0 l/m² 2,9 km/h (1 Bft) W-SW 245 ° 0 min 42 W/m² -3,7 °C -0,7 °C 6,4 km/h (2 Bft)
11.01.2021 08:58 23,6 °C -0,7 °C 45 % 80 % 1020,6 hPa 0,0 l/m² 1,5 km/h (1 Bft) W-SW 256 ° 0 min 46 W/m² -3,7 °C -0,7 °C 4,8 km/h (1 Bft)
11.01.2021 09:00 23,6 °C -0,7 °C 45 % 80 % 1020,6 hPa 0,0 l/m² 2,8 km/h (1 Bft) S-SW 211 ° 0 min 49 W/m² -3,7 °C -0,7 °C 4,8 km/h (1 Bft)
11.01.2021 09:01 23,6 °C -0,7 °C 45 % 80 % 1020,5 hPa 0,0 l/m² 4,2 km/h (1 Bft) S 176 ° 1 min 53 W/m² -3,7 °C -0,7 °C 6,4 km/h (2 Bft)
11.01.2021 09:03 23,6 °C -0,8 °C 45 % 80 % 1020,6 hPa 0,0 l/m² 6,0 km/h (2 Bft) SW 224 ° 2 min 56 W/m² -3,8 °C -0,8 °C 11,3 km/h (2 Bft)
11.01.2021 09:04 23,6 °C -0,8 °C 45 % 80 % 1020,6 hPa 0,0 l/m² 6,2 km/h (2 Bft) W-SW 258 ° 1 min 60 W/m² -3,8 °C -0,8 °C 9,7 km/h (2 Bft)
11.01.2021 09:05 23,6 °C -0,8 °C 45 % 80 % 1020,5 hPa 0,0 l/m² 4,8 km/h (1 Bft) SW 236 ° 1 min 62 W/m² -3,8 °C -0,8 °C 6,4 km/h (2 Bft)
11.01.2021 09:07 23,6 °C -0,8 °C 45 % 80 % 1020,6 hPa 0,0 l/m² 4,2 km/h (1 Bft) SW 232 ° 2 min 63 W/m² -3,8 °C -0,8 °C 6,4 km/h (2 Bft)
11.01.2021 09:08 23,6 °C -0,7 °C 45 % 80 % 1020,5 hPa 0,0 l/m² 5,1 km/h (1 Bft) SW 236 ° 1 min 63 W/m² -3,7 °C -0,7 °C 6,4 km/h (2 Bft)
11.01.2021 09:10 23,6 °C -0,7 °C 45 % 80 % 1020,5 hPa 0,0 l/m² 2,9 km/h (1 Bft) W-SW 238 ° 2 min 69 W/m² -3,7 °C -0,7 °C 6,4 km/h (2 Bft)
11.01.2021 09:11 23,6 °C -0,7 °C 45 % 80 % 1020,6 hPa 0,0 l/m² 6,3 km/h (2 Bft) SW 226 ° 1 min 70 W/m² -3,7 °C -0,7 °C 9,7 km/h (2 Bft)
11.01.2021 09:12 23,6 °C -0,7 °C 45 % 80 % 1020,6 hPa 0,0 l/m² 9,3 km/h (2 Bft) S-SW 200 ° 1 min 74 W/m² -3,7 °C -3,6 °C 12,9 km/h (3 Bft)
11.01.2021 09:14 23,7 °C -0,7 °C 45 % 80 % 1020,5 hPa 0,0 l/m² 7,9 km/h (2 Bft) SW 231 ° 2 min 98 W/m² -3,7 °C -2,3 °C 12,9 km/h (3 Bft)
11.01.2021 09:16 23,7 °C -0,7 °C 45 % 80 % 1020,6 hPa 0,0 l/m² 7,1 km/h (2 Bft) SW 219 ° 2 min 132 W/m² -3,7 °C -1,4 °C 14,5 km/h (3 Bft)
11.01.2021 09:18 23,7 °C -0,6 °C 45 % 80 % 1020,5 hPa 0,0 l/m² 9,1 km/h (2 Bft) S-SW 197 ° 2 min 148 W/m² -3,6 °C -3,3 °C 12,9 km/h (3 Bft)
11.01.2021 09:20 23,8 °C -0,4 °C 45 % 81 % 1020,5 hPa 0,0 l/m² 11,8 km/h (2 Bft) SW 232 ° 2 min 124 W/m² -3,3 °C -5,3 °C 16,1 km/h (3 Bft)
11.01.2021 09:21 23,9 °C -0,4 °C 45 % 81 % 1020,6 hPa 0,0 l/m² 14,0 km/h (3 Bft) SW 220 ° 1 min 125 W/m² -3,3 °C -6,8 °C 16,1 km/h (3 Bft)
11.01.2021 09:22 23,9 °C -0,3 °C 45 % 80 % 1020,6 hPa 0,0 l/m² 12,1 km/h (2 Bft) SW 223 ° 1 min 127 W/m² -3,3 °C -5,4 °C 16,1 km/h (3 Bft)
11.01.2021 09:24 24,0 °C -0,3 °C 44 % 80 % 1020,6 hPa 0,0 l/m² 12,5 km/h (2 Bft) S-SW 202 ° 2 min 131 W/m² -3,3 °C -5,7 °C 16,1 km/h (3 Bft)
11.01.2021 09:26 24,0 °C -0,2 °C 44 % 80 % 1020,7 hPa 0,0 l/m² 13,9 km/h (3 Bft) S-SW 195 ° 2 min 135 W/m² -3,2 °C -6,5 °C 17,7 km/h (3 Bft)
11.01.2021 09:28 24,0 °C -0,2 °C 41 % 80 % 1020,6 hPa 0,0 l/m² 12,1 km/h (2 Bft) S-SW 202 ° 2 min 138 W/m² -3,2 °C -5,3 °C 16,1 km/h (3 Bft)
11.01.2021 09:30 23,9 °C -0,1 °C 36 % 80 % 1020,5 hPa 0,0 l/m² 13,6 km/h (3 Bft) S-SW 203 ° 2 min 142 W/m² -3,1 °C -6,2 °C 17,7 km/h (3 Bft)
11.01.2021 09:31 23,9 °C -0,1 °C 37 % 80 % 1020,5 hPa 0,0 l/m² 14,2 km/h (3 Bft) S-SW 211 ° 1 min 174 W/m² -3,1 °C -6,6 °C 17,7 km/h (3 Bft)
11.01.2021 09:32 23,9 °C -0,1 °C 37 % 80 % 1020,5 hPa 0,0 l/m² 15,0 km/h (3 Bft) S-SW 198 ° 1 min 165 W/m² -3,1 °C -7,1 °C 20,9 km/h (4 Bft)
11.01.2021 09:35 23,9 °C -0,1 °C 38 % 80 % 1020,5 hPa 0,0 l/m² 15,2 km/h (3 Bft) S-SW 192 ° 3 min 202 W/m² -3,1 °C -7,2 °C 20,9 km/h (4 Bft)
11.01.2021 09:37 23,9 °C 0,0 °C 39 % 80 % 1020,5 hPa 0,0 l/m² 15,9 km/h (3 Bft) S-SW 200 ° 2 min 206 W/m² -3,0 °C -7,5 °C 20,9 km/h (4 Bft)
11.01.2021 09:39 23,8 °C 0,1 °C 39 % 80 % 1020,6 hPa 0,0 l/m² 18,0 km/h (3 Bft) SW 233 ° 2 min 204 W/m² -2,9 °C -8,5 °C 29,0 km/h (5 Bft)
11.01.2021 09:40 23,9 °C 0,2 °C 39 % 80 % 1020,6 hPa 0,0 l/m² 14,4 km/h (3 Bft) S-SW 209 ° 1 min 204 W/m² -2,8 °C -6,4 °C 17,7 km/h (3 Bft)
11.01.2021 09:42 23,9 °C 0,2 °C 39 % 80 % 1020,6 hPa 0,0 l/m² 14,0 km/h (3 Bft) SW 223 ° 2 min 200 W/m² -2,8 °C -6,1 °C 19,3 km/h (3 Bft)
11.01.2021 09:43 23,9 °C 0,3 °C 40 % 80 % 1020,6 hPa 0,0 l/m² 13,3 km/h (3 Bft) S-SW 205 ° 1 min 185 W/m² -2,7 °C -5,6 °C 17,7 km/h (3 Bft)
11.01.2021 09:45 23,9 °C 0,3 °C 40 % 80 % 1020,5 hPa 0,0 l/m² 16,6 km/h (3 Bft) S-SW 207 ° 2 min 142 W/m² -2,7 °C -7,5 °C 22,5 km/h (4 Bft)
11.01.2021 09:46 23,9 °C 0,3 °C 40 % 80 % 1020,6 hPa 0,0 l/m² 15,2 km/h (3 Bft) S 188 ° 1 min 139 W/m² -2,7 °C -6,7 °C 19,3 km/h (3 Bft)
11.01.2021 09:47 23,9 °C 0,3 °C 40 % 80 % 1020,6 hPa 0,0 l/m² 17,3 km/h (3 Bft) S-SW 200 ° 1 min 125 W/m² -2,7 °C -7,9 °C 22,5 km/h (4 Bft)
11.01.2021 09:49 23,9 °C 0,3 °C 40 % 80 % 1020,5 hPa 0,0 l/m² 17,5 km/h (3 Bft) SW 216 ° 2 min 132 W/m² -2,7 °C -8,0 °C 22,5 km/h (4 Bft)
11.01.2021 09:50 24,0 °C 0,2 °C 40 % 80 % 1020,7 hPa 0,0 l/m² 18,3 km/h (3 Bft) SW 214 ° 1 min 144 W/m² -2,8 °C -8,6 °C 24,1 km/h (4 Bft)
11.01.2021 09:52 23,9 °C 0,3 °C 40 % 80 % 1020,7 hPa 0,0 l/m² 16,8 km/h (3 Bft) SW 215 ° 2 min 109 W/m² -2,7 °C -7,6 °C 24,1 km/h (4 Bft)
11.01.2021 09:53 23,9 °C 0,3 °C 40 % 79 % 1020,7 hPa 0,0 l/m² 19,7 km/h (3 Bft) SW 222 ° 1 min 105 W/m² -2,9 °C -9,1 °C 24,1 km/h (4 Bft)
11.01.2021 09:55 24,0 °C 0,3 °C 41 % 79 % 1020,6 hPa 0,0 l/m² 15,2 km/h (3 Bft) SW 222 ° 2 min 93 W/m² -2,9 °C -6,7 °C 20,9 km/h (4 Bft)
11.01.2021 09:57 23,9 °C 0,3 °C 41 % 79 % 1020,6 hPa 0,0 l/m² 17,5 km/h (3 Bft) SW 217 ° 2 min 81 W/m² -2,9 °C -8,0 °C 22,5 km/h (4 Bft)
11.01.2021 09:59 24,0 °C 0,2 °C 41 % 80 % 1020,7 hPa 0,0 l/m² 14,8 km/h (3 Bft) S-SW 201 ° 2 min 77 W/m² -2,8 °C -6,6 °C 19,3 km/h (3 Bft)
11.01.2021 10:00 23,9 °C 0,2 °C 41 % 80 % 1020,5 hPa 0,0 l/m² 16,0 km/h (3 Bft) S-SW 210 ° 1 min 74 W/m² -2,8 °C -7,3 °C 20,9 km/h (4 Bft)
11.01.2021 10:02 23,9 °C 0,2 °C 41 % 79 % 1020,5 hPa 0,0 l/m² 19,2 km/h (3 Bft) S-SW 200 ° 2 min 72 W/m² -3,0 °C -9,0 °C 22,5 km/h (4 Bft)
11.01.2021 10:03 23,9 °C 0,2 °C 41 % 79 % 1020,5 hPa 0,0 l/m² 15,9 km/h (3 Bft) S-SW 213 ° 1 min 72 W/m² -3,0 °C -7,3 °C 17,7 km/h (3 Bft)
11.01.2021 10:05 23,9 °C 0,2 °C 41 % 80 % 1020,6 hPa 0,0 l/m² 14,8 km/h (3 Bft) S-SW 205 ° 2 min 70 W/m² -2,8 °C -6,6 °C 22,5 km/h (4 Bft)
11.01.2021 10:07 23,9 °C 0,2 °C 41 % 79 % 1020,5 hPa 0,0 l/m² 15,5 km/h (3 Bft) S-SW 207 ° 2 min 70 W/m² -3,0 °C -7,0 °C 19,3 km/h (3 Bft)
11.01.2021 10:09 23,9 °C 0,2 °C 41 % 80 % 1020,6 hPa 0,0 l/m² 15,4 km/h (3 Bft) S-SW 192 ° 2 min 72 W/m² -2,8 °C -7,0 °C 22,5 km/h (4 Bft)
11.01.2021 10:10 23,9 °C 0,2 °C 41 % 79 % 1020,5 hPa 0,0 l/m² 13,8 km/h (3 Bft) SW 216 ° 1 min 72 W/m² -3,0 °C -6,0 °C 17,7 km/h (3 Bft)
11.01.2021 10:12 23,9 °C 0,2 °C 41 % 80 % 1020,5 hPa 0,0 l/m² 12,5 km/h (2 Bft) S-SW 202 ° 2 min 74 W/m² -2,8 °C -5,1 °C 16,1 km/h (3 Bft)
11.01.2021 10:13 23,8 °C 0,2 °C 41 % 80 % 1020,5 hPa 0,0 l/m² 9,1 km/h (2 Bft) S-SW 203 ° 1 min 76 W/m² -2,8 °C -2,5 °C 12,9 km/h (3 Bft)
11.01.2021 10:15 23,8 °C 0,2 °C 41 % 80 % 1020,4 hPa 0,0 l/m² 11,2 km/h (2 Bft) S-SW 206 ° 2 min 77 W/m² -2,8 °C -4,2 °C 14,5 km/h (3 Bft)
11.01.2021 10:17 23,8 °C 0,2 °C 41 % 80 % 1020,4 hPa 0,0 l/m² 12,9 km/h (3 Bft) S 187 ° 2 min 79 W/m² -2,8 °C -5,4 °C 19,3 km/h (3 Bft)
11.01.2021 10:19 23,8 °C 0,2 °C 42 % 80 % 1020,4 hPa 0,0 l/m² 12,2 km/h (2 Bft) S-SW 198 ° 2 min 81 W/m² -2,8 °C -4,9 °C 16,1 km/h (3 Bft)
11.01.2021 10:20 23,8 °C 0,2 °C 42 % 80 % 1020,5 hPa 0,0 l/m² 11,3 km/h (2 Bft) S-SW 205 ° 1 min 83 W/m² -2,8 °C -4,3 °C 14,5 km/h (3 Bft)
11.01.2021 10:22 23,8 °C 0,2 °C 42 % 79 % 1020,5 hPa 0,0 l/m² 14,5 km/h (3 Bft) S-SW 213 ° 2 min 84 W/m² -3,0 °C -6,4 °C 20,9 km/h (4 Bft)
11.01.2021 10:23 23,8 °C 0,2 °C 42 % 79 % 1020,5 hPa 0,0 l/m² 18,1 km/h (3 Bft) S-SW 209 ° 1 min 86 W/m² -3,0 °C -8,5 °C 20,9 km/h (4 Bft)
11.01.2021 10:25 23,8 °C 0,2 °C 42 % 79 % 1020,6 hPa 0,0 l/m² 15,0 km/h (3 Bft) SW 214 ° 2 min 91 W/m² -3,0 °C -6,7 °C 19,3 km/h (3 Bft)
11.01.2021 10:27 23,8 °C 0,3 °C 42 % 79 % 1020,7 hPa 0,0 l/m² 19,3 km/h (3 Bft) S-SW 202 ° 2 min 97 W/m² -2,9 °C -8,9 °C 25,7 km/h (4 Bft)
11.01.2021 10:29 23,8 °C 0,3 °C 42 % 79 % 1020,7 hPa 0,0 l/m² 14,5 km/h (3 Bft) SW 217 ° 2 min 102 W/m² -2,9 °C -6,3 °C 19,3 km/h (3 Bft)
11.01.2021 10:30 23,8 °C 0,3 °C 42 % 79 % 1020,6 hPa 0,0 l/m² 15,8 km/h (3 Bft) S-SW 200 ° 1 min 109 W/m² -2,9 °C -7,1 °C 20,9 km/h (4 Bft)
11.01.2021 10:32 23,7 °C 0,3 °C 42 % 79 % 1020,7 hPa 0,0 l/m² 15,6 km/h (3 Bft) SW 226 ° 2 min 118 W/m² -2,9 °C -7,0 °C 24,1 km/h (4 Bft)
11.01.2021 10:33 23,8 °C 0,4 °C 42 % 79 % 1020,7 hPa 0,0 l/m² 11,9 km/h (2 Bft) S-SW 192 ° 1 min 121 W/m² -2,8 °C -4,5 °C 12,9 km/h (3 Bft)
11.01.2021 10:35 23,7 °C 0,4 °C 42 % 78 % 1020,8 hPa 0,0 l/m² 17,1 km/h (3 Bft) SW 217 ° 2 min 128 W/m² -3,0 °C -7,7 °C 22,5 km/h (4 Bft)
11.01.2021 10:37 23,8 °C 0,4 °C 42 % 78 % 1020,7 hPa 0,0 l/m² 15,4 km/h (3 Bft) S-SW 207 ° 2 min 130 W/m² -3,0 °C -6,7 °C 22,5 km/h (4 Bft)
11.01.2021 10:39 23,8 °C 0,4 °C 42 % 78 % 1020,8 hPa 0,0 l/m² 12,3 km/h (2 Bft) S-SW 202 ° 2 min 128 W/m² -3,0 °C -4,8 °C 20,9 km/h (4 Bft)
11.01.2021 10:40 23,7 °C 0,5 °C 42 % 78 % 1020,7 hPa 0,0 l/m² 17,8 km/h (3 Bft) SW 225 ° 1 min 127 W/m² -2,9 °C -7,9 °C 22,5 km/h (4 Bft)
11.01.2021 10:42 23,7 °C 0,5 °C 42 % 78 % 1020,7 hPa 0,0 l/m² 14,3 km/h (3 Bft) SW 214 ° 2 min 125 W/m² -2,9 °C -6,0 °C 22,5 km/h (4 Bft)
11.01.2021 10:43 23,7 °C 0,5 °C 42 % 78 % 1020,7 hPa 0,0 l/m² 12,2 km/h (2 Bft) S-SW 196 ° 1 min 125 W/m² -2,9 °C -4,6 °C 16,1 km/h (3 Bft)
11.01.2021 10:45 23,7 °C 0,6 °C 40 % 78 % 1020,7 hPa 0,0 l/m² 12,1 km/h (2 Bft) SW 214 ° 2 min 125 W/m² -2,8 °C -4,4 °C 17,7 km/h (3 Bft)
11.01.2021 10:46 23,7 °C 0,6 °C 39 % 78 % 1020,8 hPa 0,0 l/m² 10,9 km/h (2 Bft) S-SW 211 ° 1 min 127 W/m² -2,8 °C -3,5 °C 14,5 km/h (3 Bft)
11.01.2021 10:48 23,7 °C 0,6 °C 37 % 78 % 1020,7 hPa 0,0 l/m² 10,6 km/h (2 Bft) SW 215 ° 2 min 130 W/m² -2,8 °C -3,3 °C 14,5 km/h (3 Bft)
11.01.2021 10:50 23,6 °C 0,6 °C 36 % 78 % 1020,7 hPa 0,0 l/m² 10,4 km/h (2 Bft) W-SW 244 ° 2 min 139 W/m² -2,8 °C -3,1 °C 14,5 km/h (3 Bft)
11.01.2021 10:51 23,6 °C 0,7 °C 37 % 77 % 1020,7 hPa 0,0 l/m² 9,5 km/h (2 Bft) SW 217 ° 1 min 149 W/m² -2,9 °C -2,3 °C 12,9 km/h (3 Bft)
11.01.2021 10:52 23,6 °C 0,7 °C 37 % 77 % 1020,7 hPa 0,0 l/m² 10,1 km/h (2 Bft) S-SW 207 ° 1 min 153 W/m² -2,9 °C -2,8 °C 14,5 km/h (3 Bft)
11.01.2021 10:53 23,6 °C 0,7 °C 37 % 78 % 1020,7 hPa 0,0 l/m² 8,0 km/h (2 Bft) S-SW 212 ° 1 min 144 W/m² -2,7 °C -0,9 °C 9,7 km/h (2 Bft)
11.01.2021 10:54 23,6 °C 0,7 °C 37 % 77 % 1020,7 hPa 0,0 l/m² 11,6 km/h (2 Bft) SW 215 ° 1 min 139 W/m² -2,9 °C -3,9 °C 14,5 km/h (3 Bft)
11.01.2021 10:56 23,5 °C 0,7 °C 38 % 77 % 1020,7 hPa 0,0 l/m² 7,9 km/h (2 Bft) SW 229 ° 2 min 134 W/m² -2,9 °C -0,8 °C 11,3 km/h (2 Bft)
11.01.2021 10:58 23,6 °C 0,7 °C 38 % 77 % 1020,7 hPa 0,0 l/m² 15,9 km/h (3 Bft) SW 234 ° 2 min 134 W/m² -2,9 °C -6,7 °C 20,9 km/h (4 Bft)
11.01.2021 11:00 23,6 °C 0,7 °C 38 % 77 % 1020,8 hPa 0,0 l/m² 12,7 km/h (3 Bft) SW 225 ° 2 min 137 W/m² -2,9 °C -4,7 °C 19,3 km/h (3 Bft)
11.01.2021 11:01 23,6 °C 0,7 °C 39 % 77 % 1020,7 hPa 0,0 l/m² 15,6 km/h (3 Bft) S-SW 201 ° 1 min 139 W/m² -2,9 °C -6,5 °C 19,3 km/h (3 Bft)
11.01.2021 11:02 23,6 °C 0,7 °C 39 % 77 % 1020,7 hPa 0,0 l/m² 7,1 km/h (2 Bft) S-SW 213 ° 1 min 141 W/m² -2,9 °C -0,0 °C 11,3 km/h (2 Bft)
11.01.2021 11:03 23,6 °C 0,7 °C 39 % 77 % 1020,7 hPa 0,0 l/m² 13,1 km/h (3 Bft) S-SW 193 ° 1 min 142 W/m² -2,9 °C -4,9 °C 17,7 km/h (3 Bft)
11.01.2021 11:04 23,6 °C 0,7 °C 39 % 77 % 1020,6 hPa 0,0 l/m² 8,1 km/h (2 Bft) SW 215 ° 1 min 146 W/m² -2,9 °C -1,0 °C 11,3 km/h (2 Bft)
11.01.2021 11:06 23,6 °C 0,7 °C 39 % 77 % 1020,6 hPa 0,0 l/m² 8,2 km/h (2 Bft) SW 219 ° 2 min 149 W/m² -2,9 °C -1,1 °C 12,9 km/h (3 Bft)
11.01.2021 11:08 23,6 °C 0,7 °C 39 % 77 % 1020,6 hPa 0,0 l/m² 7,8 km/h (2 Bft) SW 229 ° 2 min 153 W/m² -2,9 °C -0,7 °C 12,9 km/h (3 Bft)
11.01.2021 11:10 23,6 °C 0,8 °C 39 % 78 % 1020,6 hPa 0,0 l/m² 8,7 km/h (2 Bft) S-SW 195 ° 2 min 160 W/m² -2,6 °C -1,5 °C 17,7 km/h (3 Bft)
11.01.2021 11:11 23,6 °C 0,8 °C 40 % 77 % 1020,6 hPa 0,0 l/m² 12,5 km/h (2 Bft) S-SW 194 ° 1 min 169 W/m² -2,8 °C -4,4 °C 19,3 km/h (3 Bft)
11.01.2021 11:12 23,6 °C 0,8 °C 40 % 78 % 1020,6 hPa 0,0 l/m² 7,4 km/h (2 Bft) SW 218 ° 1 min 174 W/m² -2,6 °C -0,2 °C 12,9 km/h (3 Bft)
11.01.2021 11:13 23,6 °C 0,8 °C 40 % 77 % 1020,6 hPa 0,0 l/m² 11,9 km/h (2 Bft) S-SW 209 ° 1 min 178 W/m² -2,8 °C -4,0 °C 17,7 km/h (3 Bft)
11.01.2021 11:14 23,6 °C 0,8 °C 40 % 77 % 1020,5 hPa 0,0 l/m² 6,9 km/h (2 Bft) S-SW 202 ° 1 min 181 W/m² -2,8 °C 0,3 °C 9,7 km/h (2 Bft)
11.01.2021 11:16 23,6 °C 0,8 °C 40 % 77 % 1020,5 hPa 0,0 l/m² 10,0 km/h (2 Bft) S-SW 209 ° 2 min 190 W/m² -2,8 °C -2,6 °C 14,5 km/h (3 Bft)
11.01.2021 11:18 23,6 °C 0,8 °C 40 % 77 % 1020,6 hPa 0,0 l/m² 13,5 km/h (3 Bft) S-SW 200 ° 2 min 197 W/m² -2,8 °C -5,1 °C 19,3 km/h (3 Bft)
11.01.2021 11:20 23,6 °C 0,8 °C 40 % 77 % 1020,5 hPa 0,0 l/m² 9,1 km/h (2 Bft) SW 222 ° 2 min 207 W/m² -2,8 °C -1,8 °C 12,9 km/h (3 Bft)
11.01.2021 11:21 23,6 °C 0,8 °C 40 % 78 % 1020,6 hPa 0,0 l/m² 14,1 km/h (3 Bft) S-SW 195 ° 1 min 213 W/m² -2,6 °C -5,5 °C 19,3 km/h (3 Bft)
11.01.2021 11:22 23,6 °C 0,8 °C 40 % 77 % 1020,6 hPa 0,0 l/m² 10,5 km/h (2 Bft) S-SW 211 ° 1 min 216 W/m² -2,8 °C -3,0 °C 12,9 km/h (3 Bft)
11.01.2021 11:23 23,6 °C 0,8 °C 40 % 77 % 1020,5 hPa 0,0 l/m² 9,7 km/h (2 Bft) S-SW 207 ° 1 min 223 W/m² -2,8 °C -2,3 °C 16,1 km/h (3 Bft)
11.01.2021 11:24 23,7 °C 0,8 °C 40 % 77 % 1020,4 hPa 0,0 l/m² 14,3 km/h (3 Bft) S-SW 213 ° 1 min 227 W/m² -2,8 °C -5,6 °C 17,7 km/h (3 Bft)
11.01.2021 11:26 23,7 °C 0,9 °C 40 % 77 % 1020,4 hPa 0,0 l/m² 12,3 km/h (2 Bft) S-SW 193 ° 2 min 230 W/m² -2,7 °C -4,2 °C 17,7 km/h (3 Bft)
11.01.2021 11:28 23,7 °C 0,9 °C 40 % 77 % 1020,4 hPa 0,0 l/m² 12,6 km/h (3 Bft) SW 235 ° 2 min 234 W/m² -2,7 °C -4,4 °C 17,7 km/h (3 Bft)
11.01.2021 11:30 23,7 °C 0,9 °C 40 % 77 % 1020,4 hPa 0,0 l/m² 14,8 km/h (3 Bft) S 179 ° 2 min 234 W/m² -2,7 °C -5,8 °C 20,9 km/h (4 Bft)
11.01.2021 11:31 23,7 °C 0,9 °C 41 % 77 % 1020,3 hPa 0,0 l/m² 10,3 km/h (2 Bft) S-SW 200 ° 1 min 232 W/m² -2,7 °C -2,7 °C 16,1 km/h (3 Bft)
11.01.2021 11:32 23,7 °C 1,0 °C 41 % 77 % 1020,3 hPa 0,0 l/m² 13,3 km/h (3 Bft) SW 232 ° 1 min 230 W/m² -2,6 °C -4,7 °C 17,7 km/h (3 Bft)
11.01.2021 11:33 23,7 °C 1,0 °C 41 % 77 % 1020,4 hPa 0,0 l/m² 11,0 km/h (2 Bft) S-SW 211 ° 1 min 227 W/m² -2,6 °C -3,1 °C 12,9 km/h (3 Bft)
11.01.2021 11:34 23,7 °C 1,0 °C 41 % 77 % 1020,3 hPa 0,0 l/m² 20,0 km/h (4 Bft) SW 224 ° 1 min 232 W/m² -2,6 °C -8,3 °C 25,7 km/h (4 Bft)
11.01.2021 11:36 23,7 °C 1,0 °C 41 % 77 % 1020,2 hPa 0,0 l/m² 11,5 km/h (2 Bft) S-SW 203 ° 2 min 227 W/m² -2,6 °C -3,5 °C 22,5 km/h (4 Bft)
11.01.2021 11:38 23,7 °C 1,0 °C 41 % 77 % 1020,0 hPa 0,0 l/m² 17,7 km/h (3 Bft) SW 217 ° 2 min 220 W/m² -2,6 °C -7,2 °C 24,1 km/h (4 Bft)
11.01.2021 11:40 23,7 °C 1,0 °C 41 % 77 % 1020,1 hPa 0,0 l/m² 16,3 km/h (3 Bft) S 190 ° 2 min 211 W/m² -2,6 °C -6,5 °C 22,5 km/h (4 Bft)
11.01.2021 11:41 23,7 °C 1,0 °C 41 % 77 % 1020,0 hPa 0,0 l/m² 14,8 km/h (3 Bft) S-SW 213 ° 1 min 199 W/m² -2,6 °C -5,7 °C 22,5 km/h (4 Bft)
11.01.2021 11:43 23,7 °C 1,0 °C 41 % 77 % 1020,0 hPa 0,0 l/m² 17,5 km/h (3 Bft) SW 217 ° 2 min 188 W/m² -2,6 °C -7,1 °C 32,2 km/h (5 Bft)
11.01.2021 11:44 23,7 °C 0,9 °C 41 % 76 % 1019,9 hPa 0,0 l/m² 24,7 km/h (4 Bft) S-SW 204 ° 1 min 186 W/m² -2,8 °C -10,4 °C 30,6 km/h (5 Bft)
11.01.2021 11:46 23,8 °C 0,9 °C 41 % 76 % 1019,9 hPa 0,0 l/m² 22,4 km/h (4 Bft) S-SW 211 ° 2 min 185 W/m² -2,8 °C -9,5 °C 32,2 km/h (5 Bft)
11.01.2021 11:48 23,7 °C 0,9 °C 41 % 77 % 1019,8 hPa 0,0 l/m² 19,2 km/h (3 Bft) SW 216 ° 2 min 179 W/m² -2,7 °C -8,1 °C 25,7 km/h (4 Bft)
11.01.2021 11:50 23,8 °C 0,8 °C 41 % 77 % 1019,8 hPa 0,0 l/m² 21,7 km/h (4 Bft) S-SW 211 ° 2 min 172 W/m² -2,8 °C -9,3 °C 33,8 km/h (5 Bft)
11.01.2021 11:51 23,8 °C 0,8 °C 41 % 76 % 1019,7 hPa 0,0 l/m² 24,8 km/h (4 Bft) SW 220 ° 1 min 162 W/m² -2,9 °C -10,6 °C 30,6 km/h (5 Bft)
11.01.2021 11:52 23,8 °C 0,8 °C 41 % 76 % 1019,7 hPa 0,0 l/m² 21,2 km/h (4 Bft) SW 215 ° 1 min 156 W/m² -2,9 °C -9,1 °C 27,4 km/h (5 Bft)
11.01.2021 11:53 23,8 °C 0,8 °C 41 % 77 % 1019,7 hPa 0,0 l/m² 22,3 km/h (4 Bft) S-SW 199 ° 1 min 151 W/m² -2,8 °C -9,6 °C 25,7 km/h (4 Bft)
11.01.2021 11:54 23,7 °C 0,8 °C 41 % 77 % 1019,7 hPa 0,0 l/m² 22,5 km/h (4 Bft) SW 215 ° 1 min 144 W/m² -2,8 °C -9,7 °C 29,0 km/h (5 Bft)
11.01.2021 11:56 23,8 °C 0,8 °C 41 % 77 % 1019,7 hPa 0,0 l/m² 22,8 km/h (4 Bft) S-SW 209 ° 2 min 134 W/m² -2,8 °C -9,8 °C 29,0 km/h (5 Bft)
11.01.2021 11:58 23,8 °C 0,8 °C 41 % 77 % 1019,7 hPa 0,0 l/m² 20,8 km/h (4 Bft) S-SW 205 ° 2 min 121 W/m² -2,8 °C -9,0 °C 29,0 km/h (5 Bft)
11.01.2021 12:00 23,8 °C 0,8 °C 41 % 77 % 1019,7 hPa 0,0 l/m² 25,4 km/h (4 Bft) SW 224 ° 2 min 118 W/m² -2,8 °C -10,8 °C 32,2 km/h (5 Bft)
11.01.2021 12:01 23,8 °C 0,8 °C 41 % 77 % 1019,7 hPa 0,0 l/m² 23,8 km/h (4 Bft) SW 221 ° 1 min 118 W/m² -2,8 °C -10,2 °C 32,2 km/h (5 Bft)
11.01.2021 12:02 23,8 °C 0,8 °C 41 % 77 % 1019,7 hPa 0,0 l/m² 22,0 km/h (4 Bft) SW 221 ° 1 min 118 W/m² -2,8 °C -9,5 °C 32,2 km/h (5 Bft)
11.01.2021 12:03 23,8 °C 0,8 °C 42 % 77 % 1019,8 hPa 0,0 l/m² 24,2 km/h (4 Bft) SW 227 ° 1 min 116 W/m² -2,8 °C -10,3 °C 29,0 km/h (5 Bft)
11.01.2021 12:04 23,8 °C 0,8 °C 42 % 77 % 1019,8 hPa 0,0 l/m² 22,3 km/h (4 Bft) S-SW 207 ° 1 min 116 W/m² -2,8 °C -9,6 °C 25,7 km/h (4 Bft)
11.01.2021 12:06 23,8 °C 0,7 °C 42 % 78 % 1019,8 hPa 0,0 l/m² 17,9 km/h (3 Bft) S-SW 212 ° 2 min 116 W/m² -2,7 °C -7,7 °C 22,5 km/h (4 Bft)
11.01.2021 12:08 23,8 °C 0,7 °C 42 % 77 % 1019,7 hPa 0,0 l/m² 19,6 km/h (3 Bft) S-SW 212 ° 2 min 116 W/m² -2,9 °C -8,5 °C 25,7 km/h (4 Bft)
11.01.2021 12:10 23,8 °C 0,8 °C 42 % 78 % 1019,6 hPa 0,0 l/m² 20,6 km/h (4 Bft) SW 219 ° 2 min 113 W/m² -2,6 °C -8,9 °C 29,0 km/h (5 Bft)
11.01.2021 12:11 23,8 °C 0,8 °C 42 % 78 % 1019,2 hPa 0,0 l/m² 25,5 km/h (4 Bft) SW 224 ° 1 min 111 W/m² -2,6 °C -10,8 °C 33,8 km/h (5 Bft)
11.01.2021 12:13 23,8 °C 0,8 °C 42 % 77 % 1019,3 hPa 0,0 l/m² 21,7 km/h (4 Bft) S-SW 204 ° 2 min 107 W/m² -2,8 °C -9,3 °C 27,4 km/h (5 Bft)
11.01.2021 12:14 23,8 °C 0,8 °C 42 % 77 % 1019,3 hPa 0,0 l/m² 22,1 km/h (4 Bft) SW 219 ° 1 min 107 W/m² -2,8 °C -9,5 °C 27,4 km/h (5 Bft)
11.01.2021 12:15 23,7 °C 0,8 °C 42 % 77 % 1019,2 hPa 0,0 l/m² 21,8 km/h (4 Bft) S 189 ° 1 min 107 W/m² -2,8 °C -9,4 °C 27,4 km/h (5 Bft)
11.01.2021 12:17 23,8 °C 0,8 °C 42 % 78 % 1019,2 hPa 0,0 l/m² 22,3 km/h (4 Bft) S-SW 213 ° 2 min 113 W/m² -2,6 °C -9,6 °C 33,8 km/h (5 Bft)
11.01.2021 12:19 23,7 °C 0,8 °C 42 % 78 % 1019,2 hPa 0,0 l/m² 19,5 km/h (3 Bft) SW 230 ° 2 min 113 W/m² -2,6 °C -8,4 °C 25,7 km/h (4 Bft)
11.01.2021 12:21 23,7 °C 0,8 °C 42 % 78 % 1019,2 hPa 0,0 l/m² 19,7 km/h (3 Bft) SW 225 ° 2 min 105 W/m² -2,6 °C -8,5 °C 27,4 km/h (5 Bft)
11.01.2021 12:22 23,7 °C 0,8 °C 42 % 78 % 1019,2 hPa 0,0 l/m² 23,1 km/h (4 Bft) SW 217 ° 1 min 102 W/m² -2,6 °C -9,9 °C 33,8 km/h (5 Bft)
11.01.2021 12:23 23,7 °C 0,8 °C 42 % 78 % 1019,3 hPa 0,0 l/m² 25,5 km/h (4 Bft) SW 219 ° 1 min 98 W/m² -2,6 °C -10,8 °C 33,8 km/h (5 Bft)
11.01.2021 12:25 23,7 °C 0,8 °C 42 % 78 % 1019,3 hPa 0,0 l/m² 24,1 km/h (4 Bft) S-SW 212 ° 2 min 91 W/m² -2,6 °C -10,3 °C 30,6 km/h (5 Bft)
11.01.2021 12:27 23,7 °C 0,8 °C 42 % 79 % 1019,3 hPa 0,0 l/m² 25,1 km/h (4 Bft) SW 216 ° 2 min 83 W/m² -2,4 °C -10,7 °C 30,6 km/h (5 Bft)
11.01.2021 12:29 23,7 °C 0,7 °C 42 % 78 % 1019,2 hPa 0,0 l/m² 22,6 km/h (4 Bft) S-SW 202 ° 2 min 83 W/m² -2,7 °C -9,8 °C 30,6 km/h (5 Bft)
11.01.2021 12:31 23,7 °C 0,7 °C 42 % 78 % 1019,1 hPa 0,0 l/m² 22,3 km/h (4 Bft) SW 219 ° 2 min 88 W/m² -2,7 °C -9,7 °C 29,0 km/h (5 Bft)
11.01.2021 12:32 23,7 °C 0,7 °C 42 % 79 % 1019,1 hPa 0,0 l/m² 20,7 km/h (4 Bft) S-SW 201 ° 1 min 90 W/m² -2,5 °C -9,0 °C 25,7 km/h (4 Bft)
11.01.2021 12:34 23,7 °C 0,7 °C 42 % 79 % 1019,1 hPa 0,0 l/m² 21,3 km/h (4 Bft) SW 221 ° 2 min 91 W/m² -2,5 °C -9,3 °C 30,6 km/h (5 Bft)
11.01.2021 12:36 23,7 °C 0,7 °C 42 % 78 % 1019,0 hPa 0,0 l/m² 24,2 km/h (4 Bft) SW 216 ° 2 min 90 W/m² -2,7 °C -10,5 °C 35,4 km/h (5 Bft)
11.01.2021 12:38 23,7 °C 0,7 °C 43 % 78 % 1018,9 hPa 0,0 l/m² 25,4 km/h (4 Bft) S-SW 202 ° 2 min 93 W/m² -2,7 °C -10,9 °C 33,8 km/h (5 Bft)
11.01.2021 12:40 23,7 °C 0,7 °C 43 % 79 % 1018,8 hPa 0,0 l/m² 20,7 km/h (4 Bft) S-SW 196 ° 2 min 98 W/m² -2,5 °C -9,0 °C 29,0 km/h (5 Bft)
11.01.2021 12:42 23,7 °C 0,7 °C 43 % 79 % 1019,0 hPa 0,0 l/m² 20,2 km/h (4 Bft) SW 220 ° 2 min 100 W/m² -2,5 °C -8,8 °C 29,0 km/h (5 Bft)
11.01.2021 12:43 23,7 °C 0,7 °C 43 % 79 % 1019,0 hPa 0,0 l/m² 20,7 km/h (4 Bft) S-SW 192 ° 1 min 100 W/m² -2,5 °C -9,0 °C 25,7 km/h (4 Bft)
11.01.2021 12:45 23,7 °C 0,8 °C 43 % 78 % 1019,0 hPa 0,0 l/m² 22,2 km/h (4 Bft) SW 221 ° 2 min 100 W/m² -2,6 °C -9,6 °C 29,0 km/h (5 Bft)
11.01.2021 12:47 23,7 °C 0,8 °C 43 % 78 % 1018,8 hPa 0,0 l/m² 25,4 km/h (4 Bft) W-SW 241 ° 2 min 97 W/m² -2,6 °C -10,8 °C 32,2 km/h (5 Bft)
11.01.2021 12:49 23,7 °C 0,8 °C 42 % 78 % 1019,0 hPa 0,0 l/m² 23,1 km/h (4 Bft) SW 215 ° 2 min 93 W/m² -2,6 °C -9,9 °C 30,6 km/h (5 Bft)
11.01.2021 12:51 23,7 °C 0,8 °C 42 % 78 % 1019,0 hPa 0,0 l/m² 25,2 km/h (4 Bft) S-SW 207 ° 2 min 88 W/m² -2,6 °C -10,7 °C 33,8 km/h (5 Bft)
11.01.2021 12:52 23,7 °C 0,8 °C 42 % 78 % 1019,0 hPa 0,0 l/m² 24,9 km/h (4 Bft) SW 219 ° 1 min 88 W/m² -2,6 °C -10,6 °C 30,6 km/h (5 Bft)
11.01.2021 12:54 23,7 °C 0,8 °C 40 % 78 % 1018,9 hPa 0,0 l/m² 23,4 km/h (4 Bft) S-SW 209 ° 2 min 88 W/m² -2,6 °C -10,0 °C 29,0 km/h (5 Bft)
11.01.2021 12:56 23,6 °C 0,8 °C 40 % 77 % 1019,0 hPa 0,0 l/m² 23,1 km/h (4 Bft) S-SW 201 ° 2 min 91 W/m² -2,8 °C -9,9 °C 33,8 km/h (5 Bft)
11.01.2021 12:58 23,6 °C 0,8 °C 41 % 77 % 1018,8 hPa 0,0 l/m² 17,7 km/h (3 Bft) SW 227 ° 2 min 100 W/m² -2,8 °C -7,5 °C 22,5 km/h (4 Bft)
11.01.2021 13:00 23,6 °C 0,8 °C 41 % 77 % 1018,8 hPa 0,0 l/m² 20,8 km/h (4 Bft) S-SW 205 ° 2 min 102 W/m² -2,8 °C -9,0 °C 25,7 km/h (4 Bft)
11.01.2021 13:02 23,6 °C 0,9 °C 41 % 77 % 1018,9 hPa 0,0 l/m² 19,0 km/h (3 Bft) SW 217 ° 2 min 102 W/m² -2,7 °C -8,0 °C 32,2 km/h (5 Bft)
11.01.2021 13:03 23,6 °C 0,9 °C 41 % 77 % 1018,9 hPa 0,0 l/m² 23,1 km/h (4 Bft) S-SW 208 ° 1 min 100 W/m² -2,7 °C -9,8 °C 29,0 km/h (5 Bft)
11.01.2021 13:04 23,6 °C 0,9 °C 41 % 77 % 1018,8 hPa 0,0 l/m² 19,6 km/h (3 Bft) SW 215 ° 1 min 98 W/m² -2,7 °C -8,3 °C 25,7 km/h (4 Bft)
11.01.2021 13:06 23,6 °C 1,0 °C 41 % 77 % 1018,9 hPa 0,0 l/m² 17,6 km/h (3 Bft) W-SW 258 ° 2 min 98 W/m² -2,6 °C -7,2 °C 27,4 km/h (5 Bft)
11.01.2021 13:08 23,6 °C 1,0 °C 41 % 77 % 1018,8 hPa 0,0 l/m² 16,9 km/h (3 Bft) SW 230 ° 2 min 97 W/m² -2,6 °C -6,8 °C 24,1 km/h (4 Bft)
11.01.2021 13:10 23,6 °C 1,0 °C 41 % 77 % 1018,7 hPa 0,0 l/m² 17,6 km/h (3 Bft) W-SW 248 ° 2 min 98 W/m² -2,6 °C -7,2 °C 25,7 km/h (4 Bft)
11.01.2021 13:12 23,6 °C 1,1 °C 41 % 77 % 1018,8 hPa 0,0 l/m² 17,9 km/h (3 Bft) S-SW 211 ° 2 min 100 W/m² -2,5 °C -7,2 °C 24,1 km/h (4 Bft)
11.01.2021 13:13 23,6 °C 1,1 °C 41 % 77 % 1018,8 hPa 0,0 l/m² 18,1 km/h (3 Bft) SW 223 ° 1 min 100 W/m² -2,5 °C -7,3 °C 25,7 km/h (4 Bft)
11.01.2021 13:14 23,6 °C 1,1 °C 41 % 77 % 1018,8 hPa 0,0 l/m² 17,0 km/h (3 Bft) SW 219 ° 1 min 98 W/m² -2,5 °C -6,8 °C 22,5 km/h (4 Bft)
11.01.2021 13:16 23,6 °C 1,1 °C 41 % 77 % 1018,8 hPa 0,0 l/m² 13,9 km/h (3 Bft) SW 219 ° 2 min 97 W/m² -2,5 °C -5,0 °C 22,5 km/h (4 Bft)
11.01.2021 13:18 23,6 °C 1,1 °C 41 % 77 % 1018,9 hPa 0,0 l/m² 15,9 km/h (3 Bft) SW 217 ° 2 min 95 W/m² -2,5 °C -6,2 °C 20,9 km/h (4 Bft)
11.01.2021 13:20 23,5 °C 1,1 °C 41 % 77 % 1018,8 hPa 0,0 l/m² 14,0 km/h (3 Bft) SW 222 ° 2 min 95 W/m² -2,5 °C -5,0 °C 19,3 km/h (3 Bft)
11.01.2021 13:22 23,5 °C 1,1 °C 41 % 77 % 1018,7 hPa 0,0 l/m² 18,7 km/h (3 Bft) S-SW 211 ° 2 min 91 W/m² -2,5 °C -7,6 °C 29,0 km/h (5 Bft)
11.01.2021 13:23 23,5 °C 1,1 °C 41 % 77 % 1018,7 hPa 0,0 l/m² 14,7 km/h (3 Bft) SW 219 ° 1 min 91 W/m² -2,5 °C -5,5 °C 17,7 km/h (3 Bft)
11.01.2021 13:24 23,5 °C 1,1 °C 41 % 77 % 1018,6 hPa 0,0 l/m² 12,9 km/h (3 Bft) W-SW 240 ° 1 min 91 W/m² -2,5 °C -4,3 °C 17,7 km/h (3 Bft)
11.01.2021 13:26 23,5 °C 1,1 °C 41 % 76 % 1018,4 hPa 0,0 l/m² 19,6 km/h (3 Bft) SW 214 ° 2 min 97 W/m² -2,6 °C -8,0 °C 25,7 km/h (4 Bft)
11.01.2021 13:28 23,5 °C 1,1 °C 41 % 76 % 1018,4 hPa 0,0 l/m² 15,6 km/h (3 Bft) S-SW 194 ° 2 min 97 W/m² -2,6 °C -6,0 °C 22,5 km/h (4 Bft)
11.01.2021 13:30 23,5 °C 1,2 °C 41 % 76 % 1018,3 hPa 0,0 l/m² 18,1 km/h (3 Bft) SW 221 ° 2 min 98 W/m² -2,5 °C -7,2 °C 25,7 km/h (4 Bft)
11.01.2021 13:32 23,4 °C 1,2 °C 41 % 76 % 1018,4 hPa 0,0 l/m² 16,6 km/h (3 Bft) SW 231 ° 2 min 100 W/m² -2,5 °C -6,4 °C 27,4 km/h (5 Bft)
11.01.2021 13:33 23,4 °C 1,2 °C 41 % 76 % 1018,4 hPa 0,0 l/m² 16,6 km/h (3 Bft) W-SW 237 ° 1 min 100 W/m² -2,5 °C -6,4 °C 20,9 km/h (4 Bft)
11.01.2021 13:34 23,4 °C 1,2 °C 41 % 76 % 1018,5 hPa 0,0 l/m² 17,4 km/h (3 Bft) S-SW 211 ° 1 min 98 W/m² -2,5 °C -6,8 °C 20,9 km/h (4 Bft)
11.01.2021 13:36 23,4 °C 1,2 °C 41 % 75 % 1018,4 hPa 0,0 l/m² 14,7 km/h (3 Bft) W-SW 238 ° 2 min 100 W/m² -2,7 °C -5,4 °C 25,7 km/h (4 Bft)
11.01.2021 13:38 23,4 °C 1,2 °C 41 % 75 % 1018,5 hPa 0,0 l/m² 17,3 km/h (3 Bft) SW 217 ° 2 min 107 W/m² -2,7 °C -6,8 °C 22,5 km/h (4 Bft)
11.01.2021 13:40 23,4 °C 1,3 °C 41 % 76 % 1018,4 hPa 0,0 l/m² 9,9 km/h (2 Bft) S 187 ° 2 min 114 W/m² -2,5 °C -1,9 °C 14,5 km/h (3 Bft)
11.01.2021 13:42 23,4 °C 1,3 °C 41 % 75 % 1018,4 hPa 0,0 l/m² 12,9 km/h (3 Bft) S-SW 209 ° 2 min 127 W/m² -2,6 °C -4,1 °C 17,7 km/h (3 Bft)
11.01.2021 13:43 23,4 °C 1,3 °C 41 % 74 % 1018,4 hPa 0,0 l/m² 15,2 km/h (3 Bft) S-SW 205 ° 1 min 144 W/m² -2,8 °C -5,5 °C 20,9 km/h (4 Bft)
11.01.2021 13:44 23,4 °C 1,4 °C 41 % 74 % 1018,4 hPa 0,0 l/m² 9,6 km/h (2 Bft) SW 233 ° 1 min 155 W/m² -2,7 °C -1,6 °C 16,1 km/h (3 Bft)
11.01.2021 13:46 23,4 °C 1,4 °C 41 % 74 % 1018,3 hPa 0,0 l/m² 9,2 km/h (2 Bft) SW 215 ° 2 min 174 W/m² -2,7 °C -1,2 °C 12,9 km/h (3 Bft)
11.01.2021 13:48 23,4 °C 1,5 °C 41 % 74 % 1018,4 hPa 0,0 l/m² 9,9 km/h (2 Bft) S-SW 208 ° 2 min 186 W/m² -2,6 °C -1,7 °C 16,1 km/h (3 Bft)
11.01.2021 13:50 23,4 °C 1,6 °C 41 % 74 % 1018,4 hPa 0,0 l/m² 10,6 km/h (2 Bft) SW 231 ° 2 min 181 W/m² -2,5 °C -2,1 °C 16,1 km/h (3 Bft)
11.01.2021 13:52 23,4 °C 1,6 °C 41 % 74 % 1018,4 hPa 0,0 l/m² 10,3 km/h (2 Bft) S-SW 203 ° 2 min 158 W/m² -2,5 °C -1,9 °C 16,1 km/h (3 Bft)
11.01.2021 13:53 23,4 °C 1,6 °C 41 % 73 % 1018,4 hPa 0,0 l/m² 12,6 km/h (3 Bft) SW 228 ° 1 min 142 W/m² -2,7 °C -3,6 °C 14,5 km/h (3 Bft)
11.01.2021 13:54 23,4 °C 1,6 °C 41 % 73 % 1018,5 hPa 0,0 l/m² 12,2 km/h (2 Bft) SW 221 ° 1 min 130 W/m² -2,7 °C -3,3 °C 17,7 km/h (3 Bft)
11.01.2021 13:56 23,4 °C 1,7 °C 41 % 73 % 1018,4 hPa 0,0 l/m² 11,8 km/h (2 Bft) SW 216 ° 2 min 113 W/m² -2,6 °C -2,9 °C 14,5 km/h (3 Bft)
11.01.2021 13:58 23,4 °C 1,6 °C 41 % 73 % 1018,4 hPa 0,0 l/m² 13,8 km/h (3 Bft) S-SW 213 ° 2 min 107 W/m² -2,7 °C -4,3 °C 20,9 km/h (4 Bft)
11.01.2021 14:00 23,4 °C 1,6 °C 41 % 73 % 1018,3 hPa 0,0 l/m² 9,7 km/h (2 Bft) W-SW 248 ° 2 min 111 W/m² -2,7 °C -1,4 °C 16,1 km/h (3 Bft)
11.01.2021 14:02 23,4 °C 1,6 °C 41 % 73 % 1018,3 hPa 0,0 l/m² 7,5 km/h (2 Bft) SW 219 ° 2 min 111 W/m² -2,7 °C 0,5 °C 14,5 km/h (3 Bft)
11.01.2021 14:03 23,4 °C 1,6 °C 41 % 73 % 1018,3 hPa 0,0 l/m² 11,6 km/h (2 Bft) S-SW 196 ° 1 min 104 W/m² -2,7 °C -2,9 °C 16,1 km/h (3 Bft)
11.01.2021 14:04 23,4 °C 1,7 °C 41 % 73 % 1018,4 hPa 0,0 l/m² 12,9 km/h (3 Bft) W-NW 289 ° 1 min 98 W/m² -2,6 °C -3,6 °C 19,3 km/h (3 Bft)
11.01.2021 14:06 23,4 °C 1,6 °C 41 % 73 % 1018,3 hPa 0,0 l/m² 6,7 km/h (2 Bft) SW 232 ° 2 min 91 W/m² -2,7 °C 1,3 °C 14,5 km/h (3 Bft)
11.01.2021 14:08 23,4 °C 1,6 °C 41 % 73 % 1018,2 hPa 0,0 l/m² 10,8 km/h (2 Bft) S-SW 208 ° 2 min 88 W/m² -2,7 °C -2,3 °C 16,1 km/h (3 Bft)
11.01.2021 14:10 23,4 °C 1,6 °C 41 % 73 % 1018,2 hPa 0,0 l/m² 11,5 km/h (2 Bft) S-SW 205 ° 2 min 91 W/m² -2,7 °C -2,8 °C 22,5 km/h (4 Bft)
11.01.2021 14:12 23,4 °C 1,6 °C 41 % 73 % 1018,3 hPa 0,0 l/m² 18,4 km/h (3 Bft) SW 219 ° 2 min 100 W/m² -2,7 °C -6,8 °C 25,7 km/h (4 Bft)
11.01.2021 14:13 23,4 °C 1,6 °C 41 % 73 % 1018,3 hPa 0,0 l/m² 16,9 km/h (3 Bft) S-SW 200 ° 1 min 100 W/m² -2,7 °C -6,1 °C 20,9 km/h (4 Bft)
11.01.2021 14:14 23,3 °C 1,6 °C 41 % 73 % 1018,2 hPa 0,0 l/m² 14,2 km/h (3 Bft) S-SW 200 ° 1 min 100 W/m² -2,7 °C -4,6 °C 17,7 km/h (3 Bft)
11.01.2021 14:16 23,4 °C 1,6 °C 41 % 73 % 1018,2 hPa 0,0 l/m² 11,7 km/h (2 Bft) S-SW 198 ° 2 min 100 W/m² -2,7 °C -3,0 °C 16,1 km/h (3 Bft)
11.01.2021 14:18 23,3 °C 1,6 °C 41 % 73 % 1018,1 hPa 0,0 l/m² 13,6 km/h (3 Bft) S-SW 196 ° 2 min 91 W/m² -2,7 °C -4,2 °C 19,3 km/h (3 Bft)
11.01.2021 14:20 23,3 °C 1,6 °C 41 % 74 % 1018,1 hPa 0,0 l/m² 10,8 km/h (2 Bft) S-SW 213 ° 2 min 74 W/m² -2,5 °C -2,3 °C 17,7 km/h (3 Bft)
11.01.2021 14:22 23,3 °C 1,5 °C 41 % 74 % 1018,0 hPa 0,0 l/m² 11,6 km/h (2 Bft) S-SW 204 ° 2 min 67 W/m² -2,6 °C -3,0 °C 14,5 km/h (3 Bft)
11.01.2021 14:23 23,3 °C 1,4 °C 41 % 74 % 1018,0 hPa 0,0 l/m² 11,2 km/h (2 Bft) S-SW 211 ° 1 min 65 W/m² -2,7 °C -2,8 °C 14,5 km/h (3 Bft)
11.01.2021 14:24 23,3 °C 1,4 °C 41 % 74 % 1018,0 hPa 0,0 l/m² 13,0 km/h (3 Bft) SW 223 ° 1 min 63 W/m² -2,7 °C -4,1 °C 17,7 km/h (3 Bft)
11.01.2021 14:26 23,3 °C 1,4 °C 41 % 73 % 1018,1 hPa 0,0 l/m² 17,2 km/h (3 Bft) S-SW 197 ° 2 min 76 W/m² -2,9 °C -6,5 °C 22,5 km/h (4 Bft)
11.01.2021 14:28 23,3 °C 1,4 °C 41 % 73 % 1018,2 hPa 0,0 l/m² 12,8 km/h (3 Bft) SW 215 ° 2 min 81 W/m² -2,9 °C -3,9 °C 17,7 km/h (3 Bft)
11.01.2021 14:30 23,3 °C 1,4 °C 41 % 74 % 1018,1 hPa 0,0 l/m² 7,8 km/h (2 Bft) S 187 ° 2 min 83 W/m² -2,7 °C 0,0 °C 12,9 km/h (3 Bft)
11.01.2021 14:32 23,3 °C 1,4 °C 41 % 74 % 1018,2 hPa 0,0 l/m² 7,0 km/h (2 Bft) S-SW 207 ° 2 min 81 W/m² -2,7 °C 0,8 °C 9,7 km/h (2 Bft)
11.01.2021 14:33 23,3 °C 1,4 °C 41 % 74 % 1018,2 hPa 0,0 l/m² 7,0 km/h (2 Bft) S 182 ° 1 min 81 W/m² -2,7 °C 0,8 °C 9,7 km/h (2 Bft)
11.01.2021 14:34 23,3 °C 1,4 °C 41 % 74 % 1018,2 hPa 0,0 l/m² 8,9 km/h (2 Bft) S-SO 162 ° 1 min 83 W/m² -2,7 °C -1,0 °C 12,9 km/h (3 Bft)
11.01.2021 14:36 23,3 °C 1,4 °C 41 % 74 % 1018,2 hPa 0,0 l/m² 10,6 km/h (2 Bft) S 174 ° 2 min 84 W/m² -2,7 °C -2,4 °C 16,1 km/h (3 Bft)
11.01.2021 14:38 23,3 °C 1,4 °C 41 % 74 % 1018,2 hPa 0,0 l/m² 13,3 km/h (3 Bft) SW 217 ° 2 min 84 W/m² -2,7 °C -4,3 °C 17,7 km/h (3 Bft)
11.01.2021 14:40 23,3 °C 1,4 °C 41 % 74 % 1018,2 hPa 0,0 l/m² 11,1 km/h (2 Bft) S-SW 208 ° 2 min 84 W/m² -2,7 °C -2,7 °C 16,1 km/h (3 Bft)
11.01.2021 14:42 23,3 °C 1,4 °C 41 % 74 % 1018,2 hPa 0,0 l/m² 11,9 km/h (2 Bft) S-SW 209 ° 2 min 77 W/m² -2,7 °C -3,3 °C 19,3 km/h (3 Bft)
11.01.2021 14:43 23,3 °C 1,4 °C 41 % 74 % 1018,2 hPa 0,0 l/m² 15,8 km/h (3 Bft) S-SW 197 ° 1 min 77 W/m² -2,7 °C -5,7 °C 20,9 km/h (4 Bft)
11.01.2021 14:44 23,3 °C 1,4 °C 41 % 73 % 1018,1 hPa 0,0 l/m² 14,1 km/h (3 Bft) S-SW 213 ° 1 min 77 W/m² -2,9 °C -4,8 °C 17,7 km/h (3 Bft)
11.01.2021 14:46 23,3 °C 1,4 °C 41 % 74 % 1018,2 hPa 0,0 l/m² 14,5 km/h (3 Bft) SW 223 ° 2 min 77 W/m² -2,7 °C -5,0 °C 19,3 km/h (3 Bft)
11.01.2021 14:48 23,3 °C 1,4 °C 41 % 74 % 1018,1 hPa 0,0 l/m² 14,3 km/h (3 Bft) S-SW 208 ° 2 min 77 W/m² -2,7 °C -4,9 °C 20,9 km/h (4 Bft)
11.01.2021 14:50 23,3 °C 1,5 °C 41 % 74 % 1017,9 hPa 0,0 l/m² 18,3 km/h (3 Bft) SW 215 ° 2 min 76 W/m² -2,6 °C -6,9 °C 27,4 km/h (5 Bft)
11.01.2021 14:52 23,3 °C 1,5 °C 41 % 74 % 1017,9 hPa 0,0 l/m² 15,6 km/h (3 Bft) S-SW 200 ° 2 min 70 W/m² -2,6 °C -5,5 °C 20,9 km/h (4 Bft)
11.01.2021 14:53 23,3 °C 1,6 °C 41 % 73 % 1017,9 hPa 0,0 l/m² 13,8 km/h (3 Bft) S-SW 202 ° 1 min 69 W/m² -2,7 °C -4,3 °C 19,3 km/h (3 Bft)
11.01.2021 14:54 23,3 °C 1,5 °C 41 % 74 % 1017,8 hPa 0,0 l/m² 15,2 km/h (3 Bft) S-SW 196 ° 1 min 67 W/m² -2,6 °C -5,3 °C 19,3 km/h (3 Bft)
11.01.2021 14:56 23,3 °C 1,6 °C 41 % 73 % 1017,8 hPa 0,0 l/m² 16,2 km/h (3 Bft) S-SW 209 ° 2 min 67 W/m² -2,7 °C -5,7 °C 24,1 km/h (4 Bft)
11.01.2021 14:58 23,3 °C 1,5 °C 41 % 73 % 1017,8 hPa 0,0 l/m² 14,7 km/h (3 Bft) S-SW 203 ° 2 min 67 W/m² -2,8 °C -5,0 °C 19,3 km/h (3 Bft)
11.01.2021 15:00 23,3 °C 1,6 °C 41 % 73 % 1017,8 hPa 0,0 l/m² 14,8 km/h (3 Bft) S-SW 196 ° 2 min 63 W/m² -2,7 °C -4,9 °C 17,7 km/h (3 Bft)
11.01.2021 15:02 23,3 °C 1,6 °C 41 % 74 % 1017,8 hPa 0,0 l/m² 11,7 km/h (2 Bft) S-SW 208 ° 2 min 60 W/m² -2,5 °C -3,0 °C 14,5 km/h (3 Bft)
11.01.2021 15:03 23,3 °C 1,6 °C 41 % 74 % 1017,8 hPa 0,0 l/m² 12,8 km/h (3 Bft) S-SW 209 ° 1 min 58 W/m² -2,5 °C -3,7 °C 16,1 km/h (3 Bft)
11.01.2021 15:04 23,3 °C 1,5 °C 41 % 74 % 1017,8 hPa 0,0 l/m² 14,5 km/h (3 Bft) S-SW 205 ° 1 min 56 W/m² -2,6 °C -4,9 °C 20,9 km/h (4 Bft)
11.01.2021 15:06 23,3 °C 1,6 °C 41 % 74 % 1017,9 hPa 0,0 l/m² 13,2 km/h (3 Bft) S-SW 195 ° 2 min 56 W/m² -2,5 °C -4,0 °C 20,9 km/h (4 Bft)
11.01.2021 15:08 23,3 °C 1,5 °C 41 % 74 % 1017,8 hPa 0,0 l/m² 13,3 km/h (3 Bft) S-SO 161 ° 2 min 56 W/m² -2,6 °C -4,1 °C 22,5 km/h (4 Bft)
11.01.2021 15:10 23,3 °C 1,5 °C 41 % 74 % 1017,8 hPa 0,0 l/m² 14,4 km/h (3 Bft) S-SW 199 ° 2 min 54 W/m² -2,6 °C -4,8 °C 22,5 km/h (4 Bft)
11.01.2021 15:12 23,3 °C 1,5 °C 41 % 74 % 1017,8 hPa 0,0 l/m² 13,9 km/h (3 Bft) S-SW 208 ° 2 min 53 W/m² -2,6 °C -4,5 °C 19,3 km/h (3 Bft)
11.01.2021 15:13 23,3 °C 1,6 °C 41 % 74 % 1017,8 hPa 0,0 l/m² 17,0 km/h (3 Bft) S-SW 194 ° 0 min 51 W/m² -2,5 °C -6,1 °C 24,1 km/h (4 Bft)
11.01.2021 15:14 23,3 °C 1,6 °C 41 % 73 % 1017,7 hPa 0,0 l/m² 15,5 km/h (3 Bft) S-SW 209 ° 0 min 51 W/m² -2,7 °C -5,3 °C 20,9 km/h (4 Bft)
11.01.2021 15:16 23,3 °C 1,6 °C 41 % 73 % 1017,6 hPa 0,0 l/m² 10,3 km/h (2 Bft) S 171 ° 0 min 49 W/m² -2,7 °C -1,9 °C 14,5 km/h (3 Bft)
11.01.2021 15:18 23,3 °C 1,6 °C 41 % 74 % 1017,7 hPa 0,0 l/m² 10,7 km/h (2 Bft) S-SW 202 ° 0 min 47 W/m² -2,5 °C -2,2 °C 16,1 km/h (3 Bft)
11.01.2021 15:20 23,3 °C 1,6 °C 41 % 73 % 1017,6 hPa 0,0 l/m² 8,6 km/h (2 Bft) S 184 ° 0 min 47 W/m² -2,7 °C -0,5 °C 11,3 km/h (2 Bft)
11.01.2021 15:22 23,3 °C 1,6 °C 41 % 74 % 1017,6 hPa 0,0 l/m² 10,1 km/h (2 Bft) S 176 ° 0 min 46 W/m² -2,5 °C -1,8 °C 17,7 km/h (3 Bft)
11.01.2021 15:23 23,3 °C 1,6 °C 41 % 74 % 1017,6 hPa 0,0 l/m² 13,0 km/h (3 Bft) S-SW 201 ° 0 min 44 W/m² -2,5 °C -3,8 °C 16,1 km/h (3 Bft)
11.01.2021 15:24 23,3 °C 1,6 °C 41 % 73 % 1017,6 hPa 0,0 l/m² 14,1 km/h (3 Bft) S-SW 207 ° 0 min 44 W/m² -2,7 °C -4,5 °C 17,7 km/h (3 Bft)
11.01.2021 15:26 23,3 °C 1,6 °C 40 % 73 % 1017,7 hPa 0,0 l/m² 14,9 km/h (3 Bft) S-SW 206 ° 0 min 42 W/m² -2,7 °C -5,0 °C 22,5 km/h (4 Bft)
11.01.2021 15:28 23,3 °C 1,6 °C 40 % 74 % 1017,7 hPa 0,0 l/m² 12,4 km/h (2 Bft) SW 219 ° 0 min 40 W/m² -2,5 °C -3,4 °C 16,1 km/h (3 Bft)
11.01.2021 15:30 23,3 °C 1,6 °C 40 % 73 % 1017,6 hPa 0,0 l/m² 12,4 km/h (2 Bft) S-SW 212 ° 0 min 39 W/m² -2,7 °C -3,4 °C 19,3 km/h (3 Bft)
11.01.2021 15:32 23,2 °C 1,6 °C 40 % 74 % 1017,5 hPa 0,0 l/m² 9,7 km/h (2 Bft) SW 221 ° 0 min 37 W/m² -2,5 °C -1,4 °C 14,5 km/h (3 Bft)
11.01.2021 15:33 23,2 °C 1,6 °C 40 % 74 % 1017,5 hPa 0,0 l/m² 9,0 km/h (2 Bft) S 172 ° 0 min 37 W/m² -2,5 °C -0,9 °C 14,5 km/h (3 Bft)
11.01.2021 15:34 23,3 °C 1,6 °C 40 % 74 % 1017,4 hPa 0,0 l/m² 12,4 km/h (2 Bft) S 186 ° 0 min 35 W/m² -2,5 °C -3,4 °C 16,1 km/h (3 Bft)
11.01.2021 15:36 23,2 °C 1,6 °C 40 % 73 % 1017,5 hPa 0,0 l/m² 15,7 km/h (3 Bft) SW 221 ° 0 min 33 W/m² -2,7 °C -5,4 °C 22,5 km/h (4 Bft)
11.01.2021 15:38 23,3 °C 1,6 °C 41 % 73 % 1017,4 hPa 0,0 l/m² 16,5 km/h (3 Bft) W-SW 237 ° 0 min 32 W/m² -2,7 °C -5,9 °C 25,7 km/h (4 Bft)
11.01.2021 15:40 23,2 °C 1,6 °C 41 % 73 % 1017,5 hPa 0,0 l/m² 12,4 km/h (2 Bft) W-SW 247 ° 0 min 30 W/m² -2,7 °C -3,4 °C 16,1 km/h (3 Bft)
11.01.2021 15:42 23,2 °C 1,6 °C 41 % 73 % 1017,6 hPa 0,0 l/m² 14,8 km/h (3 Bft) SW 218 ° 0 min 26 W/m² -2,7 °C -4,9 °C 22,5 km/h (4 Bft)
11.01.2021 15:43 23,2 °C 1,6 °C 41 % 73 % 1017,6 hPa 0,0 l/m² 15,6 km/h (3 Bft) SW 216 ° 0 min 26 W/m² -2,7 °C -5,4 °C 17,7 km/h (3 Bft)
11.01.2021 15:45 23,2 °C 1,6 °C 41 % 73 % 1017,6 hPa 0,0 l/m² 10,5 km/h (2 Bft) W-SW 241 ° 0 min 23 W/m² -2,7 °C -2,1 °C 16,1 km/h (3 Bft)
11.01.2021 15:47 23,2 °C 1,6 °C 40 % 73 % 1017,6 hPa 0,0 l/m² 13,9 km/h (3 Bft) S-SW 209 ° 0 min 19 W/m² -2,7 °C -4,4 °C 22,5 km/h (4 Bft)
11.01.2021 15:49 23,2 °C 1,6 °C 40 % 73 % 1017,5 hPa 0,0 l/m² 14,4 km/h (3 Bft) S-SW 204 ° 0 min 18 W/m² -2,7 °C -4,7 °C 19,3 km/h (3 Bft)
11.01.2021 15:51 23,2 °C 1,6 °C 36 % 73 % 1017,5 hPa 0,0 l/m² 12,7 km/h (3 Bft) SW 236 ° 0 min 16 W/m² -2,7 °C -3,6 °C 19,3 km/h (3 Bft)
11.01.2021 15:52 23,2 °C 1,6 °C 36 % 74 % 1017,5 hPa 0,0 l/m² 13,4 km/h (3 Bft) SW 229 ° 0 min 14 W/m² -2,5 °C -4,1 °C 20,9 km/h (4 Bft)
11.01.2021 15:54 23,1 °C 1,6 °C 35 % 73 % 1017,5 hPa 0,0 l/m² 12,9 km/h (3 Bft) SW 231 ° 0 min 14 W/m² -2,7 °C -3,8 °C 19,3 km/h (3 Bft)
11.01.2021 15:56 23,1 °C 1,5 °C 36 % 74 % 1017,4 hPa 0,0 l/m² 10,6 km/h (2 Bft) S-SW 209 ° 0 min 12 W/m² -2,6 °C -2,3 °C 14,5 km/h (3 Bft)
11.01.2021 15:58 23,1 °C 1,4 °C 36 % 74 % 1017,3 hPa 0,0 l/m² 14,4 km/h (3 Bft) SW 223 ° 0 min 11 W/m² -2,7 °C -4,9 °C 24,1 km/h (4 Bft)
11.01.2021 16:00 23,1 °C 1,4 °C 37 % 74 % 1017,3 hPa 0,0 l/m² 17,7 km/h (3 Bft) SW 223 ° 0 min 11 W/m² -2,7 °C -6,7 °C 27,4 km/h (5 Bft)
11.01.2021 16:02 23,0 °C 1,4 °C 37 % 73 % 1017,3 hPa 0,0 l/m² 19,6 km/h (3 Bft) SW 236 ° 0 min 11 W/m² -2,9 °C -7,6 °C 30,6 km/h (5 Bft)
11.01.2021 16:03 23,0 °C 1,4 °C 37 % 73 % 1017,3 hPa 0,0 l/m² 17,7 km/h (3 Bft) SW 234 ° 0 min 11 W/m² -2,9 °C -6,7 °C 20,9 km/h (4 Bft)
11.01.2021 16:04 23,0 °C 1,4 °C 37 % 73 % 1017,4 hPa 0,0 l/m² 13,1 km/h (3 Bft) SW 221 ° 0 min 11 W/m² -2,9 °C -4,1 °C 17,7 km/h (3 Bft)
11.01.2021 16:06 23,0 °C 1,4 °C 38 % 73 % 1017,3 hPa 0,0 l/m² 10,2 km/h (2 Bft) S-SW 209 ° 0 min 9 W/m² -2,9 °C -2,1 °C 12,9 km/h (3 Bft)
11.01.2021 16:08 23,1 °C 1,4 °C 38 % 73 % 1017,2 hPa 0,0 l/m² 12,9 km/h (3 Bft) S-SW 202 ° 0 min 9 W/m² -2,9 °C -4,0 °C 19,3 km/h (3 Bft)
11.01.2021 16:10 23,0 °C 1,4 °C 38 % 73 % 1017,2 hPa 0,0 l/m² 15,1 km/h (3 Bft) S-SW 204 ° 0 min 7 W/m² -2,9 °C -5,3 °C 19,3 km/h (3 Bft)
11.01.2021 16:12 23,0 °C 1,4 °C 38 % 73 % 1017,3 hPa 0,0 l/m² 13,2 km/h (3 Bft) S-SW 211 ° 0 min 5 W/m² -2,9 °C -4,2 °C 17,7 km/h (3 Bft)
11.01.2021 16:13 23,0 °C 1,4 °C 38 % 74 % 1017,3 hPa 0,0 l/m² 13,4 km/h (3 Bft) S-SW 213 ° 0 min 5 W/m² -2,7 °C -4,3 °C 16,1 km/h (3 Bft)
11.01.2021 16:14 23,0 °C 1,4 °C 38 % 74 % 1017,2 hPa 0,0 l/m² 15,6 km/h (3 Bft) SW 216 ° 0 min 5 W/m² -2,7 °C -5,6 °C 20,9 km/h (4 Bft)
11.01.2021 16:16 23,0 °C 1,4 °C 38 % 73 % 1017,3 hPa 0,0 l/m² 15,5 km/h (3 Bft) S-SW 209 ° 0 min 5 W/m² -2,9 °C -5,6 °C 20,9 km/h (4 Bft)
11.01.2021 16:18 23,0 °C 1,3 °C 38 % 73 % 1017,3 hPa 0,0 l/m² 16,4 km/h (3 Bft) SW 236 ° 0 min 5 W/m² -3,0 °C -6,2 °C 22,5 km/h (4 Bft)
11.01.2021 16:20 23,1 °C 1,4 °C 39 % 73 % 1017,2 hPa 0,0 l/m² 17,5 km/h (3 Bft) SW 229 ° 0 min 5 W/m² -2,9 °C -6,6 °C 24,1 km/h (4 Bft)
11.01.2021 16:22 23,1 °C 1,4 °C 39 % 73 % 1017,2 hPa 0,0 l/m² 17,0 km/h (3 Bft) W-SW 252 ° 0 min 5 W/m² -2,9 °C -6,4 °C 25,7 km/h (4 Bft)
11.01.2021 16:23 23,1 °C 1,4 °C 39 % 73 % 1017,2 hPa 0,0 l/m² 14,6 km/h (3 Bft) W-SW 244 ° 0 min 0 W/m² -2,9 °C -5,1 °C 20,9 km/h (4 Bft)
11.01.2021 16:24 23,1 °C 1,4 °C 39 % 73 % 1017,3 hPa 0,0 l/m² 15,7 km/h (3 Bft) SW 221 ° 0 min 0 W/m² -2,9 °C -5,7 °C 19,3 km/h (3 Bft)
11.01.2021 16:26 23,1 °C 1,4 °C 39 % 74 % 1017,3 hPa 0,0 l/m² 11,9 km/h (2 Bft) SW 227 ° 0 min 0 W/m² -2,7 °C -3,3 °C 16,1 km/h (3 Bft)
11.01.2021 16:28 23,0 °C 1,3 °C 39 % 74 % 1017,3 hPa 0,0 l/m² 13,1 km/h (3 Bft) W-SW 241 ° 0 min 5 W/m² -2,8 °C -4,2 °C 17,7 km/h (3 Bft)
11.01.2021 16:30 23,1 °C 1,3 °C 39 % 74 % 1017,3 hPa 0,0 l/m² 14,6 km/h (3 Bft) SW 219 ° 0 min 0 W/m² -2,8 °C -5,2 °C 19,3 km/h (3 Bft)
11.01.2021 16:32 23,1 °C 1,3 °C 39 % 74 % 1017,2 hPa 0,0 l/m² 12,5 km/h (2 Bft) S-SW 212 ° 0 min 0 W/m² -2,8 °C -3,8 °C 19,3 km/h (3 Bft)
11.01.2021 16:33 23,1 °C 1,3 °C 39 % 74 % 1017,2 hPa 0,0 l/m² 10,9 km/h (2 Bft) S-SW 208 ° 0 min 0 W/m² -2,8 °C -2,7 °C 14,5 km/h (3 Bft)
11.01.2021 16:34 23,1 °C 1,3 °C 39 % 74 % 1017,1 hPa 0,0 l/m² 11,9 km/h (2 Bft) SW 217 ° 0 min 0 W/m² -2,8 °C -3,4 °C 12,9 km/h (3 Bft)
11.01.2021 16:36 23,1 °C 1,3 °C 39 % 74 % 1017,2 hPa 0,0 l/m² 10,8 km/h (2 Bft) SW 223 ° 0 min 0 W/m² -2,8 °C -2,6 °C 16,1 km/h (3 Bft)
11.01.2021 16:38 23,1 °C 1,3 °C 39 % 74 % 1017,1 hPa 0,0 l/m² 10,8 km/h (2 Bft) SW 224 ° 0 min 0 W/m² -2,8 °C -2,6 °C 16,1 km/h (3 Bft)
11.01.2021 16:40 23,1 °C 1,3 °C 39 % 74 % 1017,2 hPa 0,0 l/m² 12,3 km/h (2 Bft) S-SO 148 ° 0 min 0 W/m² -2,8 °C -3,7 °C 22,5 km/h (4 Bft)
11.01.2021 16:42 23,1 °C 1,3 °C 39 % 74 % 1017,1 hPa 0,0 l/m² 7,7 km/h (2 Bft) SW 217 ° 0 min 0 W/m² -2,8 °C 0,0 °C 11,3 km/h (2 Bft)
11.01.2021 16:43 23,1 °C 1,3 °C 39 % 74 % 1017,1 hPa 0,0 l/m² 10,4 km/h (2 Bft) SW 221 ° 0 min 0 W/m² -2,8 °C -2,3 °C 14,5 km/h (3 Bft)
11.01.2021 16:44 23,1 °C 1,3 °C 39 % 74 % 1017,0 hPa 0,0 l/m² 13,6 km/h (3 Bft) SW 229 ° 0 min 0 W/m² -2,8 °C -4,6 °C 17,7 km/h (3 Bft)
11.01.2021 16:46 23,1 °C 1,3 °C 40 % 74 % 1017,1 hPa 0,0 l/m² 12,8 km/h (3 Bft) SW 224 ° 0 min 0 W/m² -2,8 °C -4,0 °C 20,9 km/h (4 Bft)
11.01.2021 16:48 23,1 °C 1,3 °C 40 % 74 % 1017,1 hPa 0,0 l/m² 13,3 km/h (3 Bft) SW 233 ° 0 min 0 W/m² -2,8 °C -4,4 °C 19,3 km/h (3 Bft)
11.01.2021 16:50 23,1 °C 1,3 °C 40 % 74 % 1017,3 hPa 0,0 l/m² 11,6 km/h (2 Bft) SW 215 ° 0 min 0 W/m² -2,8 °C -3,2 °C 17,7 km/h (3 Bft)
11.01.2021 16:52 23,1 °C 1,3 °C 40 % 74 % 1017,2 hPa 0,0 l/m² 14,6 km/h (3 Bft) SW 225 ° 0 min 0 W/m² -2,8 °C -5,2 °C 27,4 km/h (5 Bft)
11.01.2021 16:53 23,1 °C 1,3 °C 40 % 74 % 1017,2 hPa 0,0 l/m² 13,5 km/h (3 Bft) SW 221 ° 0 min 0 W/m² -2,8 °C -4,5 °C 17,7 km/h (3 Bft)
11.01.2021 16:54 23,1 °C 1,3 °C 40 % 74 % 1017,2 hPa 0,0 l/m² 14,1 km/h (3 Bft) SW 229 ° 0 min 0 W/m² -2,8 °C -4,9 °C 24,1 km/h (4 Bft)
11.01.2021 16:56 23,0 °C 1,3 °C 40 % 74 % 1017,2 hPa 0,0 l/m² 20,0 km/h (4 Bft) S-SW 210 ° 0 min 0 W/m² -2,8 °C -8,0 °C 30,6 km/h (5 Bft)
11.01.2021 16:58 23,1 °C 1,3 °C 40 % 74 % 1017,1 hPa 0,0 l/m² 19,3 km/h (3 Bft) SW 229 ° 0 min 0 W/m² -2,8 °C -7,6 °C 24,1 km/h (4 Bft)
11.01.2021 17:00 23,1 °C 1,3 °C 40 % 74 % 1017,0 hPa 0,0 l/m² 18,3 km/h (3 Bft) W-SW 256 ° 0 min 0 W/m² -2,8 °C -7,2 °C 27,4 km/h (5 Bft)
11.01.2021 17:02 23,1 °C 1,3 °C 40 % 74 % 1017,1 hPa 0,0 l/m² 14,3 km/h (3 Bft) W-SW 238 ° 0 min 0 W/m² -2,8 °C -5,0 °C 19,3 km/h (3 Bft)
11.01.2021 17:03 23,1 °C 1,3 °C 40 % 74 % 1017,1 hPa 0,0 l/m² 21,3 km/h (4 Bft) SW 215 ° 0 min 0 W/m² -2,8 °C -8,5 °C 25,7 km/h (4 Bft)
11.01.2021 17:04 23,1 °C 1,3 °C 40 % 74 % 1017,0 hPa 0,0 l/m² 16,1 km/h (3 Bft) SW 233 ° 0 min 0 W/m² -2,8 °C -6,0 °C 20,9 km/h (4 Bft)
11.01.2021 17:06 23,1 °C 1,3 °C 40 % 74 % 1016,9 hPa 0,0 l/m² 16,5 km/h (3 Bft) SW 232 ° 0 min 0 W/m² -2,8 °C -6,2 °C 27,4 km/h (5 Bft)
11.01.2021 17:08 23,1 °C 1,3 °C 40 % 74 % 1016,8 hPa 0,0 l/m² 22,1 km/h (4 Bft) SW 226 ° 0 min 0 W/m² -2,8 °C -8,8 °C 29,0 km/h (5 Bft)
11.01.2021 17:10 23,1 °C 1,3 °C 40 % 74 % 1016,9 hPa 0,0 l/m² 18,6 km/h (3 Bft) SW 230 ° 0 min 0 W/m² -2,8 °C -7,3 °C 29,0 km/h (5 Bft)
11.01.2021 17:12 23,1 °C 1,3 °C 40 % 75 % 1016,7 hPa 0,0 l/m² 17,9 km/h (3 Bft) SW 229 ° 0 min 0 W/m² -2,6 °C -7,0 °C 25,7 km/h (4 Bft)
11.01.2021 17:13 23,1 °C 1,3 °C 40 % 75 % 1016,7 hPa 0,0 l/m² 19,5 km/h (3 Bft) SW 229 ° 0 min 0 W/m² -2,6 °C -7,7 °C 24,1 km/h (4 Bft)
11.01.2021 17:14 23,1 °C 1,2 °C 40 % 75 % 1016,7 hPa 0,0 l/m² 18,9 km/h (3 Bft) SW 229 ° 0 min 0 W/m² -2,7 °C -7,6 °C 22,5 km/h (4 Bft)
11.01.2021 17:16 23,1 °C 1,2 °C 40 % 75 % 1016,7 hPa 0,0 l/m² 19,6 km/h (3 Bft) W-SW 237 ° 0 min 0 W/m² -2,7 °C -7,9 °C 29,0 km/h (5 Bft)
11.01.2021 17:18 23,1 °C 1,2 °C 40 % 74 % 1016,7 hPa 0,0 l/m² 15,4 km/h (3 Bft) SW 227 ° 0 min 0 W/m² -2,9 °C -5,8 °C 22,5 km/h (4 Bft)
11.01.2021 17:20 23,1 °C 1,2 °C 40 % 75 % 1016,7 hPa 0,0 l/m² 15,9 km/h (3 Bft) S-SW 211 ° 0 min 0 W/m² -2,7 °C -6,0 °C 20,9 km/h (4 Bft)
11.01.2021 17:22 23,1 °C 1,2 °C 40 % 75 % 1016,7 hPa 0,0 l/m² 19,0 km/h (3 Bft) SW 220 ° 0 min 0 W/m² -2,7 °C -7,6 °C 27,4 km/h (5 Bft)
11.01.2021 17:23 23,1 °C 1,2 °C 40 % 75 % 1016,7 hPa 0,0 l/m² 16,4 km/h (3 Bft) SW 223 ° 0 min 0 W/m² -2,7 °C -6,3 °C 20,9 km/h (4 Bft)
11.01.2021 17:24 23,1 °C 1,1 °C 40 % 75 % 1016,6 hPa 0,0 l/m² 16,5 km/h (3 Bft) SW 223 ° 0 min 0 W/m² -2,8 °C -6,5 °C 20,9 km/h (4 Bft)
11.01.2021 17:26 23,1 °C 1,2 °C 40 % 75 % 1016,7 hPa 0,0 l/m² 17,1 km/h (3 Bft) S-SW 213 ° 0 min 0 W/m² -2,7 °C -6,7 °C 24,1 km/h (4 Bft)
11.01.2021 17:28 23,1 °C 1,1 °C 40 % 75 % 1016,5 hPa 0,0 l/m² 16,0 km/h (3 Bft) S-SW 212 ° 0 min 0 W/m² -2,8 °C -6,2 °C 22,5 km/h (4 Bft)
11.01.2021 17:30 23,1 °C 1,1 °C 39 % 75 % 1016,6 hPa 0,0 l/m² 17,8 km/h (3 Bft) SW 221 ° 0 min 0 W/m² -2,8 °C -7,2 °C 22,5 km/h (4 Bft)
11.01.2021 17:32 23,1 °C 1,1 °C 39 % 75 % 1016,6 hPa 0,0 l/m² 17,3 km/h (3 Bft) SW 216 ° 0 min 0 W/m² -2,8 °C -6,9 °C 24,1 km/h (4 Bft)
11.01.2021 17:33 23,1 °C 1,1 °C 39 % 75 % 1016,6 hPa 0,0 l/m² 12,9 km/h (3 Bft) SW 234 ° 0 min 0 W/m² -2,8 °C -4,3 °C 17,7 km/h (3 Bft)
11.01.2021 17:34 23,1 °C 1,1 °C 39 % 75 % 1016,6 hPa 0,0 l/m² 14,6 km/h (3 Bft) SW 215 ° 0 min 0 W/m² -2,8 °C -5,4 °C 17,7 km/h (3 Bft)
11.01.2021 17:36 23,1 °C 1,1 °C 39 % 75 % 1016,6 hPa 0,0 l/m² 14,3 km/h (3 Bft) SW 222 ° 0 min 0 W/m² -2,8 °C -5,2 °C 20,9 km/h (4 Bft)
11.01.2021 17:38 23,1 °C 1,1 °C 39 % 75 % 1016,6 hPa 0,0 l/m² 15,6 km/h (3 Bft) SW 229 ° 0 min 0 W/m² -2,8 °C -6,0 °C 27,4 km/h (5 Bft)
11.01.2021 17:40 23,1 °C 1,1 °C 39 % 75 % 1016,5 hPa 0,0 l/m² 18,6 km/h (3 Bft) SW 230 ° 0 min 0 W/m² -2,8 °C -7,6 °C 27,4 km/h (5 Bft)
11.01.2021 17:42 23,0 °C 1,1 °C 39 % 75 % 1016,4 hPa 0,0 l/m² 16,5 km/h (3 Bft) SW 224 ° 0 min 0 W/m² -2,8 °C -6,5 °C 22,5 km/h (4 Bft)
11.01.2021 17:43 23,0 °C 1,1 °C 39 % 75 % 1016,4 hPa 0,0 l/m² 16,2 km/h (3 Bft) SW 215 ° 0 min 0 W/m² -2,8 °C -6,3 °C 20,9 km/h (4 Bft)
11.01.2021 17:44 23,0 °C 1,1 °C 39 % 75 % 1016,4 hPa 0,0 l/m² 14,5 km/h (3 Bft) SW 224 ° 0 min 0 W/m² -2,8 °C -5,4 °C 22,5 km/h (4 Bft)
11.01.2021 17:46 23,0 °C 1,1 °C 39 % 75 % 1016,3 hPa 0,0 l/m² 20,3 km/h (4 Bft) SW 221 ° 0 min 0 W/m² -2,8 °C -8,3 °C 29,0 km/h (5 Bft)
11.01.2021 17:48 23,0 °C 1,1 °C 39 % 75 % 1016,3 hPa 0,0 l/m² 17,4 km/h (3 Bft) SW 216 ° 0 min 0 W/m² -2,8 °C -7,0 °C 22,5 km/h (4 Bft)
11.01.2021 17:50 23,0 °C 1,1 °C 39 % 75 % 1016,3 hPa 0,0 l/m² 18,8 km/h (3 Bft) SW 226 ° 0 min 0 W/m² -2,8 °C -7,7 °C 24,1 km/h (4 Bft)
11.01.2021 17:52 23,0 °C 1,1 °C 39 % 75 % 1016,3 hPa 0,0 l/m² 18,6 km/h (3 Bft) W-SW 254 ° 0 min 0 W/m² -2,8 °C -7,6 °C 32,2 km/h (5 Bft)
11.01.2021 17:53 23,0 °C 1,1 °C 39 % 75 % 1016,3 hPa 0,0 l/m² 19,4 km/h (3 Bft) SW 226 ° 0 min 0 W/m² -2,8 °C -7,9 °C 32,2 km/h (5 Bft)
11.01.2021 17:54 23,0 °C 1,1 °C 39 % 75 % 1016,2 hPa 0,0 l/m² 18,3 km/h (3 Bft) SW 223 ° 0 min 0 W/m² -2,8 °C -7,4 °C 27,4 km/h (5 Bft)
11.01.2021 17:56 23,0 °C 1,1 °C 39 % 75 % 1016,2 hPa 0,0 l/m² 17,5 km/h (3 Bft) S-SW 207 ° 0 min 0 W/m² -2,8 °C -7,0 °C 24,1 km/h (4 Bft)
11.01.2021 17:58 23,0 °C 1,1 °C 39 % 75 % 1016,1 hPa 0,0 l/m² 17,9 km/h (3 Bft) S-SW 200 ° 0 min 0 W/m² -2,8 °C -7,2 °C 22,5 km/h (4 Bft)
11.01.2021 18:00 23,0 °C 1,1 °C 39 % 75 % 1016,2 hPa 0,0 l/m² 11,6 km/h (2 Bft) S-SW 209 ° 0 min 0 W/m² -2,8 °C -3,5 °C 17,7 km/h (3 Bft)
11.01.2021 18:02 23,0 °C 1,1 °C 39 % 75 % 1016,2 hPa 0,0 l/m² 17,5 km/h (3 Bft) S-SW 198 ° 0 min 0 W/m² -2,8 °C -7,0 °C 27,4 km/h (5 Bft)
11.01.2021 18:03 23,0 °C 1,1 °C 39 % 75 % 1016,2 hPa 0,0 l/m² 18,6 km/h (3 Bft) S-SW 206 ° 0 min 0 W/m² -2,8 °C -7,6 °C 24,1 km/h (4 Bft)
11.01.2021 18:04 23,0 °C 1,1 °C 39 % 75 % 1016,1 hPa 0,0 l/m² 17,0 km/h (3 Bft) S-SW 212 ° 0 min 0 W/m² -2,8 °C -6,8 °C 25,7 km/h (4 Bft)
11.01.2021 18:06 23,0 °C 1,1 °C 39 % 75 % 1016,1 hPa 0,0 l/m² 14,6 km/h (3 Bft) S-SW 202 ° 0 min 0 W/m² -2,8 °C -5,4 °C 19,3 km/h (3 Bft)
11.01.2021 18:08 23,0 °C 1,1 °C 39 % 75 % 1016,2 hPa 0,0 l/m² 13,9 km/h (3 Bft) S-SW 200 ° 0 min 0 W/m² -2,8 °C -5,0 °C 17,7 km/h (3 Bft)
11.01.2021 18:10 23,0 °C 1,1 °C 39 % 75 % 1016,1 hPa 0,0 l/m² 11,3 km/h (2 Bft) S 189 ° 0 min 0 W/m² -2,8 °C -3,2 °C 16,1 km/h (3 Bft)
11.01.2021 18:12 22,9 °C 1,1 °C 39 % 76 % 1016,1 hPa 0,0 l/m² 16,1 km/h (3 Bft) S-SW 198 ° 0 min 0 W/m² -2,6 °C -6,3 °C 22,5 km/h (4 Bft)
11.01.2021 18:13 22,9 °C 1,1 °C 39 % 75 % 1016,1 hPa 0,0 l/m² 15,1 km/h (3 Bft) S-SW 206 ° 0 min 0 W/m² -2,8 °C -5,7 °C 17,7 km/h (3 Bft)
11.01.2021 18:14 23,0 °C 1,1 °C 39 % 75 % 1016,1 hPa 0,0 l/m² 13,8 km/h (3 Bft) S-SW 200 ° 0 min 0 W/m² -2,8 °C -4,9 °C 17,7 km/h (3 Bft)
11.01.2021 18:16 22,9 °C 1,2 °C 38 % 76 % 1016,0 hPa 0,0 l/m² 11,8 km/h (2 Bft) SW 215 ° 0 min 0 W/m² -2,5 °C -3,5 °C 17,7 km/h (3 Bft)
11.01.2021 18:18 22,9 °C 1,2 °C 38 % 76 % 1016,1 hPa 0,0 l/m² 11,6 km/h (2 Bft) SW 215 ° 0 min 0 W/m² -2,5 °C -3,3 °C 17,7 km/h (3 Bft)
11.01.2021 18:20 23,0 °C 1,2 °C 38 % 76 % 1016,1 hPa 0,0 l/m² 12,0 km/h (2 Bft) S-SW 192 ° 0 min 0 W/m² -2,5 °C -3,6 °C 16,1 km/h (3 Bft)
11.01.2021 18:22 23,0 °C 1,2 °C 39 % 76 % 1015,8 hPa 0,0 l/m² 9,5 km/h (2 Bft) S-SW 213 ° 0 min 0 W/m² -2,5 °C -1,7 °C 14,5 km/h (3 Bft)
11.01.2021 18:23 23,0 °C 1,2 °C 39 % 76 % 1015,8 hPa 0,0 l/m² 10,5 km/h (2 Bft) S 188 ° 0 min 0 W/m² -2,5 °C -2,5 °C 14,5 km/h (3 Bft)
11.01.2021 18:24 23,0 °C 1,2 °C 39 % 76 % 1016,0 hPa 0,0 l/m² 11,9 km/h (2 Bft) S-SW 202 ° 0 min 0 W/m² -2,5 °C -3,5 °C 14,5 km/h (3 Bft)
11.01.2021 18:26 23,0 °C 1,2 °C 38 % 76 % 1016,0 hPa 0,0 l/m² 10,0 km/h (2 Bft) S 184 ° 0 min 0 W/m² -2,5 °C -2,1 °C 12,9 km/h (3 Bft)
11.01.2021 18:28 23,0 °C 1,2 °C 38 % 76 % 1016,1 hPa 0,0 l/m² 10,0 km/h (2 Bft) S-SW 200 ° 0 min 0 W/m² -2,5 °C -2,1 °C 14,5 km/h (3 Bft)
11.01.2021 18:30 23,0 °C 1,2 °C 38 % 76 % 1016,1 hPa 0,0 l/m² 6,4 km/h (2 Bft) S-SW 198 ° 0 min 0 W/m² -2,5 °C 1,2 °C 9,7 km/h (2 Bft)
11.01.2021 18:32 23,0 °C 1,2 °C 38 % 76 % 1016,1 hPa 0,0 l/m² 10,8 km/h (2 Bft) S-SW 198 ° 0 min 0 W/m² -2,5 °C -2,7 °C 16,1 km/h (3 Bft)
11.01.2021 18:33 23,0 °C 1,2 °C 38 % 76 % 1016,1 hPa 0,0 l/m² 9,9 km/h (2 Bft) SW 229 ° 0 min 0 W/m² -2,5 °C -2,0 °C 12,9 km/h (3 Bft)
11.01.2021 18:34 23,0 °C 1,2 °C 38 % 77 % 1016,0 hPa 0,0 l/m² 9,9 km/h (2 Bft) S-SW 207 ° 0 min 0 W/m² -2,4 °C -2,0 °C 12,9 km/h (3 Bft)
11.01.2021 18:36 23,0 °C 1,2 °C 38 % 77 % 1016,1 hPa 0,0 l/m² 9,8 km/h (2 Bft) SW 223 ° 0 min 0 W/m² -2,4 °C -2,0 °C 14,5 km/h (3 Bft)
11.01.2021 18:38 23,0 °C 1,2 °C 38 % 77 % 1016,0 hPa 0,0 l/m² 10,5 km/h (2 Bft) S-SW 195 ° 0 min 0 W/m² -2,4 °C -2,5 °C 14,5 km/h (3 Bft)
11.01.2021 18:40 23,0 °C 1,2 °C 39 % 77 % 1015,9 hPa 0,0 l/m² 11,1 km/h (2 Bft) S-SW 205 ° 0 min 0 W/m² -2,4 °C -3,0 °C 14,5 km/h (3 Bft)
11.01.2021 18:42 23,0 °C 1,2 °C 39 % 77 % 1016,0 hPa 0,0 l/m² 8,8 km/h (2 Bft) S-SW 213 ° 0 min 0 W/m² -2,4 °C -1,1 °C 12,9 km/h (3 Bft)
11.01.2021 18:43 23,0 °C 1,2 °C 39 % 77 % 1016,0 hPa 0,0 l/m² 9,5 km/h (2 Bft) S-SW 207 ° 0 min 0 W/m² -2,4 °C -1,7 °C 12,9 km/h (3 Bft)
11.01.2021 18:45 23,0 °C 1,2 °C 39 % 77 % 1015,9 hPa 0,0 l/m² 10,2 km/h (2 Bft) SW 214 ° 0 min 0 W/m² -2,4 °C -2,3 °C 14,5 km/h (3 Bft)
11.01.2021 18:47 23,0 °C 1,2 °C 39 % 77 % 1015,9 hPa 0,0 l/m² 12,8 km/h (3 Bft) SW 219 ° 0 min 0 W/m² -2,4 °C -4,2 °C 17,7 km/h (3 Bft)
11.01.2021 18:49 23,0 °C 1,2 °C 39 % 77 % 1015,9 hPa 0,0 l/m² 14,1 km/h (3 Bft) SW 227 ° 0 min 0 W/m² -2,4 °C -5,0 °C 19,3 km/h (3 Bft)
11.01.2021 18:51 23,0 °C 1,2 °C 39 % 77 % 1015,7 hPa 0,0 l/m² 11,2 km/h (2 Bft) S-SW 207 ° 0 min 0 W/m² -2,4 °C -3,0 °C 16,1 km/h (3 Bft)
11.01.2021 18:52 23,0 °C 1,2 °C 39 % 77 % 1015,7 hPa 0,0 l/m² 11,4 km/h (2 Bft) S-SW 201 ° 0 min 0 W/m² -2,4 °C -3,2 °C 12,9 km/h (3 Bft)
11.01.2021 18:53 23,0 °C 1,2 °C 39 % 77 % 1015,7 hPa 0,0 l/m² 9,3 km/h (2 Bft) S-SW 197 ° 0 min 0 W/m² -2,4 °C -1,5 °C 11,3 km/h (2 Bft)
11.01.2021 18:55 23,0 °C 1,2 °C 39 % 78 % 1015,8 hPa 0,0 l/m² 9,8 km/h (2 Bft) S-SW 192 ° 0 min 0 W/m² -2,2 °C -2,0 °C 12,9 km/h (3 Bft)
11.01.2021 18:57 23,1 °C 1,2 °C 39 % 78 % 1015,8 hPa 0,0 l/m² 10,9 km/h (2 Bft) S 182 ° 0 min 0 W/m² -2,2 °C -2,8 °C 16,1 km/h (3 Bft)
11.01.2021 18:59 23,0 °C 1,2 °C 40 % 78 % 1015,7 hPa 0,0 l/m² 10,6 km/h (2 Bft) S 176 ° 0 min 0 W/m² -2,2 °C -2,6 °C 14,5 km/h (3 Bft)
11.01.2021 19:01 23,1 °C 1,2 °C 40 % 78 % 1015,8 hPa 0,0 l/m² 9,1 km/h (2 Bft) S-SW 203 ° 0 min 0 W/m² -2,2 °C -1,4 °C 12,9 km/h (3 Bft)
11.01.2021 19:02 23,1 °C 1,2 °C 40 % 78 % 1015,8 hPa 0,0 l/m² 10,3 km/h (2 Bft) S-SW 198 ° 0 min 0 W/m² -2,2 °C -2,4 °C 11,3 km/h (2 Bft)
11.01.2021 19:03 23,0 °C 1,1 °C 40 % 78 % 1015,8 hPa 0,0 l/m² 8,2 km/h (2 Bft) S-SW 192 ° 0 min 0 W/m² -2,3 °C -0,7 °C 9,7 km/h (2 Bft)
11.01.2021 19:05 23,0 °C 1,1 °C 40 % 78 % 1015,8 hPa 0,0 l/m² 10,4 km/h (2 Bft) S-SW 201 ° 0 min 0 W/m² -2,3 °C -2,6 °C 12,9 km/h (3 Bft)
11.01.2021 19:07 23,0 °C 1,2 °C 40 % 78 % 1015,7 hPa 0,0 l/m² 8,3 km/h (2 Bft) S 173 ° 0 min 0 W/m² -2,2 °C -0,7 °C 12,9 km/h (3 Bft)
11.01.2021 19:09 23,0 °C 1,1 °C 40 % 77 % 1015,7 hPa 0,0 l/m² 7,1 km/h (2 Bft) S-SW 206 ° 0 min 0 W/m² -2,5 °C 0,4 °C 11,3 km/h (2 Bft)
11.01.2021 19:11 23,0 °C 1,1 °C 40 % 78 % 1015,8 hPa 0,0 l/m² 6,4 km/h (2 Bft) S 186 ° 0 min 0 W/m² -2,3 °C 1,1 °C 9,7 km/h (2 Bft)
11.01.2021 19:12 23,0 °C 1,1 °C 40 % 78 % 1015,8 hPa 0,0 l/m² 7,6 km/h (2 Bft) S-SW 201 ° 0 min 0 W/m² -2,3 °C -0,1 °C 11,3 km/h (2 Bft)
11.01.2021 19:13 23,1 °C 1,1 °C 40 % 78 % 1015,8 hPa 0,0 l/m² 3,8 km/h (1 Bft) S-SW 202 ° 0 min 0 W/m² -2,3 °C 1,1 °C 4,8 km/h (1 Bft)
11.01.2021 19:15 23,0 °C 1,2 °C 40 % 78 % 1015,8 hPa 0,0 l/m² 5,5 km/h (2 Bft) SW 217 ° 0 min 0 W/m² -2,2 °C 1,2 °C 6,4 km/h (2 Bft)
11.01.2021 19:17 23,0 °C 1,2 °C 40 % 78 % 1015,7 hPa 0,0 l/m² 6,0 km/h (2 Bft) S-SW 200 ° 0 min 0 W/m² -2,2 °C 1,2 °C 8,0 km/h (2 Bft)
11.01.2021 19:19 23,0 °C 1,2 °C 40 % 78 % 1015,7 hPa 0,0 l/m² 7,4 km/h (2 Bft) SW 214 ° 0 min 0 W/m² -2,2 °C 0,2 °C 9,7 km/h (2 Bft)
11.01.2021 19:21 23,0 °C 1,2 °C 40 % 78 % 1015,6 hPa 0,0 l/m² 7,0 km/h (2 Bft) S-SW 197 ° 0 min 0 W/m² -2,2 °C 0,6 °C 11,3 km/h (2 Bft)
11.01.2021 19:22 23,0 °C 1,1 °C 40 % 78 % 1015,6 hPa 0,0 l/m² 8,6 km/h (2 Bft) S-SW 213 ° 0 min 0 W/m² -2,3 °C -1,0 °C 11,3 km/h (2 Bft)
11.01.2021 19:23 23,1 °C 1,2 °C 40 % 78 % 1015,7 hPa 0,0 l/m² 10,5 km/h (2 Bft) SW 217 ° 0 min 0 W/m² -2,2 °C -2,5 °C 14,5 km/h (3 Bft)
11.01.2021 19:25 23,0 °C 1,1 °C 40 % 78 % 1015,7 hPa 0,0 l/m² 9,0 km/h (2 Bft) S-SW 207 ° 0 min 0 W/m² -2,3 °C -1,4 °C 12,9 km/h (3 Bft)
11.01.2021 19:27 23,1 °C 1,2 °C 40 % 78 % 1015,6 hPa 0,0 l/m² 8,4 km/h (2 Bft) SW 222 ° 0 min 0 W/m² -2,2 °C -0,8 °C 11,3 km/h (2 Bft)
11.01.2021 19:29 23,0 °C 1,1 °C 40 % 78 % 1015,6 hPa 0,0 l/m² 10,0 km/h (2 Bft) S-SW 200 ° 0 min 0 W/m² -2,3 °C -2,2 °C 14,5 km/h (3 Bft)
11.01.2021 19:31 23,1 °C 1,2 °C 40 % 78 % 1015,5 hPa 0,0 l/m² 9,5 km/h (2 Bft) S-SW 204 ° 0 min 0 W/m² -2,2 °C -1,7 °C 16,1 km/h (3 Bft)
11.01.2021 19:32 23,1 °C 1,2 °C 40 % 78 % 1015,5 hPa 0,0 l/m² 10,2 km/h (2 Bft) S-SW 213 ° 0 min 0 W/m² -2,2 °C -2,3 °C 11,3 km/h (2 Bft)
11.01.2021 19:33 23,0 °C 1,2 °C 40 % 78 % 1015,6 hPa 0,0 l/m² 9,4 km/h (2 Bft) S 178 ° 0 min 0 W/m² -2,2 °C -1,6 °C 12,9 km/h (3 Bft)
11.01.2021 19:35 23,1 °C 1,2 °C 40 % 78 % 1015,6 hPa 0,0 l/m² 8,3 km/h (2 Bft) S 190 ° 0 min 0 W/m² -2,2 °C -0,7 °C 11,3 km/h (2 Bft)
11.01.2021 19:37 23,1 °C 1,2 °C 40 % 78 % 1015,6 hPa 0,0 l/m² 7,8 km/h (2 Bft) S 188 ° 0 min 0 W/m² -2,2 °C -0,2 °C 11,3 km/h (2 Bft)
11.01.2021 19:39 23,1 °C 1,2 °C 40 % 78 % 1015,5 hPa 0,0 l/m² 8,4 km/h (2 Bft) S 175 ° 0 min 0 W/m² -2,2 °C -0,8 °C 11,3 km/h (2 Bft)
11.01.2021 19:41 23,0 °C 1,2 °C 40 % 78 % 1015,5 hPa 0,0 l/m² 6,8 km/h (2 Bft) S 184 ° 0 min 0 W/m² -2,2 °C 0,8 °C 9,7 km/h (2 Bft)
11.01.2021 19:42 23,0 °C 1,2 °C 40 % 78 % 1015,5 hPa 0,0 l/m² 8,7 km/h (2 Bft) S-SW 209 ° 0 min 0 W/m² -2,2 °C -1,0 °C 11,3 km/h (2 Bft)
11.01.2021 19:43 23,1 °C 1,2 °C 40 % 78 % 1015,5 hPa 0,0 l/m² 8,0 km/h (2 Bft) S 187 ° 0 min 0 W/m² -2,2 °C -0,4 °C 11,3 km/h (2 Bft)
11.01.2021 19:45 23,0 °C 1,1 °C 40 % 78 % 1015,5 hPa 0,0 l/m² 12,3 km/h (2 Bft) S 175 ° 0 min 0 W/m² -2,3 °C -3,9 °C 17,7 km/h (3 Bft)
11.01.2021 19:47 23,0 °C 1,1 °C 40 % 78 % 1015,3 hPa 0,0 l/m² 13,6 km/h (3 Bft) S 183 ° 0 min 0 W/m² -2,3 °C -4,8 °C 17,7 km/h (3 Bft)
11.01.2021 19:49 23,0 °C 1,1 °C 40 % 77 % 1015,3 hPa 0,0 l/m² 12,0 km/h (2 Bft) S 182 ° 0 min 0 W/m² -2,5 °C -3,7 °C 17,7 km/h (3 Bft)
11.01.2021 19:51 23,0 °C 1,1 °C 40 % 77 % 1015,3 hPa 0,0 l/m² 8,9 km/h (2 Bft) S 178 ° 0 min 0 W/m² -2,5 °C -1,3 °C 16,1 km/h (3 Bft)
11.01.2021 19:52 23,0 °C 1,1 °C 40 % 77 % 1015,3 hPa 0,0 l/m² 11,6 km/h (2 Bft) S-SO 165 ° 0 min 0 W/m² -2,5 °C -3,5 °C 16,1 km/h (3 Bft)
11.01.2021 19:53 23,0 °C 1,1 °C 40 % 77 % 1015,3 hPa 0,0 l/m² 8,7 km/h (2 Bft) S 183 ° 0 min 0 W/m² -2,5 °C -1,1 °C 11,3 km/h (2 Bft)
11.01.2021 19:55 23,0 °C 1,0 °C 40 % 77 % 1015,3 hPa 0,0 l/m² 10,7 km/h (2 Bft) S 180 ° 0 min 0 W/m² -2,6 °C -2,9 °C 16,1 km/h (3 Bft)
11.01.2021 19:57 23,0 °C 1,0 °C 40 % 77 % 1015,2 hPa 0,0 l/m² 9,9 km/h (2 Bft) S 178 ° 0 min 0 W/m² -2,6 °C -2,3 °C 14,5 km/h (3 Bft)
11.01.2021 19:59 23,0 °C 1,0 °C 40 % 77 % 1015,3 hPa 0,0 l/m² 8,7 km/h (2 Bft) S 173 ° 0 min 0 W/m² -2,6 °C -1,2 °C 12,9 km/h (3 Bft)
11.01.2021 20:01 23,0 °C 0,9 °C 40 % 77 % 1015,2 hPa 0,0 l/m² 10,8 km/h (2 Bft) S-SW 200 ° 0 min 0 W/m² -2,7 °C -3,1 °C 17,7 km/h (3 Bft)
11.01.2021 20:02 23,0 °C 0,9 °C 40 % 77 % 1015,2 hPa 0,0 l/m² 10,6 km/h (2 Bft) S 182 ° 0 min 0 W/m² -2,7 °C -2,9 °C 14,5 km/h (3 Bft)
11.01.2021 20:03 22,9 °C 0,9 °C 40 % 77 % 1015,2 hPa 0,0 l/m² 9,7 km/h (2 Bft) S-SW 192 ° 0 min 0 W/m² -2,7 °C -2,2 °C 12,9 km/h (3 Bft)
11.01.2021 20:05 23,0 °C 0,9 °C 40 % 77 % 1015,2 hPa 0,0 l/m² 8,4 km/h (2 Bft) S 178 ° 0 min 0 W/m² -2,7 °C -1,1 °C 11,3 km/h (2 Bft)
11.01.2021 20:07 23,0 °C 0,9 °C 40 % 77 % 1015,1 hPa 0,0 l/m² 7,6 km/h (2 Bft) S-SW 199 ° 0 min 0 W/m² -2,7 °C -0,3 °C 11,3 km/h (2 Bft)
11.01.2021 20:09 23,0 °C 0,9 °C 40 % 77 % 1015,1 hPa 0,0 l/m² 8,4 km/h (2 Bft) S-SW 202 ° 0 min 0 W/m² -2,7 °C -1,1 °C 12,9 km/h (3 Bft)
11.01.2021 20:11 23,0 °C 0,9 °C 40 % 78 % 1015,1 hPa 0,0 l/m² 7,1 km/h (2 Bft) S-SW 195 ° 0 min 0 W/m² -2,5 °C 0,2 °C 9,7 km/h (2 Bft)
11.01.2021 20:12 23,0 °C 0,9 °C 40 % 78 % 1015,1 hPa 0,0 l/m² 7,3 km/h (2 Bft) S 178 ° 0 min 0 W/m² -2,5 °C -0,0 °C 9,7 km/h (2 Bft)
11.01.2021 20:13 23,0 °C 0,9 °C 40 % 78 % 1015,0 hPa 0,0 l/m² 9,3 km/h (2 Bft) S 177 ° 0 min 0 W/m² -2,5 °C -1,9 °C 14,5 km/h (3 Bft)
11.01.2021 20:15 23,0 °C 0,8 °C 40 % 78 % 1014,9 hPa 0,0 l/m² 9,7 km/h (2 Bft) S 174 ° 0 min 0 W/m² -2,6 °C -2,3 °C 12,9 km/h (3 Bft)
11.01.2021 20:17 23,0 °C 0,8 °C 40 % 77 % 1015,0 hPa 0,0 l/m² 7,6 km/h (2 Bft) S 175 ° 0 min 0 W/m² -2,8 °C -0,4 °C 11,3 km/h (2 Bft)
11.01.2021 20:19 23,0 °C 0,8 °C 40 % 78 % 1014,9 hPa 0,0 l/m² 8,8 km/h (2 Bft) S-SO 161 ° 0 min 0 W/m² -2,6 °C -1,5 °C 14,5 km/h (3 Bft)
11.01.2021 20:21 23,0 °C 0,8 °C 41 % 78 % 1014,9 hPa 0,0 l/m² 9,5 km/h (2 Bft) S-SW 196 ° 0 min 0 W/m² -2,6 °C -2,2 °C 12,9 km/h (3 Bft)
11.01.2021 20:22 23,0 °C 0,8 °C 41 % 78 % 1014,9 hPa 0,0 l/m² 10,9 km/h (2 Bft) S 180 ° 0 min 0 W/m² -2,6 °C -3,3 °C 14,5 km/h (3 Bft)
11.01.2021 20:23 23,0 °C 0,8 °C 41 % 78 % 1014,9 hPa 0,0 l/m² 8,1 km/h (2 Bft) S 187 ° 0 min 0 W/m² -2,6 °C -0,9 °C 11,3 km/h (2 Bft)
11.01.2021 20:25 23,0 °C 0,8 °C 42 % 78 % 1015,0 hPa 0,0 l/m² 9,2 km/h (2 Bft) S-SW 198 ° 0 min 0 W/m² -2,6 °C -1,9 °C 12,9 km/h (3 Bft)
11.01.2021 20:27 23,1 °C 0,8 °C 42 % 78 % 1015,0 hPa 0,0 l/m² 7,4 km/h (2 Bft) S-SW 207 ° 0 min 0 W/m² -2,6 °C -0,2 °C 11,3 km/h (2 Bft)
11.01.2021 20:29 23,1 °C 0,8 °C 42 % 78 % 1015,0 hPa 0,0 l/m² 11,4 km/h (2 Bft) S-SW 198 ° 0 min 0 W/m² -2,6 °C -3,6 °C 16,1 km/h (3 Bft)
11.01.2021 20:31 23,1 °C 0,8 °C 43 % 78 % 1014,7 hPa 0,0 l/m² 9,6 km/h (2 Bft) S 188 ° 0 min 0 W/m² -2,6 °C -2,2 °C 12,9 km/h (3 Bft)
11.01.2021 20:32 23,1 °C 0,8 °C 43 % 78 % 1014,7 hPa 0,0 l/m² 8,1 km/h (2 Bft) S 178 ° 0 min 0 W/m² -2,6 °C -0,9 °C 9,7 km/h (2 Bft)
11.01.2021 20:33 23,1 °C 0,8 °C 43 % 78 % 1014,8 hPa 0,0 l/m² 9,7 km/h (2 Bft) S-SW 196 ° 0 min 0 W/m² -2,6 °C -2,3 °C 14,5 km/h (3 Bft)
11.01.2021 20:35 23,1 °C 0,8 °C 43 % 78 % 1014,7 hPa 0,0 l/m² 11,7 km/h (2 Bft) S 188 ° 0 min 0 W/m² -2,6 °C -3,9 °C 16,1 km/h (3 Bft)
11.01.2021 20:37 23,1 °C 0,8 °C 43 % 79 % 1014,6 hPa 0,0 l/m² 12,9 km/h (3 Bft) S-SW 192 ° 0 min 0 W/m² -2,4 °C -4,7 °C 16,1 km/h (3 Bft)
11.01.2021 20:39 23,1 °C 0,8 °C 43 % 79 % 1014,5 hPa 0,0 l/m² 13,9 km/h (3 Bft) S-SW 205 ° 0 min 0 W/m² -2,4 °C -5,3 °C 17,7 km/h (3 Bft)
11.01.2021 20:41 23,1 °C 0,9 °C 43 % 79 % 1014,6 hPa 0,0 l/m² 11,8 km/h (2 Bft) S-SW 207 ° 0 min 0 W/m² -2,3 °C -3,8 °C 14,5 km/h (3 Bft)
11.01.2021 20:42 23,1 °C 0,9 °C 43 % 79 % 1014,6 hPa 0,0 l/m² 11,3 km/h (2 Bft) S 172 ° 0 min 0 W/m² -2,3 °C -3,5 °C 14,5 km/h (3 Bft)
11.01.2021 20:43 23,2 °C 0,9 °C 43 % 79 % 1014,6 hPa 0,0 l/m² 8,9 km/h (2 Bft) S-SW 202 ° 0 min 0 W/m² -2,3 °C -1,5 °C 11,3 km/h (2 Bft)
11.01.2021 20:45 23,2 °C 0,9 °C 43 % 79 % 1014,5 hPa 0,0 l/m² 11,7 km/h (2 Bft) S-SW 207 ° 0 min 0 W/m² -2,3 °C -3,8 °C 16,1 km/h (3 Bft)
11.01.2021 20:47 23,2 °C 0,9 °C 43 % 79 % 1014,5 hPa 0,0 l/m² 11,7 km/h (2 Bft) S-SW 196 ° 0 min 0 W/m² -2,3 °C -3,8 °C 16,1 km/h (3 Bft)
11.01.2021 20:49 23,2 °C 0,9 °C 43 % 79 % 1014,5 hPa 0,0 l/m² 9,9 km/h (2 Bft) S-SW 203 ° 0 min 0 W/m² -2,3 °C -2,4 °C 14,5 km/h (3 Bft)
11.01.2021 20:51 23,2 °C 0,9 °C 43 % 78 % 1014,5 hPa 0,0 l/m² 9,8 km/h (2 Bft) S 181 ° 0 min 0 W/m² -2,5 °C -2,3 °C 14,5 km/h (3 Bft)
11.01.2021 20:52 23,2 °C 1,0 °C 43 % 78 % 1014,5 hPa 0,0 l/m² 6,8 km/h (2 Bft) S 181 ° 0 min 0 W/m² -2,4 °C 0,6 °C 9,7 km/h (2 Bft)
11.01.2021 20:53 23,2 °C 1,0 °C 43 % 78 % 1014,4 hPa 0,0 l/m² 6,6 km/h (2 Bft) S 178 ° 0 min 0 W/m² -2,4 °C 0,8 °C 9,7 km/h (2 Bft)
11.01.2021 20:55 23,2 °C 1,0 °C 43 % 78 % 1014,6 hPa 0,0 l/m² 7,3 km/h (2 Bft) S-SW 200 ° 0 min 0 W/m² -2,4 °C 0,1 °C 14,5 km/h (3 Bft)
11.01.2021 20:57 23,3 °C 1,0 °C 43 % 78 % 1014,4 hPa 0,0 l/m² 9,6 km/h (2 Bft) S-SW 192 ° 0 min 0 W/m² -2,4 °C -2,0 °C 14,5 km/h (3 Bft)
11.01.2021 20:59 23,3 °C 1,0 °C 42 % 78 % 1014,5 hPa 0,0 l/m² 6,5 km/h (2 Bft) S 189 ° 0 min 0 W/m² -2,4 °C 0,9 °C 11,3 km/h (2 Bft)
11.01.2021 21:01 23,3 °C 1,0 °C 42 % 78 % 1014,5 hPa 0,0 l/m² 7,3 km/h (2 Bft) S 177 ° 0 min 0 W/m² -2,4 °C 0,1 °C 11,3 km/h (2 Bft)
11.01.2021 21:02 23,3 °C 1,0 °C 42 % 79 % 1014,5 hPa 0,0 l/m² 8,1 km/h (2 Bft) S 186 ° 0 min 0 W/m² -2,2 °C -0,7 °C 9,7 km/h (2 Bft)
11.01.2021 21:03 23,3 °C 1,0 °C 42 % 79 % 1014,5 hPa 0,0 l/m² 7,3 km/h (2 Bft) S 172 ° 0 min 0 W/m² -2,2 °C 0,1 °C 12,9 km/h (3 Bft)
11.01.2021 21:05 23,3 °C 1,0 °C 42 % 79 % 1014,6 hPa 0,0 l/m² 7,1 km/h (2 Bft) S 188 ° 0 min 0 W/m² -2,2 °C 0,3 °C 12,9 km/h (3 Bft)
11.01.2021 21:07 23,3 °C 1,0 °C 42 % 79 % 1014,7 hPa 0,0 l/m² 5,2 km/h (1 Bft) S-SW 192 ° 0 min 0 W/m² -2,2 °C 1,0 °C 8,0 km/h (2 Bft)
11.01.2021 21:09 23,3 °C 1,0 °C 42 % 79 % 1014,7 hPa 0,0 l/m² 4,9 km/h (1 Bft) S-SW 205 ° 0 min 0 W/m² -2,2 °C 1,0 °C 6,4 km/h (2 Bft)
11.01.2021 21:11 23,3 °C 1,0 °C 42 % 79 % 1014,7 hPa 0,0 l/m² 9,1 km/h (2 Bft) S-SW 205 ° 0 min 0 W/m² -2,2 °C -1,6 °C 14,5 km/h (3 Bft)
11.01.2021 21:12 23,3 °C 1,0 °C 42 % 79 % 1014,7 hPa 0,0 l/m² 10,8 km/h (2 Bft) S 186 ° 0 min 0 W/m² -2,2 °C -3,0 °C 12,9 km/h (3 Bft)
11.01.2021 21:13 23,3 °C 1,0 °C 42 % 79 % 1014,7 hPa 0,0 l/m² 9,7 km/h (2 Bft) S-SW 207 ° 0 min 0 W/m² -2,2 °C -2,1 °C 11,3 km/h (2 Bft)
11.01.2021 21:15 23,3 °C 1,0 °C 43 % 79 % 1014,6 hPa 0,0 l/m² 10,2 km/h (2 Bft) S-SW 201 ° 0 min 0 W/m² -2,2 °C -2,5 °C 12,9 km/h (3 Bft)
11.01.2021 21:17 23,4 °C 1,0 °C 43 % 79 % 1014,5 hPa 0,0 l/m² 10,0 km/h (2 Bft) S 183 ° 0 min 0 W/m² -2,2 °C -2,3 °C 14,5 km/h (3 Bft)
11.01.2021 21:19 23,4 °C 1,1 °C 43 % 79 % 1014,4 hPa 0,0 l/m² 9,2 km/h (2 Bft) S 182 ° 0 min 0 W/m² -2,1 °C -1,6 °C 12,9 km/h (3 Bft)
11.01.2021 21:21 23,4 °C 1,1 °C 43 % 79 % 1014,5 hPa 0,0 l/m² 7,2 km/h (2 Bft) S 179 ° 0 min 0 W/m² -2,1 °C 0,3 °C 9,7 km/h (2 Bft)
11.01.2021 21:22 23,4 °C 1,1 °C 43 % 79 % 1014,5 hPa 0,0 l/m² 5,0 km/h (1 Bft) S 180 ° 0 min 0 W/m² -2,1 °C 1,1 °C 6,4 km/h (2 Bft)
11.01.2021 21:23 23,4 °C 1,1 °C 43 % 79 % 1014,4 hPa 0,0 l/m² 8,3 km/h (2 Bft) S 190 ° 0 min 0 W/m² -2,1 °C -0,8 °C 12,9 km/h (3 Bft)
11.01.2021 21:25 23,4 °C 1,1 °C 43 % 79 % 1014,4 hPa 0,0 l/m² 6,8 km/h (2 Bft) S 188 ° 0 min 0 W/m² -2,1 °C 0,7 °C 11,3 km/h (2 Bft)
11.01.2021 21:27 23,4 °C 1,1 °C 43 % 79 % 1014,4 hPa 0,0 l/m² 12,0 km/h (2 Bft) S-SW 213 ° 0 min 0 W/m² -2,1 °C -3,7 °C 17,7 km/h (3 Bft)
11.01.2021 21:29 23,5 °C 1,1 °C 43 % 79 % 1014,4 hPa 0,0 l/m² 11,6 km/h (2 Bft) S-SW 199 ° 0 min 0 W/m² -2,1 °C -3,5 °C 16,1 km/h (3 Bft)
11.01.2021 21:31 23,4 °C 1,1 °C 43 % 80 % 1014,4 hPa 0,0 l/m² 6,8 km/h (2 Bft) S-SW 200 ° 0 min 0 W/m² -2,0 °C 0,7 °C 9,7 km/h (2 Bft)
11.01.2021 21:32 23,4 °C 1,1 °C 43 % 80 % 1014,4 hPa 0,0 l/m² 7,1 km/h (2 Bft) S 189 ° 0 min 0 W/m² -2,0 °C 0,4 °C 9,7 km/h (2 Bft)
11.01.2021 21:33 23,5 °C 1,1 °C 43 % 80 % 1014,4 hPa 0,0 l/m² 9,6 km/h (2 Bft) S-SW 209 ° 0 min 0 W/m² -2,0 °C -1,9 °C 12,9 km/h (3 Bft)
11.01.2021 21:35 23,4 °C 1,1 °C 43 % 80 % 1014,3 hPa 0,0 l/m² 11,4 km/h (2 Bft) SW 223 ° 0 min 0 W/m² -2,0 °C -3,3 °C 16,1 km/h (3 Bft)
11.01.2021 21:37 23,5 °C 1,1 °C 43 % 80 % 1014,2 hPa 0,0 l/m² 11,1 km/h (2 Bft) S-SW 207 ° 0 min 0 W/m² -2,0 °C -3,1 °C 16,1 km/h (3 Bft)
11.01.2021 21:39 23,5 °C 1,2 °C 43 % 80 % 1014,3 hPa 0,0 l/m² 12,3 km/h (2 Bft) S-SW 208 ° 0 min 0 W/m² -1,9 °C -3,8 °C 16,1 km/h (3 Bft)
11.01.2021 21:41 23,6 °C 1,2 °C 43 % 80 % 1014,2 hPa 0,0 l/m² 9,0 km/h (2 Bft) S 186 ° 0 min 0 W/m² -1,9 °C -1,3 °C 12,9 km/h (3 Bft)
11.01.2021 21:42 23,6 °C 1,2 °C 43 % 80 % 1014,2 hPa 0,0 l/m² 9,6 km/h (2 Bft) S-SW 204 ° 0 min 0 W/m² -1,9 °C -1,8 °C 12,9 km/h (3 Bft)
11.01.2021 21:43 23,6 °C 1,2 °C 43 % 80 % 1014,2 hPa 0,0 l/m² 10,9 km/h (2 Bft) S-SW 197 ° 0 min 0 W/m² -1,9 °C -2,8 °C 12,9 km/h (3 Bft)
11.01.2021 21:45 23,6 °C 1,2 °C 43 % 80 % 1014,0 hPa 0,0 l/m² 11,9 km/h (2 Bft) S-SW 194 ° 0 min 0 W/m² -1,9 °C -3,5 °C 16,1 km/h (3 Bft)
11.01.2021 21:47 23,6 °C 1,2 °C 43 % 80 % 1014,1 hPa 0,0 l/m² 9,5 km/h (2 Bft) S-SW 194 ° 0 min 0 W/m² -1,9 °C -1,7 °C 11,3 km/h (2 Bft)
11.01.2021 21:49 23,6 °C 1,3 °C 43 % 80 % 1013,9 hPa 0,0 l/m² 13,4 km/h (3 Bft) S-SW 203 ° 0 min 0 W/m² -1,8 °C -4,4 °C 17,7 km/h (3 Bft)
11.01.2021 21:51 23,6 °C 1,3 °C 41 % 80 % 1013,7 hPa 0,0 l/m² 13,7 km/h (3 Bft) S-SW 193 ° 0 min 0 W/m² -1,8 °C -4,6 °C 16,1 km/h (3 Bft)
11.01.2021 21:52 23,6 °C 1,3 °C 41 % 80 % 1013,7 hPa 0,0 l/m² 12,8 km/h (3 Bft) S-SW 196 ° 0 min 0 W/m² -1,8 °C -4,0 °C 14,5 km/h (3 Bft)
11.01.2021 21:53 23,6 °C 1,3 °C 40 % 80 % 1013,8 hPa 0,0 l/m² 13,3 km/h (3 Bft) S-SW 210 ° 0 min 0 W/m² -1,8 °C -4,4 °C 16,1 km/h (3 Bft)
11.01.2021 21:55 23,6 °C 1,3 °C 40 % 80 % 1013,7 hPa 0,0 l/m² 13,4 km/h (3 Bft) S 189 ° 0 min 0 W/m² -1,8 °C -4,4 °C 19,3 km/h (3 Bft)
11.01.2021 21:57 23,5 °C 1,3 °C 41 % 80 % 1013,6 hPa 0,0 l/m² 9,7 km/h (2 Bft) S-SW 193 ° 0 min 0 W/m² -1,8 °C -1,8 °C 14,5 km/h (3 Bft)
11.01.2021 21:59 23,5 °C 1,3 °C 41 % 80 % 1013,5 hPa 0,0 l/m² 11,3 km/h (2 Bft) S 187 ° 0 min 0 W/m² -1,8 °C -3,0 °C 19,3 km/h (3 Bft)
11.01.2021 22:01 23,6 °C 1,3 °C 41 % 80 % 1013,6 hPa 0,0 l/m² 9,2 km/h (2 Bft) S-SW 210 ° 0 min 0 W/m² -1,8 °C -1,4 °C 16,1 km/h (3 Bft)
11.01.2021 22:02 23,6 °C 1,3 °C 41 % 80 % 1013,6 hPa 0,0 l/m² 12,9 km/h (3 Bft) S-SO 167 ° 0 min 0 W/m² -1,8 °C -4,1 °C 14,5 km/h (3 Bft)
11.01.2021 22:04 23,5 °C 1,3 °C 41 % 80 % 1013,7 hPa 0,0 l/m² 9,1 km/h (2 Bft) S 170 ° 0 min 0 W/m² -1,8 °C -1,3 °C 14,5 km/h (3 Bft)
11.01.2021 22:06 23,5 °C 1,3 °C 41 % 80 % 1013,7 hPa 0,0 l/m² 13,5 km/h (3 Bft) S 171 ° 0 min 0 W/m² -1,8 °C -4,5 °C 17,7 km/h (3 Bft)
11.01.2021 22:08 23,6 °C 1,3 °C 42 % 80 % 1013,6 hPa 0,0 l/m² 12,2 km/h (2 Bft) S 175 ° 0 min 0 W/m² -1,8 °C -3,6 °C 17,7 km/h (3 Bft)
11.01.2021 22:10 23,6 °C 1,2 °C 42 % 80 % 1013,6 hPa 0,0 l/m² 9,6 km/h (2 Bft) S-SW 192 ° 0 min 0 W/m² -1,9 °C -1,8 °C 14,5 km/h (3 Bft)
11.01.2021 22:12 23,6 °C 1,2 °C 42 % 80 % 1013,6 hPa 0,0 l/m² 11,3 km/h (2 Bft) S 171 ° 0 min 0 W/m² -1,9 °C -3,1 °C 14,5 km/h (3 Bft)
11.01.2021 22:13 23,6 °C 1,2 °C 42 % 80 % 1013,6 hPa 0,0 l/m² 10,2 km/h (2 Bft) S 178 ° 0 min 0 W/m² -1,9 °C -2,3 °C 14,5 km/h (3 Bft)
11.01.2021 22:14 23,6 °C 1,2 °C 42 % 80 % 1013,6 hPa 0,0 l/m² 12,4 km/h (2 Bft) S-SO 165 ° 0 min 0 W/m² -1,9 °C -3,9 °C 17,7 km/h (3 Bft)
11.01.2021 22:16 23,6 °C 1,1 °C 42 % 80 % 1013,6 hPa 0,0 l/m² 9,8 km/h (2 Bft) S 169 ° 0 min 0 W/m² -2,0 °C -2,1 °C 14,5 km/h (3 Bft)
11.01.2021 22:18 23,6 °C 1,1 °C 42 % 80 % 1013,4 hPa 0,0 l/m² 12,7 km/h (3 Bft) S-SO 165 ° 0 min 0 W/m² -2,0 °C -4,2 °C 16,1 km/h (3 Bft)
11.01.2021 22:20 23,6 °C 1,1 °C 42 % 80 % 1013,4 hPa 0,0 l/m² 9,8 km/h (2 Bft) S-SO 168 ° 0 min 0 W/m² -2,0 °C -2,1 °C 14,5 km/h (3 Bft)
11.01.2021 22:22 23,6 °C 1,1 °C 42 % 80 % 1013,3 hPa 0,0 l/m² 9,8 km/h (2 Bft) S 179 ° 0 min 0 W/m² -2,0 °C -2,1 °C 14,5 km/h (3 Bft)
11.01.2021 22:23 23,6 °C 1,1 °C 42 % 80 % 1013,3 hPa 0,0 l/m² 7,7 km/h (2 Bft) S-SO 162 ° 0 min 0 W/m² -2,0 °C -0,2 °C 11,3 km/h (2 Bft)
11.01.2021 22:24 23,5 °C 1,1 °C 42 % 80 % 1013,2 hPa 0,0 l/m² 6,7 km/h (2 Bft) S-SO 165 ° 0 min 0 W/m² -2,0 °C 0,8 °C 8,0 km/h (2 Bft)
11.01.2021 22:26 23,6 °C 1,1 °C 42 % 80 % 1013,3 hPa 0,0 l/m² 7,8 km/h (2 Bft) S 171 ° 0 min 0 W/m² -2,0 °C -0,3 °C 11,3 km/h (2 Bft)
11.01.2021 22:28 23,6 °C 1,0 °C 42 % 81 % 1013,2 hPa 0,0 l/m² 9,4 km/h (2 Bft) S-SO 163 ° 0 min 0 W/m² -1,9 °C -1,9 °C 11,3 km/h (2 Bft)
11.01.2021 22:30 23,6 °C 0,9 °C 42 % 81 % 1013,2 hPa 0,0 l/m² 8,9 km/h (2 Bft) S-SO 159 ° 0 min 0 W/m² -2,0 °C -1,5 °C 11,3 km/h (2 Bft)
11.01.2021 22:32 23,6 °C 0,9 °C 42 % 80 % 1013,3 hPa 0,0 l/m² 8,0 km/h (2 Bft) S-SO 168 ° 0 min 0 W/m² -2,2 °C -0,7 °C 9,7 km/h (2 Bft)
11.01.2021 22:33 23,6 °C 0,9 °C 42 % 80 % 1013,3 hPa 0,0 l/m² 5,9 km/h (2 Bft) S 180 ° 0 min 0 W/m² -2,2 °C 0,9 °C 8,0 km/h (2 Bft)
11.01.2021 22:34 23,6 °C 0,9 °C 42 % 80 % 1013,3 hPa 0,0 l/m² 9,0 km/h (2 Bft) S 172 ° 0 min 0 W/m² -2,2 °C -1,6 °C 11,3 km/h (2 Bft)
11.01.2021 22:36 23,6 °C 0,8 °C 42 % 81 % 1013,4 hPa 0,0 l/m² 7,7 km/h (2 Bft) S-SW 197 ° 0 min 0 W/m² -2,1 °C -0,5 °C 9,7 km/h (2 Bft)
11.01.2021 22:38 23,6 °C 0,8 °C 42 % 81 % 1013,3 hPa 0,0 l/m² 9,3 km/h (2 Bft) S-SW 207 ° 0 min 0 W/m² -2,1 °C -2,0 °C 16,1 km/h (3 Bft)
11.01.2021 22:40 23,6 °C 0,7 °C 42 % 81 % 1013,2 hPa 0,0 l/m² 11,9 km/h (2 Bft) SW 217 ° 0 min 0 W/m² -2,2 °C -4,1 °C 17,7 km/h (3 Bft)
11.01.2021 22:42 23,5 °C 0,7 °C 42 % 81 % 1013,1 hPa 0,0 l/m² 14,6 km/h (3 Bft) S-SW 202 ° 0 min 0 W/m² -2,2 °C -5,9 °C 22,5 km/h (4 Bft)
11.01.2021 22:43 23,5 °C 0,7 °C 42 % 82 % 1013,1 hPa 0,0 l/m² 11,9 km/h (2 Bft) S-SW 200 ° 0 min 0 W/m² -2,0 °C -4,1 °C 16,1 km/h (3 Bft)
11.01.2021 22:44 23,5 °C 0,7 °C 42 % 82 % 1013,1 hPa 0,0 l/m² 11,8 km/h (2 Bft) S-SW 193 ° 0 min 0 W/m² -2,0 °C -4,1 °C 14,5 km/h (3 Bft)
11.01.2021 22:46 23,5 °C 0,8 °C 42 % 82 % 1013,2 hPa 0,0 l/m² 9,0 km/h (2 Bft) S 178 ° 0 min 0 W/m² -1,9 °C -1,7 °C 12,9 km/h (3 Bft)
11.01.2021 22:48 23,5 °C 0,8 °C 42 % 82 % 1013,1 hPa 0,0 l/m² 10,4 km/h (2 Bft) S 182 ° 0 min 0 W/m² -1,9 °C -2,9 °C 14,5 km/h (3 Bft)
11.01.2021 22:50 23,5 °C 0,8 °C 42 % 82 % 1013,2 hPa 0,0 l/m² 9,3 km/h (2 Bft) S-SO 168 ° 0 min 0 W/m² -1,9 °C -2,0 °C 12,9 km/h (3 Bft)
11.01.2021 22:52 23,5 °C 0,7 °C 42 % 82 % 1013,0 hPa 0,0 l/m² 8,2 km/h (2 Bft) S 189 ° 0 min 0 W/m² -2,0 °C -1,1 °C 14,5 km/h (3 Bft)
11.01.2021 22:53 23,5 °C 0,7 °C 42 % 82 % 1013,0 hPa 0,0 l/m² 9,8 km/h (2 Bft) S 186 ° 0 min 0 W/m² -2,0 °C -2,5 °C 12,9 km/h (3 Bft)
11.01.2021 22:54 23,5 °C 0,7 °C 42 % 82 % 1013,0 hPa 0,0 l/m² 7,4 km/h (2 Bft) S 188 ° 0 min 0 W/m² -2,0 °C -0,3 °C 11,3 km/h (2 Bft)
11.01.2021 22:56 23,5 °C 0,7 °C 42 % 82 % 1013,0 hPa 0,0 l/m² 9,7 km/h (2 Bft) S 175 ° 0 min 0 W/m² -2,0 °C -2,4 °C 14,5 km/h (3 Bft)
11.01.2021 22:58 23,5 °C 0,7 °C 42 % 82 % 1012,9 hPa 0,0 l/m² 8,9 km/h (2 Bft) S 185 ° 0 min 0 W/m² -2,0 °C -1,7 °C 14,5 km/h (3 Bft)
11.01.2021 23:00 23,5 °C 0,6 °C 42 % 82 % 1012,9 hPa 0,0 l/m² 7,6 km/h (2 Bft) S 178 ° 0 min 0 W/m² -2,1 °C -0,6 °C 11,3 km/h (2 Bft)
11.01.2021 23:02 23,4 °C 0,7 °C 42 % 82 % 1013,0 hPa 0,0 l/m² 8,8 km/h (2 Bft) S-SO 164 ° 0 min 0 W/m² -2,0 °C -1,7 °C 11,3 km/h (2 Bft)
11.01.2021 23:03 23,4 °C 0,7 °C 42 % 82 % 1013,0 hPa 0,0 l/m² 6,3 km/h (2 Bft) S-SO 163 ° 0 min 0 W/m² -2,0 °C 0,7 °C 8,0 km/h (2 Bft)
11.01.2021 23:04 23,5 °C 0,6 °C 42 % 82 % 1012,9 hPa 0,0 l/m² 7,2 km/h (2 Bft) S-SO 164 ° 0 min 0 W/m² -2,1 °C -0,2 °C 8,0 km/h (2 Bft)
11.01.2021 23:06 23,5 °C 0,6 °C 42 % 82 % 1012,9 hPa 0,0 l/m² 7,7 km/h (2 Bft) S-SO 161 ° 0 min 0 W/m² -2,1 °C -0,7 °C 9,7 km/h (2 Bft)
11.01.2021 23:08 23,4 °C 0,6 °C 42 % 82 % 1012,9 hPa 0,0 l/m² 7,5 km/h (2 Bft) S-SO 153 ° 0 min 0 W/m² -2,1 °C -0,5 °C 9,7 km/h (2 Bft)
11.01.2021 23:10 23,5 °C 0,6 °C 42 % 82 % 1012,7 hPa 0,0 l/m² 7,5 km/h (2 Bft) SO 144 ° 0 min 0 W/m² -2,1 °C -0,5 °C 9,7 km/h (2 Bft)
11.01.2021 23:12 23,5 °C 0,6 °C 42 % 82 % 1012,6 hPa 0,0 l/m² 9,7 km/h (2 Bft) S-SO 154 ° 0 min 0 W/m² -2,1 °C -2,5 °C 12,9 km/h (3 Bft)
11.01.2021 23:13 23,5 °C 0,6 °C 42 % 82 % 1012,6 hPa 0,0 l/m² 8,5 km/h (2 Bft) S-SO 150 ° 0 min 0 W/m² -2,1 °C -1,5 °C 11,3 km/h (2 Bft)
11.01.2021 23:14 23,4 °C 0,6 °C 42 % 82 % 1012,5 hPa 0,0 l/m² 10,7 km/h (2 Bft) SO 134 ° 0 min 0 W/m² -2,1 °C -3,3 °C 14,5 km/h (3 Bft)
11.01.2021 23:15 23,4 °C 0,6 °C 42 % 83 % 1012,4 hPa 0,0 l/m² 9,7 km/h (2 Bft) S-SO 157 ° 0 min 0 W/m² -1,9 °C -2,5 °C 12,9 km/h (3 Bft)
11.01.2021 23:16 23,4 °C 0,6 °C 42 % 83 % 1012,6 hPa 0,0 l/m² 9,7 km/h (2 Bft) S-SO 157 ° 0 min 0 W/m² -1,9 °C -2,5 °C 11,3 km/h (2 Bft)
11.01.2021 23:21 23,4 °C 0,7 °C 43 % 83 % 1012,7 hPa 0,0 l/m² 10,1 km/h (2 Bft) S-SO 153 ° 0 min 0 W/m² -1,8 °C -2,8 °C 12,9 km/h (3 Bft)
11.01.2021 23:23 23,4 °C 0,7 °C 43 % 83 % 1012,6 hPa 0,0 l/m² 10,8 km/h (2 Bft) S-SO 159 ° 0 min 0 W/m² -1,8 °C -3,3 °C 16,1 km/h (3 Bft)
11.01.2021 23:24 23,4 °C 0,7 °C 43 % 83 % 1012,6 hPa 0,0 l/m² 10,6 km/h (2 Bft) S-SO 149 ° 0 min 0 W/m² -1,8 °C -3,2 °C 12,9 km/h (3 Bft)
11.01.2021 23:25 23,4 °C 0,8 °C 43 % 83 % 1012,5 hPa 0,0 l/m² 11,3 km/h (2 Bft) S-SO 165 ° 0 min 0 W/m² -1,8 °C -3,6 °C 14,5 km/h (3 Bft)
11.01.2021 23:27 23,4 °C 0,8 °C 43 % 83 % 1012,5 hPa 0,0 l/m² 10,6 km/h (2 Bft) S-SO 163 ° 0 min 0 W/m² -1,8 °C -3,0 °C 14,5 km/h (3 Bft)
11.01.2021 23:29 23,4 °C 0,8 °C 43 % 83 % 1012,4 hPa 0,0 l/m² 12,2 km/h (2 Bft) S 173 ° 0 min 0 W/m² -1,8 °C -4,2 °C 17,7 km/h (3 Bft)
11.01.2021 23:30 23,4 °C 0,9 °C 43 % 83 % 1012,3 hPa 0,0 l/m² 10,0 km/h (2 Bft) S-SO 157 ° 0 min 0 W/m² -1,7 °C -2,5 °C 12,9 km/h (3 Bft)
11.01.2021 23:32 23,4 °C 0,9 °C 43 % 83 % 1012,3 hPa 0,0 l/m² 10,0 km/h (2 Bft) S-SO 158 ° 0 min 0 W/m² -1,7 °C -2,5 °C 17,7 km/h (3 Bft)
11.01.2021 23:33 23,4 °C 0,9 °C 43 % 83 % 1012,3 hPa 0,0 l/m² 11,0 km/h (2 Bft) S-SO 162 ° 0 min 0 W/m² -1,7 °C -3,2 °C 14,5 km/h (3 Bft)
11.01.2021 23:34 23,4 °C 1,0 °C 43 % 83 % 1012,3 hPa 0,0 l/m² 11,2 km/h (2 Bft) S-SO 160 ° 0 min 0 W/m² -1,6 °C -3,3 °C 12,9 km/h (3 Bft)
11.01.2021 23:36 23,4 °C 1,0 °C 43 % 83 % 1012,3 hPa 0,0 l/m² 10,8 km/h (2 Bft) S-SO 168 ° 0 min 0 W/m² -1,6 °C -3,0 °C 16,1 km/h (3 Bft)
11.01.2021 23:38 23,4 °C 1,1 °C 43 % 83 % 1012,3 hPa 0,0 l/m² 10,0 km/h (2 Bft) S-SO 161 ° 0 min 0 W/m² -1,5 °C -2,2 °C 14,5 km/h (3 Bft)
11.01.2021 23:39 23,4 °C 1,1 °C 43 % 83 % 1012,2 hPa 0,0 l/m² 12,2 km/h (2 Bft) S-SO 164 ° 0 min 0 W/m² -1,5 °C -3,9 °C 16,1 km/h (3 Bft)
11.01.2021 23:40 23,4 °C 1,1 °C 43 % 83 % 1012,2 hPa 0,0 l/m² 12,0 km/h (2 Bft) S-SO 156 ° 0 min 0 W/m² -1,5 °C -3,7 °C 16,1 km/h (3 Bft)
11.01.2021 23:42 23,4 °C 1,1 °C 43 % 83 % 1012,2 hPa 0,0 l/m² 11,7 km/h (2 Bft) S-SO 159 ° 0 min 0 W/m² -1,5 °C -3,5 °C 16,1 km/h (3 Bft)
11.01.2021 23:43 23,4 °C 1,1 °C 43 % 83 % 1012,2 hPa 0,0 l/m² 11,6 km/h (2 Bft) S-SW 194 ° 0 min 0 W/m² -1,5 °C -3,5 °C 14,5 km/h (3 Bft)
11.01.2021 23:44 23,4 °C 1,2 °C 43 % 83 % 1012,2 hPa 0,0 l/m² 10,9 km/h (2 Bft) S 181 ° 0 min 0 W/m² -1,4 °C -2,8 °C 14,5 km/h (3 Bft)
11.01.2021 23:46 23,4 °C 1,2 °C 43 % 83 % 1012,2 hPa 0,0 l/m² 11,0 km/h (2 Bft) S-SW 192 ° 0 min 0 W/m² -1,4 °C -2,9 °C 16,1 km/h (3 Bft)
11.01.2021 23:48 23,4 °C 1,2 °C 43 % 83 % 1012,2 hPa 0,0 l/m² 10,2 km/h (2 Bft) S 185 ° 0 min 0 W/m² -1,4 °C -2,3 °C 16,1 km/h (3 Bft)
11.01.2021 23:50 23,4 °C 1,2 °C 43 % 83 % 1012,2 hPa 0,0 l/m² 8,4 km/h (2 Bft) S 190 ° 0 min 0 W/m² -1,4 °C -0,8 °C 12,9 km/h (3 Bft)
11.01.2021 23:51 23,4 °C 1,3 °C 43 % 83 % 1012,1 hPa 0,0 l/m² 11,2 km/h (2 Bft) S-SW 207 ° 0 min 0 W/m² -1,3 °C -2,9 °C 16,1 km/h (3 Bft)
11.01.2021 23:52 23,4 °C 1,3 °C 43 % 83 % 1012,1 hPa 0,0 l/m² 11,6 km/h (2 Bft) S-SW 194 ° 0 min 0 W/m² -1,3 °C -3,2 °C 14,5 km/h (3 Bft)
11.01.2021 23:53 23,4 °C 1,3 °C 43 % 83 % 1012,0 hPa 0,0 l/m² 12,4 km/h (2 Bft) S 188 ° 0 min 0 W/m² -1,3 °C -3,8 °C 14,5 km/h (3 Bft)
11.01.2021 23:54 23,4 °C 1,3 °C 43 % 83 % 1012,0 hPa 0,0 l/m² 13,9 km/h (3 Bft) S 188 ° 0 min 0 W/m² -1,3 °C -4,7 °C 20,9 km/h (4 Bft)
11.01.2021 23:56 23,4 °C 1,3 °C 43 % 83 % 1012,0 hPa 0,0 l/m² 15,7 km/h (3 Bft) S 190 ° 0 min 0 W/m² -1,3 °C -5,8 °C 19,3 km/h (3 Bft)
11.01.2021 23:58 23,4 °C 1,4 °C 43 % 83 % 1012,0 hPa 0,0 l/m² 13,4 km/h (3 Bft) S 190 ° 0 min 0 W/m² -1,2 °C -4,3 °C 20,9 km/h (4 Bft)
11.01.2021 23:59 23,4 °C 1,5 °C 43 % 83 % 1012,0 hPa 0,0 l/m² 14,4 km/h (3 Bft) S-SW 202 ° 0 min 0 W/m² -1,1 °C -4,8 °C 17,7 km/h (3 Bft)
_ Min-Zeit 20:03 02:49 15:54 16:24 23:59 - 08:54 - - - - 02:49 12:38 08:54
Minimum _ 22,9 °C -4,7 °C 35 % 73 % 1012,0 hPa - 0,0 km/h (0 Bft) - - - - -5,9 °C -10,9 °C 0,0 km/h (0 Bft)
_ Max-Zeit 09:59 14:04 09:22 00:15 00:00 23:59 12:23 - - 09:35 11:30 23:59 14:06 12:36
Maximum _ 24,0 °C 1,7 °C 45 % 93 % 1023,2 hPa 0,0 l/m² 25,5 km/h
SW (4 Bft)
- - 3 min 234 W/m² -1,1 °C 1,3 °C 35,4 km/h
SW (5 Bft)
Durchschnitt _ 23,4 °C -0,2 °C 42 % 81 % 1018,7 hPa #0,0 l/m² 9,6 km/h (2 Bft) S-SW - #6:12 h 32 W/m² -3,1 °C -3,6 °C 13,9 km/h (3 Bft)
© 2009 Mathias Hoßbach